<?xml version='1.0' encoding='UTF-8'?><gpx version="1.1" creator="JPX - https://github.com/jenetics/jpx" xmlns="http://www.topografix.com/GPX/1/1"><trk><trkseg><trkpt lat="42.1162904" lon="12.1256351"><ele>334.0</ele><time>2026-04-20T18:18:44.724Z</time></trkpt><trkpt lat="42.1163074" lon="12.1255441"><ele>334.0</ele><time>2026-04-20T18:19:08.724Z</time></trkpt><trkpt lat="42.1163527" lon="12.1254633"><ele>334.0</ele><time>2026-04-20T18:19:10.726Z</time></trkpt><trkpt lat="42.1163958" lon="12.1253817"><ele>334.0</ele><time>2026-04-20T18:19:12.725Z</time></trkpt><trkpt lat="42.11643" lon="12.1253004"><ele>334.0</ele><time>2026-04-20T18:19:14.725Z</time></trkpt><trkpt lat="42.116435" lon="12.1251781"><ele>334.0</ele><time>2026-04-20T18:19:17.726Z</time></trkpt><trkpt lat="42.1164064" lon="12.1250697"><ele>334.0</ele><time>2026-04-20T18:19:20.726Z</time></trkpt><trkpt lat="42.1163694" lon="12.1249996"><ele>334.0</ele><time>2026-04-20T18:19:33.725Z</time></trkpt><trkpt lat="42.1162678" lon="12.124933"><ele>334.0</ele><time>2026-04-20T18:19:35.726Z</time></trkpt><trkpt lat="42.1161805" lon="12.1249047"><ele>334.0</ele><time>2026-04-20T18:19:36.725Z</time></trkpt><trkpt lat="42.1160838" lon="12.1248693"><ele>334.0</ele><time>2026-04-20T18:19:37.726Z</time></trkpt><trkpt lat="42.115974" lon="12.1248375"><ele>333.5</ele><time>2026-04-20T18:19:38.725Z</time></trkpt><trkpt lat="42.1158606" lon="12.1248101"><ele>333.0</ele><time>2026-04-20T18:19:39.725Z</time></trkpt><trkpt lat="42.1157361" lon="12.1247784"><ele>332.5</ele><time>2026-04-20T18:19:40.725Z</time></trkpt><trkpt lat="42.1156029" lon="12.1247329"><ele>332.0</ele><time>2026-04-20T18:19:41.727Z</time></trkpt><trkpt lat="42.1154709" lon="12.1246946"><ele>331.5</ele><time>2026-04-20T18:19:42.725Z</time></trkpt><trkpt lat="42.115333" lon="12.1246548"><ele>331.0</ele><time>2026-04-20T18:19:43.726Z</time></trkpt><trkpt lat="42.1151944" lon="12.1246154"><ele>330.5</ele><time>2026-04-20T18:19:44.725Z</time></trkpt><trkpt lat="42.1150538" lon="12.1245743"><ele>330.0</ele><time>2026-04-20T18:19:45.725Z</time></trkpt><trkpt lat="42.1149063" lon="12.124533"><ele>330.75</ele><time>2026-04-20T18:19:46.725Z</time></trkpt><trkpt lat="42.1147646" lon="12.1244942"><ele>331.5</ele><time>2026-04-20T18:19:47.725Z</time></trkpt><trkpt lat="42.1146198" lon="12.1244629"><ele>332.25</ele><time>2026-04-20T18:19:48.725Z</time></trkpt><trkpt lat="42.1144776" lon="12.1244432"><ele>333.0</ele><time>2026-04-20T18:19:49.726Z</time></trkpt><trkpt lat="42.1143332" lon="12.1244363"><ele>333.0</ele><time>2026-04-20T18:19:50.726Z</time></trkpt><trkpt lat="42.1141973" lon="12.1244464"><ele>333.0</ele><time>2026-04-20T18:19:51.725Z</time></trkpt><trkpt lat="42.1140619" lon="12.1244688"><ele>333.0</ele><time>2026-04-20T18:19:52.725Z</time></trkpt><trkpt lat="42.1139328" lon="12.1245012"><ele>333.0</ele><time>2026-04-20T18:19:53.725Z</time></trkpt><trkpt lat="42.1138055" lon="12.1245518"><ele>332.75</ele><time>2026-04-20T18:19:54.726Z</time></trkpt><trkpt lat="42.1136741" lon="12.1246127"><ele>332.5</ele><time>2026-04-20T18:19:55.725Z</time></trkpt><trkpt lat="42.1135418" lon="12.1246883"><ele>332.25</ele><time>2026-04-20T18:19:56.725Z</time></trkpt><trkpt lat="42.1134062" lon="12.1247801"><ele>332.0</ele><time>2026-04-20T18:19:57.726Z</time></trkpt><trkpt lat="42.1132742" lon="12.1248825"><ele>336.0</ele><time>2026-04-20T18:19:58.726Z</time></trkpt><trkpt lat="42.1131374" lon="12.1249961"><ele>340.0</ele><time>2026-04-20T18:19:59.724Z</time></trkpt><trkpt lat="42.1130021" lon="12.1251176"><ele>344.0</ele><time>2026-04-20T18:20:00.726Z</time></trkpt><trkpt lat="42.1128622" lon="12.1252443"><ele>344.0</ele><time>2026-04-20T18:20:01.725Z</time></trkpt><trkpt lat="42.1127217" lon="12.1253741"><ele>344.0</ele><time>2026-04-20T18:20:02.724Z</time></trkpt><trkpt lat="42.1125787" lon="12.125504"><ele>344.0</ele><time>2026-04-20T18:20:03.726Z</time></trkpt><trkpt lat="42.1124349" lon="12.1256334"><ele>347.6666666666667</ele><time>2026-04-20T18:20:04.725Z</time></trkpt><trkpt lat="42.1122874" lon="12.125762"><ele>351.3333333333333</ele><time>2026-04-20T18:20:05.724Z</time></trkpt><trkpt lat="42.1121372" lon="12.1258921"><ele>355.0</ele><time>2026-04-20T18:20:06.726Z</time></trkpt><trkpt lat="42.1119841" lon="12.1260322"><ele>355.0</ele><time>2026-04-20T18:20:07.724Z</time></trkpt><trkpt lat="42.1118331" lon="12.1261701"><ele>355.0</ele><time>2026-04-20T18:20:08.724Z</time></trkpt><trkpt lat="42.1116843" lon="12.1263016"><ele>355.0</ele><time>2026-04-20T18:20:09.727Z</time></trkpt><trkpt lat="42.1115327" lon="12.1264434"><ele>352.0</ele><time>2026-04-20T18:20:10.724Z</time></trkpt><trkpt lat="42.1113807" lon="12.1265795"><ele>349.0</ele><time>2026-04-20T18:20:11.725Z</time></trkpt><trkpt lat="42.1112288" lon="12.1267132"><ele>346.0</ele><time>2026-04-20T18:20:12.725Z</time></trkpt><trkpt lat="42.1110784" lon="12.1268439"><ele>346.0</ele><time>2026-04-20T18:20:13.726Z</time></trkpt><trkpt lat="42.1109229" lon="12.1269787"><ele>346.0</ele><time>2026-04-20T18:20:14.725Z</time></trkpt><trkpt lat="42.1107755" lon="12.1271091"><ele>346.0</ele><time>2026-04-20T18:20:15.725Z</time></trkpt><trkpt lat="42.1106298" lon="12.1272385"><ele>346.0</ele><time>2026-04-20T18:20:16.725Z</time></trkpt><trkpt lat="42.1104852" lon="12.1273725"><ele>346.0</ele><time>2026-04-20T18:20:17.726Z</time></trkpt><trkpt lat="42.1103444" lon="12.1274933"><ele>346.0</ele><time>2026-04-20T18:20:18.725Z</time></trkpt><trkpt lat="42.1102146" lon="12.1276411"><ele>346.66666666666663</ele><time>2026-04-20T18:20:19.727Z</time></trkpt><trkpt lat="42.1100857" lon="12.1277956"><ele>347.3333333333333</ele><time>2026-04-20T18:20:20.725Z</time></trkpt><trkpt lat="42.1099618" lon="12.1279562"><ele>348.0</ele><time>2026-04-20T18:20:21.726Z</time></trkpt><trkpt lat="42.1098515" lon="12.1281365"><ele>349.6666666666667</ele><time>2026-04-20T18:20:22.724Z</time></trkpt><trkpt lat="42.1097496" lon="12.128305"><ele>351.33333333333337</ele><time>2026-04-20T18:20:23.727Z</time></trkpt><trkpt lat="42.1096465" lon="12.1284949"><ele>353.0</ele><time>2026-04-20T18:20:24.725Z</time></trkpt><trkpt lat="42.1095409" lon="12.1286904"><ele>353.0</ele><time>2026-04-20T18:20:25.725Z</time></trkpt><trkpt lat="42.109451" lon="12.128887"><ele>353.0</ele><time>2026-04-20T18:20:26.724Z</time></trkpt><trkpt lat="42.1093737" lon="12.1290989"><ele>353.0</ele><time>2026-04-20T18:20:27.726Z</time></trkpt><trkpt lat="42.1092953" lon="12.1293104"><ele>353.6666666666667</ele><time>2026-04-20T18:20:28.725Z</time></trkpt><trkpt lat="42.109232" lon="12.1295334"><ele>354.3333333333333</ele><time>2026-04-20T18:20:29.726Z</time></trkpt><trkpt lat="42.1091691" lon="12.1297498"><ele>355.0</ele><time>2026-04-20T18:20:30.726Z</time></trkpt><trkpt lat="42.1091197" lon="12.1299681"><ele>355.0</ele><time>2026-04-20T18:20:31.725Z</time></trkpt><trkpt lat="42.1090783" lon="12.1301879"><ele>355.0</ele><time>2026-04-20T18:20:32.725Z</time></trkpt><trkpt lat="42.1090431" lon="12.1304141"><ele>355.0</ele><time>2026-04-20T18:20:33.725Z</time></trkpt><trkpt lat="42.1090201" lon="12.1306436"><ele>353.3333333333333</ele><time>2026-04-20T18:20:34.725Z</time></trkpt><trkpt lat="42.109002" lon="12.130875"><ele>351.6666666666667</ele><time>2026-04-20T18:20:35.727Z</time></trkpt><trkpt lat="42.1089876" lon="12.1311252"><ele>350.0</ele><time>2026-04-20T18:20:36.725Z</time></trkpt><trkpt lat="42.1089836" lon="12.1313711"><ele>351.33333333333337</ele><time>2026-04-20T18:20:37.726Z</time></trkpt><trkpt lat="42.1089836" lon="12.1316181"><ele>352.6666666666667</ele><time>2026-04-20T18:20:38.725Z</time></trkpt><trkpt lat="42.1089885" lon="12.131855"><ele>354.0</ele><time>2026-04-20T18:20:39.726Z</time></trkpt><trkpt lat="42.1089863" lon="12.1320904"><ele>354.0</ele><time>2026-04-20T18:20:40.726Z</time></trkpt><trkpt lat="42.1089755" lon="12.1323262"><ele>354.0</ele><time>2026-04-20T18:20:41.725Z</time></trkpt><trkpt lat="42.1089496" lon="12.1325596"><ele>354.0</ele><time>2026-04-20T18:20:42.725Z</time></trkpt><trkpt lat="42.108914" lon="12.1327901"><ele>355.3333333333333</ele><time>2026-04-20T18:20:43.726Z</time></trkpt><trkpt lat="42.1088667" lon="12.1330217"><ele>356.66666666666663</ele><time>2026-04-20T18:20:44.726Z</time></trkpt><trkpt lat="42.108812" lon="12.1332548"><ele>358.0</ele><time>2026-04-20T18:20:45.724Z</time></trkpt><trkpt lat="42.1087432" lon="12.1334861"><ele>355.0</ele><time>2026-04-20T18:20:46.726Z</time></trkpt><trkpt lat="42.1086702" lon="12.1337136"><ele>352.0</ele><time>2026-04-20T18:20:47.727Z</time></trkpt><trkpt lat="42.1085973" lon="12.1339357"><ele>349.0</ele><time>2026-04-20T18:20:48.725Z</time></trkpt><trkpt lat="42.1085238" lon="12.1341448"><ele>347.3333333333333</ele><time>2026-04-20T18:20:49.726Z</time></trkpt><trkpt lat="42.108451" lon="12.1343525"><ele>345.6666666666667</ele><time>2026-04-20T18:20:50.725Z</time></trkpt><trkpt lat="42.1083832" lon="12.1345508"><ele>344.0</ele><time>2026-04-20T18:20:51.727Z</time></trkpt><trkpt lat="42.1083446" lon="12.1347567"><ele>344.0</ele><time>2026-04-20T18:20:52.726Z</time></trkpt><trkpt lat="42.108314" lon="12.1349657"><ele>344.0</ele><time>2026-04-20T18:20:53.725Z</time></trkpt><trkpt lat="42.1082889" lon="12.1351849"><ele>344.0</ele><time>2026-04-20T18:20:54.725Z</time></trkpt><trkpt lat="42.1082757" lon="12.135419"><ele>344.0</ele><time>2026-04-20T18:20:55.725Z</time></trkpt><trkpt lat="42.1082675" lon="12.1356593"><ele>344.0</ele><time>2026-04-20T18:20:56.725Z</time></trkpt><trkpt lat="42.1082564" lon="12.1359075"><ele>344.0</ele><time>2026-04-20T18:20:57.726Z</time></trkpt><trkpt lat="42.1082449" lon="12.13616"><ele>345.6666666666667</ele><time>2026-04-20T18:20:58.726Z</time></trkpt><trkpt lat="42.1082344" lon="12.1364122"><ele>347.3333333333333</ele><time>2026-04-20T18:20:59.726Z</time></trkpt><trkpt lat="42.1082259" lon="12.1366643"><ele>349.0</ele><time>2026-04-20T18:21:00.726Z</time></trkpt><trkpt lat="42.1082194" lon="12.1369061"><ele>350.3333333333333</ele><time>2026-04-20T18:21:01.725Z</time></trkpt><trkpt lat="42.1082067" lon="12.1371451"><ele>351.6666666666667</ele><time>2026-04-20T18:21:02.726Z</time></trkpt><trkpt lat="42.1081878" lon="12.1373828"><ele>353.0</ele><time>2026-04-20T18:21:03.724Z</time></trkpt><trkpt lat="42.1081594" lon="12.1376082"><ele>354.6666666666667</ele><time>2026-04-20T18:21:04.726Z</time></trkpt><trkpt lat="42.1081197" lon="12.1378251"><ele>356.3333333333333</ele><time>2026-04-20T18:21:05.725Z</time></trkpt><trkpt lat="42.1080651" lon="12.1380277"><ele>358.0</ele><time>2026-04-20T18:21:06.725Z</time></trkpt><trkpt lat="42.1080091" lon="12.1382133"><ele>357.66666666666663</ele><time>2026-04-20T18:21:07.727Z</time></trkpt><trkpt lat="42.1079512" lon="12.1384051"><ele>357.3333333333333</ele><time>2026-04-20T18:21:08.724Z</time></trkpt><trkpt lat="42.1078994" lon="12.1385977"><ele>357.0</ele><time>2026-04-20T18:21:09.725Z</time></trkpt><trkpt lat="42.1078484" lon="12.1387906"><ele>357.0</ele><time>2026-04-20T18:21:10.725Z</time></trkpt><trkpt lat="42.1077993" lon="12.1389779"><ele>357.0</ele><time>2026-04-20T18:21:11.725Z</time></trkpt><trkpt lat="42.1077532" lon="12.1391573"><ele>357.0</ele><time>2026-04-20T18:21:12.725Z</time></trkpt><trkpt lat="42.1077096" lon="12.1393379"><ele>357.0</ele><time>2026-04-20T18:21:13.725Z</time></trkpt><trkpt lat="42.1076782" lon="12.1395113"><ele>356.75</ele><time>2026-04-20T18:21:14.725Z</time></trkpt><trkpt lat="42.1076569" lon="12.139687"><ele>356.5</ele><time>2026-04-20T18:21:15.726Z</time></trkpt><trkpt lat="42.1076497" lon="12.1398697"><ele>356.25</ele><time>2026-04-20T18:21:16.726Z</time></trkpt><trkpt lat="42.1076507" lon="12.1400605"><ele>356.0</ele><time>2026-04-20T18:21:17.725Z</time></trkpt><trkpt lat="42.1076601" lon="12.1402558"><ele>355.0</ele><time>2026-04-20T18:21:18.726Z</time></trkpt><trkpt lat="42.1076906" lon="12.1404548"><ele>354.0</ele><time>2026-04-20T18:21:19.725Z</time></trkpt><trkpt lat="42.1077277" lon="12.1406555"><ele>353.0</ele><time>2026-04-20T18:21:20.726Z</time></trkpt><trkpt lat="42.1077807" lon="12.1408719"><ele>352.33333333333337</ele><time>2026-04-20T18:21:21.725Z</time></trkpt><trkpt lat="42.1078194" lon="12.1410897"><ele>351.6666666666667</ele><time>2026-04-20T18:21:22.726Z</time></trkpt><trkpt lat="42.1078597" lon="12.1413147"><ele>351.0</ele><time>2026-04-20T18:21:23.726Z</time></trkpt><trkpt lat="42.1078914" lon="12.1415389"><ele>351.0</ele><time>2026-04-20T18:21:24.725Z</time></trkpt><trkpt lat="42.1079148" lon="12.1417676"><ele>351.0</ele><time>2026-04-20T18:21:25.725Z</time></trkpt><trkpt lat="42.1079375" lon="12.1420128"><ele>351.0</ele><time>2026-04-20T18:21:26.724Z</time></trkpt><trkpt lat="42.1079503" lon="12.1422544"><ele>350.3333333333333</ele><time>2026-04-20T18:21:27.726Z</time></trkpt><trkpt lat="42.1079605" lon="12.1424997"><ele>349.66666666666663</ele><time>2026-04-20T18:21:28.725Z</time></trkpt><trkpt lat="42.1079716" lon="12.1427478"><ele>349.0</ele><time>2026-04-20T18:21:29.724Z</time></trkpt><trkpt lat="42.1079837" lon="12.1429895"><ele>347.0</ele><time>2026-04-20T18:21:30.726Z</time></trkpt><trkpt lat="42.107988" lon="12.1432279"><ele>345.0</ele><time>2026-04-20T18:21:31.726Z</time></trkpt><trkpt lat="42.1079889" lon="12.1434513"><ele>343.0</ele><time>2026-04-20T18:21:32.724Z</time></trkpt><trkpt lat="42.1079617" lon="12.1436698"><ele>343.0</ele><time>2026-04-20T18:21:33.724Z</time></trkpt><trkpt lat="42.1079301" lon="12.1438793"><ele>343.0</ele><time>2026-04-20T18:21:34.724Z</time></trkpt><trkpt lat="42.1078854" lon="12.1440927"><ele>343.0</ele><time>2026-04-20T18:21:35.725Z</time></trkpt><trkpt lat="42.1078343" lon="12.1443036"><ele>342.66666666666663</ele><time>2026-04-20T18:21:36.726Z</time></trkpt><trkpt lat="42.1077752" lon="12.1445117"><ele>342.3333333333333</ele><time>2026-04-20T18:21:37.725Z</time></trkpt><trkpt lat="42.1077225" lon="12.1447275"><ele>342.0</ele><time>2026-04-20T18:21:38.726Z</time></trkpt><trkpt lat="42.107668" lon="12.1449309"><ele>342.0</ele><time>2026-04-20T18:21:39.725Z</time></trkpt><trkpt lat="42.1076227" lon="12.1451327"><ele>342.0</ele><time>2026-04-20T18:21:40.725Z</time></trkpt><trkpt lat="42.1075877" lon="12.1453287"><ele>342.0</ele><time>2026-04-20T18:21:41.726Z</time></trkpt><trkpt lat="42.1075562" lon="12.1455397"><ele>340.3333333333333</ele><time>2026-04-20T18:21:42.725Z</time></trkpt><trkpt lat="42.1075268" lon="12.1457591"><ele>338.66666666666663</ele><time>2026-04-20T18:21:43.725Z</time></trkpt><trkpt lat="42.1074991" lon="12.1459855"><ele>337.0</ele><time>2026-04-20T18:21:44.724Z</time></trkpt><trkpt lat="42.1074739" lon="12.1462184"><ele>337.0</ele><time>2026-04-20T18:21:45.725Z</time></trkpt><trkpt lat="42.1074466" lon="12.1464542"><ele>337.0</ele><time>2026-04-20T18:21:46.724Z</time></trkpt><trkpt lat="42.1074226" lon="12.1466948"><ele>337.0</ele><time>2026-04-20T18:21:47.726Z</time></trkpt><trkpt lat="42.107393" lon="12.1469418"><ele>334.0</ele><time>2026-04-20T18:21:48.725Z</time></trkpt><trkpt lat="42.1073655" lon="12.1471827"><ele>331.0</ele><time>2026-04-20T18:21:49.726Z</time></trkpt><trkpt lat="42.1073336" lon="12.1474151"><ele>328.0</ele><time>2026-04-20T18:21:50.726Z</time></trkpt><trkpt lat="42.1073156" lon="12.1476294"><ele>327.3333333333333</ele><time>2026-04-20T18:21:51.726Z</time></trkpt><trkpt lat="42.1072825" lon="12.1478476"><ele>326.6666666666667</ele><time>2026-04-20T18:21:52.725Z</time></trkpt><trkpt lat="42.1072461" lon="12.1480507"><ele>326.0</ele><time>2026-04-20T18:21:53.726Z</time></trkpt><trkpt lat="42.1071946" lon="12.1482556"><ele>325.0</ele><time>2026-04-20T18:21:54.726Z</time></trkpt><trkpt lat="42.107141" lon="12.1484605"><ele>324.0</ele><time>2026-04-20T18:21:55.726Z</time></trkpt><trkpt lat="42.1070727" lon="12.1486687"><ele>323.0</ele><time>2026-04-20T18:21:56.725Z</time></trkpt><trkpt lat="42.1070072" lon="12.1488818"><ele>323.0</ele><time>2026-04-20T18:21:57.725Z</time></trkpt><trkpt lat="42.1069362" lon="12.1491021"><ele>323.0</ele><time>2026-04-20T18:21:58.724Z</time></trkpt><trkpt lat="42.1068624" lon="12.1493282"><ele>323.0</ele><time>2026-04-20T18:21:59.725Z</time></trkpt><trkpt lat="42.1067856" lon="12.1495565"><ele>323.0</ele><time>2026-04-20T18:22:00.725Z</time></trkpt><trkpt lat="42.1067097" lon="12.1497732"><ele>323.0</ele><time>2026-04-20T18:22:01.725Z</time></trkpt><trkpt lat="42.1066381" lon="12.1499783"><ele>323.0</ele><time>2026-04-20T18:22:02.726Z</time></trkpt><trkpt lat="42.1065686" lon="12.1501645"><ele>322.25</ele><time>2026-04-20T18:22:03.725Z</time></trkpt><trkpt lat="42.1065122" lon="12.1503346"><ele>321.5</ele><time>2026-04-20T18:22:04.725Z</time></trkpt><trkpt lat="42.1064544" lon="12.1504874"><ele>320.75</ele><time>2026-04-20T18:22:05.726Z</time></trkpt><trkpt lat="42.1063896" lon="12.1506236"><ele>320.0</ele><time>2026-04-20T18:22:06.725Z</time></trkpt><trkpt lat="42.1063175" lon="12.1507473"><ele>318.75</ele><time>2026-04-20T18:22:07.726Z</time></trkpt><trkpt lat="42.1062375" lon="12.150857"><ele>317.5</ele><time>2026-04-20T18:22:08.724Z</time></trkpt><trkpt lat="42.1061275" lon="12.1509526"><ele>316.25</ele><time>2026-04-20T18:22:09.726Z</time></trkpt><trkpt lat="42.1060045" lon="12.1510432"><ele>315.0</ele><time>2026-04-20T18:22:10.726Z</time></trkpt><trkpt lat="42.1058759" lon="12.1511256"><ele>314.5</ele><time>2026-04-20T18:22:11.725Z</time></trkpt><trkpt lat="42.1057421" lon="12.1512118"><ele>314.0</ele><time>2026-04-20T18:22:12.725Z</time></trkpt><trkpt lat="42.1056251" lon="12.1512979"><ele>313.5</ele><time>2026-04-20T18:22:13.726Z</time></trkpt><trkpt lat="42.1055252" lon="12.1513998"><ele>313.0</ele><time>2026-04-20T18:22:14.725Z</time></trkpt><trkpt lat="42.1054357" lon="12.1515177"><ele>312.5</ele><time>2026-04-20T18:22:15.725Z</time></trkpt><trkpt lat="42.105353" lon="12.1516495"><ele>312.0</ele><time>2026-04-20T18:22:16.725Z</time></trkpt><trkpt lat="42.1052731" lon="12.1517978"><ele>311.5</ele><time>2026-04-20T18:22:17.725Z</time></trkpt><trkpt lat="42.1052028" lon="12.1519486"><ele>311.0</ele><time>2026-04-20T18:22:18.726Z</time></trkpt><trkpt lat="42.1051385" lon="12.1521064"><ele>311.0</ele><time>2026-04-20T18:22:19.725Z</time></trkpt><trkpt lat="42.1050803" lon="12.1522654"><ele>311.0</ele><time>2026-04-20T18:22:20.727Z</time></trkpt><trkpt lat="42.1050341" lon="12.1524293"><ele>311.0</ele><time>2026-04-20T18:22:21.725Z</time></trkpt><trkpt lat="42.1049762" lon="12.1526139"><ele>311.0</ele><time>2026-04-20T18:22:22.725Z</time></trkpt><trkpt lat="42.104932" lon="12.1528004"><ele>310.6666666666667</ele><time>2026-04-20T18:22:23.725Z</time></trkpt><trkpt lat="42.1048808" lon="12.1529996"><ele>310.3333333333333</ele><time>2026-04-20T18:22:24.726Z</time></trkpt><trkpt lat="42.1048285" lon="12.1531969"><ele>310.0</ele><time>2026-04-20T18:22:25.726Z</time></trkpt><trkpt lat="42.1047781" lon="12.1533953"><ele>307.66666666666663</ele><time>2026-04-20T18:22:26.725Z</time></trkpt><trkpt lat="42.1047286" lon="12.1535854"><ele>305.3333333333333</ele><time>2026-04-20T18:22:27.726Z</time></trkpt><trkpt lat="42.1046788" lon="12.1537788"><ele>303.0</ele><time>2026-04-20T18:22:28.725Z</time></trkpt><trkpt lat="42.1046246" lon="12.153972"><ele>302.0</ele><time>2026-04-20T18:22:29.725Z</time></trkpt><trkpt lat="42.1045672" lon="12.1541649"><ele>301.0</ele><time>2026-04-20T18:22:30.725Z</time></trkpt><trkpt lat="42.1045105" lon="12.154365"><ele>300.0</ele><time>2026-04-20T18:22:31.725Z</time></trkpt><trkpt lat="42.1044536" lon="12.1545588"><ele>300.0</ele><time>2026-04-20T18:22:32.725Z</time></trkpt><trkpt lat="42.104403" lon="12.1547399"><ele>300.0</ele><time>2026-04-20T18:22:33.726Z</time></trkpt><trkpt lat="42.1043531" lon="12.1549141"><ele>300.0</ele><time>2026-04-20T18:22:34.725Z</time></trkpt><trkpt lat="42.1043039" lon="12.155087"><ele>300.0</ele><time>2026-04-20T18:22:35.725Z</time></trkpt><trkpt lat="42.1042569" lon="12.1552692"><ele>300.0</ele><time>2026-04-20T18:22:36.724Z</time></trkpt><trkpt lat="42.104218" lon="12.1554576"><ele>300.0</ele><time>2026-04-20T18:22:37.725Z</time></trkpt><trkpt lat="42.1041858" lon="12.1556549"><ele>300.0</ele><time>2026-04-20T18:22:38.725Z</time></trkpt><trkpt lat="42.1041653" lon="12.155854"><ele>300.0</ele><time>2026-04-20T18:22:39.725Z</time></trkpt><trkpt lat="42.1041556" lon="12.1560574"><ele>299.3333333333333</ele><time>2026-04-20T18:22:40.725Z</time></trkpt><trkpt lat="42.1041507" lon="12.1562659"><ele>298.66666666666663</ele><time>2026-04-20T18:22:41.725Z</time></trkpt><trkpt lat="42.1041472" lon="12.1564686"><ele>298.0</ele><time>2026-04-20T18:22:42.725Z</time></trkpt><trkpt lat="42.1041461" lon="12.1566757"><ele>297.3333333333333</ele><time>2026-04-20T18:22:43.724Z</time></trkpt><trkpt lat="42.1041498" lon="12.1568814"><ele>296.6666666666667</ele><time>2026-04-20T18:22:44.725Z</time></trkpt><trkpt lat="42.104154" lon="12.1570843"><ele>296.0</ele><time>2026-04-20T18:22:45.725Z</time></trkpt><trkpt lat="42.1041605" lon="12.1572866"><ele>296.0</ele><time>2026-04-20T18:22:46.725Z</time></trkpt><trkpt lat="42.1041659" lon="12.157474"><ele>296.0</ele><time>2026-04-20T18:22:47.725Z</time></trkpt><trkpt lat="42.1041695" lon="12.1576533"><ele>296.0</ele><time>2026-04-20T18:22:48.725Z</time></trkpt><trkpt lat="42.1041749" lon="12.1578242"><ele>296.0</ele><time>2026-04-20T18:22:49.725Z</time></trkpt><trkpt lat="42.1041735" lon="12.1579829"><ele>296.0</ele><time>2026-04-20T18:22:50.726Z</time></trkpt><trkpt lat="42.1041745" lon="12.1581337"><ele>296.0</ele><time>2026-04-20T18:22:51.725Z</time></trkpt><trkpt lat="42.1041787" lon="12.1582794"><ele>296.0</ele><time>2026-04-20T18:22:52.725Z</time></trkpt><trkpt lat="42.1041842" lon="12.1584215"><ele>296.0</ele><time>2026-04-20T18:22:53.725Z</time></trkpt><trkpt lat="42.104184" lon="12.1585682"><ele>296.0</ele><time>2026-04-20T18:22:54.725Z</time></trkpt><trkpt lat="42.1041878" lon="12.1587151"><ele>296.40000000000003</ele><time>2026-04-20T18:22:55.725Z</time></trkpt><trkpt lat="42.1041961" lon="12.1588609"><ele>296.8</ele><time>2026-04-20T18:22:56.725Z</time></trkpt><trkpt lat="42.1042004" lon="12.1590048"><ele>297.20000000000005</ele><time>2026-04-20T18:22:57.725Z</time></trkpt><trkpt lat="42.1042106" lon="12.1591499"><ele>297.6</ele><time>2026-04-20T18:22:58.725Z</time></trkpt><trkpt lat="42.1042197" lon="12.1593101"><ele>298.0</ele><time>2026-04-20T18:22:59.725Z</time></trkpt><trkpt lat="42.1042203" lon="12.1594743"><ele>298.75</ele><time>2026-04-20T18:23:00.725Z</time></trkpt><trkpt lat="42.1042248" lon="12.1596476"><ele>299.5</ele><time>2026-04-20T18:23:01.725Z</time></trkpt><trkpt lat="42.1042247" lon="12.1598218"><ele>300.25</ele><time>2026-04-20T18:23:02.725Z</time></trkpt><trkpt lat="42.1042209" lon="12.160004"><ele>301.0</ele><time>2026-04-20T18:23:03.725Z</time></trkpt><trkpt lat="42.1042287" lon="12.1601925"><ele>301.0</ele><time>2026-04-20T18:23:04.725Z</time></trkpt><trkpt lat="42.104227" lon="12.1603825"><ele>301.0</ele><time>2026-04-20T18:23:05.725Z</time></trkpt><trkpt lat="42.1042314" lon="12.1605774"><ele>301.0</ele><time>2026-04-20T18:23:06.725Z</time></trkpt><trkpt lat="42.1042319" lon="12.1607793"><ele>301.0</ele><time>2026-04-20T18:23:07.726Z</time></trkpt><trkpt lat="42.1042405" lon="12.1609754"><ele>301.0</ele><time>2026-04-20T18:23:08.724Z</time></trkpt><trkpt lat="42.1042435" lon="12.1611769"><ele>301.0</ele><time>2026-04-20T18:23:09.725Z</time></trkpt><trkpt lat="42.1042426" lon="12.1613756"><ele>301.0</ele><time>2026-04-20T18:23:10.724Z</time></trkpt><trkpt lat="42.1042443" lon="12.1615759"><ele>301.0</ele><time>2026-04-20T18:23:11.725Z</time></trkpt><trkpt lat="42.1042458" lon="12.16177"><ele>301.0</ele><time>2026-04-20T18:23:12.725Z</time></trkpt><trkpt lat="42.1042486" lon="12.1619438"><ele>301.0</ele><time>2026-04-20T18:23:13.724Z</time></trkpt><trkpt lat="42.1042495" lon="12.1621082"><ele>301.0</ele><time>2026-04-20T18:23:14.725Z</time></trkpt><trkpt lat="42.1042445" lon="12.1622487"><ele>301.0</ele><time>2026-04-20T18:23:15.726Z</time></trkpt><trkpt lat="42.1042171" lon="12.1623849"><ele>301.0</ele><time>2026-04-20T18:23:16.725Z</time></trkpt><trkpt lat="42.1041693" lon="12.1625126"><ele>301.0</ele><time>2026-04-20T18:23:17.725Z</time></trkpt><trkpt lat="42.1040966" lon="12.1626236"><ele>301.0</ele><time>2026-04-20T18:23:18.724Z</time></trkpt><trkpt lat="42.1040039" lon="12.1627285"><ele>301.0</ele><time>2026-04-20T18:23:19.725Z</time></trkpt><trkpt lat="42.1038931" lon="12.1628301"><ele>302.0</ele><time>2026-04-20T18:23:20.725Z</time></trkpt><trkpt lat="42.1037721" lon="12.1629417"><ele>303.0</ele><time>2026-04-20T18:23:21.725Z</time></trkpt><trkpt lat="42.10365" lon="12.1630677"><ele>304.0</ele><time>2026-04-20T18:23:22.726Z</time></trkpt><trkpt lat="42.1035279" lon="12.1631891"><ele>304.0</ele><time>2026-04-20T18:23:23.726Z</time></trkpt><trkpt lat="42.1034065" lon="12.1633146"><ele>304.0</ele><time>2026-04-20T18:23:24.725Z</time></trkpt><trkpt lat="42.1032858" lon="12.1634365"><ele>304.0</ele><time>2026-04-20T18:23:25.725Z</time></trkpt><trkpt lat="42.1031636" lon="12.1635612"><ele>304.0</ele><time>2026-04-20T18:23:26.725Z</time></trkpt><trkpt lat="42.1030427" lon="12.1636842"><ele>304.0</ele><time>2026-04-20T18:23:27.725Z</time></trkpt><trkpt lat="42.1029214" lon="12.163812"><ele>304.0</ele><time>2026-04-20T18:23:28.726Z</time></trkpt><trkpt lat="42.1028042" lon="12.1639307"><ele>304.25</ele><time>2026-04-20T18:23:29.724Z</time></trkpt><trkpt lat="42.1026914" lon="12.1640456"><ele>304.5</ele><time>2026-04-20T18:23:30.725Z</time></trkpt><trkpt lat="42.1025845" lon="12.1641579"><ele>304.75</ele><time>2026-04-20T18:23:31.727Z</time></trkpt><trkpt lat="42.1024812" lon="12.164265"><ele>305.0</ele><time>2026-04-20T18:23:32.725Z</time></trkpt><trkpt lat="42.1023802" lon="12.1643691"><ele>305.5</ele><time>2026-04-20T18:23:33.725Z</time></trkpt><trkpt lat="42.1022828" lon="12.1644689"><ele>306.0</ele><time>2026-04-20T18:23:34.725Z</time></trkpt><trkpt lat="42.1021827" lon="12.1645724"><ele>306.5</ele><time>2026-04-20T18:23:35.726Z</time></trkpt><trkpt lat="42.1020858" lon="12.1646712"><ele>307.0</ele><time>2026-04-20T18:23:36.726Z</time></trkpt><trkpt lat="42.1019864" lon="12.1647693"><ele>307.25</ele><time>2026-04-20T18:23:37.725Z</time></trkpt><trkpt lat="42.1018851" lon="12.1648689"><ele>307.5</ele><time>2026-04-20T18:23:38.724Z</time></trkpt><trkpt lat="42.1017828" lon="12.1649657"><ele>307.75</ele><time>2026-04-20T18:23:39.725Z</time></trkpt><trkpt lat="42.1016805" lon="12.1650721"><ele>308.0</ele><time>2026-04-20T18:23:40.725Z</time></trkpt><trkpt lat="42.1015791" lon="12.1651781"><ele>309.25</ele><time>2026-04-20T18:23:41.725Z</time></trkpt><trkpt lat="42.1014778" lon="12.1652825"><ele>310.5</ele><time>2026-04-20T18:23:42.726Z</time></trkpt><trkpt lat="42.1013735" lon="12.165386"><ele>311.75</ele><time>2026-04-20T18:23:43.725Z</time></trkpt><trkpt lat="42.1012687" lon="12.165489"><ele>313.0</ele><time>2026-04-20T18:23:44.725Z</time></trkpt><trkpt lat="42.101166" lon="12.165592"><ele>313.0</ele><time>2026-04-20T18:23:45.725Z</time></trkpt><trkpt lat="42.1010637" lon="12.1656928"><ele>313.0</ele><time>2026-04-20T18:23:46.726Z</time></trkpt><trkpt lat="42.1009665" lon="12.1657871"><ele>313.0</ele><time>2026-04-20T18:23:47.725Z</time></trkpt><trkpt lat="42.1008772" lon="12.1658765"><ele>313.0</ele><time>2026-04-20T18:23:48.725Z</time></trkpt><trkpt lat="42.1007928" lon="12.165969"><ele>313.8</ele><time>2026-04-20T18:23:49.725Z</time></trkpt><trkpt lat="42.1007056" lon="12.1660584"><ele>314.6</ele><time>2026-04-20T18:23:50.725Z</time></trkpt><trkpt lat="42.1006198" lon="12.1661402"><ele>315.4</ele><time>2026-04-20T18:23:51.724Z</time></trkpt><trkpt lat="42.1005364" lon="12.1662248"><ele>316.2</ele><time>2026-04-20T18:23:52.726Z</time></trkpt><trkpt lat="42.1004548" lon="12.1663066"><ele>317.0</ele><time>2026-04-20T18:23:53.725Z</time></trkpt><trkpt lat="42.1003724" lon="12.1663923"><ele>317.0</ele><time>2026-04-20T18:23:54.725Z</time></trkpt><trkpt lat="42.1002916" lon="12.1664795"><ele>317.0</ele><time>2026-04-20T18:23:55.726Z</time></trkpt><trkpt lat="42.1002092" lon="12.1665634"><ele>317.0</ele><time>2026-04-20T18:23:56.724Z</time></trkpt><trkpt lat="42.1001376" lon="12.1666381"><ele>317.0</ele><time>2026-04-20T18:23:57.727Z</time></trkpt><trkpt lat="42.1000675" lon="12.1667038"><ele>317.0</ele><time>2026-04-20T18:23:58.725Z</time></trkpt><trkpt lat="42.1000028" lon="12.1667566"><ele>316.6666666666667</ele><time>2026-04-20T18:23:59.725Z</time></trkpt><trkpt lat="42.0999456" lon="12.1668037"><ele>316.33333333333337</ele><time>2026-04-20T18:24:00.725Z</time></trkpt><trkpt lat="42.099884" lon="12.1668496"><ele>316.0</ele><time>2026-04-20T18:24:01.725Z</time></trkpt><trkpt lat="42.0998256" lon="12.1669023"><ele>315.6666666666667</ele><time>2026-04-20T18:24:02.724Z</time></trkpt><trkpt lat="42.0997666" lon="12.1669683"><ele>315.3333333333333</ele><time>2026-04-20T18:24:03.725Z</time></trkpt><trkpt lat="42.0997087" lon="12.16705"><ele>315.0</ele><time>2026-04-20T18:24:04.726Z</time></trkpt><trkpt lat="42.0996425" lon="12.1671344"><ele>315.8</ele><time>2026-04-20T18:24:05.725Z</time></trkpt><trkpt lat="42.0995719" lon="12.1672162"><ele>316.6</ele><time>2026-04-20T18:24:06.724Z</time></trkpt><trkpt lat="42.0994896" lon="12.1672929"><ele>317.4</ele><time>2026-04-20T18:24:07.725Z</time></trkpt><trkpt lat="42.0993843" lon="12.1673877"><ele>318.2</ele><time>2026-04-20T18:24:08.725Z</time></trkpt><trkpt lat="42.0992938" lon="12.1674912"><ele>319.0</ele><time>2026-04-20T18:24:09.725Z</time></trkpt><trkpt lat="42.0992009" lon="12.167581"><ele>319.0</ele><time>2026-04-20T18:24:10.725Z</time></trkpt><trkpt lat="42.0991113" lon="12.1676704"><ele>319.0</ele><time>2026-04-20T18:24:11.726Z</time></trkpt><trkpt lat="42.0990115" lon="12.167753"><ele>319.0</ele><time>2026-04-20T18:24:12.725Z</time></trkpt><trkpt lat="42.0989194" lon="12.1678422"><ele>319.0</ele><time>2026-04-20T18:24:13.725Z</time></trkpt><trkpt lat="42.0988276" lon="12.1679415"><ele>319.0</ele><time>2026-04-20T18:24:14.726Z</time></trkpt><trkpt lat="42.0987267" lon="12.1680474"><ele>319.0</ele><time>2026-04-20T18:24:15.725Z</time></trkpt><trkpt lat="42.0986211" lon="12.1681581"><ele>319.0</ele><time>2026-04-20T18:24:16.726Z</time></trkpt><trkpt lat="42.0985002" lon="12.1682802"><ele>319.0</ele><time>2026-04-20T18:24:17.725Z</time></trkpt><trkpt lat="42.0983789" lon="12.1684048"><ele>319.0</ele><time>2026-04-20T18:24:18.725Z</time></trkpt><trkpt lat="42.0982532" lon="12.1685321"><ele>319.0</ele><time>2026-04-20T18:24:19.726Z</time></trkpt><trkpt lat="42.0981247" lon="12.1686596"><ele>319.0</ele><time>2026-04-20T18:24:20.725Z</time></trkpt><trkpt lat="42.0979955" lon="12.1687932"><ele>319.3333333333333</ele><time>2026-04-20T18:24:21.725Z</time></trkpt><trkpt lat="42.0978643" lon="12.1689312"><ele>319.6666666666667</ele><time>2026-04-20T18:24:22.726Z</time></trkpt><trkpt lat="42.097735" lon="12.1690748"><ele>320.0</ele><time>2026-04-20T18:24:23.726Z</time></trkpt><trkpt lat="42.0975961" lon="12.1692219"><ele>320.0</ele><time>2026-04-20T18:24:24.725Z</time></trkpt><trkpt lat="42.0974576" lon="12.1693707"><ele>320.0</ele><time>2026-04-20T18:24:25.726Z</time></trkpt><trkpt lat="42.0973145" lon="12.1695153"><ele>320.0</ele><time>2026-04-20T18:24:26.725Z</time></trkpt><trkpt lat="42.0971712" lon="12.1696537"><ele>318.6666666666667</ele><time>2026-04-20T18:24:27.724Z</time></trkpt><trkpt lat="42.0970332" lon="12.169795"><ele>317.3333333333333</ele><time>2026-04-20T18:24:28.725Z</time></trkpt><trkpt lat="42.0968965" lon="12.1699337"><ele>316.0</ele><time>2026-04-20T18:24:29.725Z</time></trkpt><trkpt lat="42.0967677" lon="12.1700789"><ele>314.0</ele><time>2026-04-20T18:24:30.725Z</time></trkpt><trkpt lat="42.0966478" lon="12.1702309"><ele>312.0</ele><time>2026-04-20T18:24:31.725Z</time></trkpt><trkpt lat="42.0965354" lon="12.1703887"><ele>310.0</ele><time>2026-04-20T18:24:32.726Z</time></trkpt><trkpt lat="42.0964207" lon="12.1705487"><ele>310.0</ele><time>2026-04-20T18:24:33.725Z</time></trkpt><trkpt lat="42.0963162" lon="12.170713"><ele>310.0</ele><time>2026-04-20T18:24:34.725Z</time></trkpt><trkpt lat="42.0962101" lon="12.1708752"><ele>310.0</ele><time>2026-04-20T18:24:35.725Z</time></trkpt><trkpt lat="42.0961041" lon="12.1710296"><ele>310.0</ele><time>2026-04-20T18:24:36.725Z</time></trkpt><trkpt lat="42.0960047" lon="12.1711967"><ele>310.0</ele><time>2026-04-20T18:24:37.726Z</time></trkpt><trkpt lat="42.095897" lon="12.1713559"><ele>310.0</ele><time>2026-04-20T18:24:38.726Z</time></trkpt><trkpt lat="42.0958005" lon="12.1715176"><ele>312.0</ele><time>2026-04-20T18:24:39.725Z</time></trkpt><trkpt lat="42.0957172" lon="12.1716927"><ele>314.0</ele><time>2026-04-20T18:24:40.726Z</time></trkpt><trkpt lat="42.0956369" lon="12.1718791"><ele>316.0</ele><time>2026-04-20T18:24:41.725Z</time></trkpt><trkpt lat="42.0955679" lon="12.1720716"><ele>316.0</ele><time>2026-04-20T18:24:42.725Z</time></trkpt><trkpt lat="42.0955002" lon="12.1722708"><ele>316.0</ele><time>2026-04-20T18:24:43.726Z</time></trkpt><trkpt lat="42.0954341" lon="12.1724684"><ele>316.0</ele><time>2026-04-20T18:24:44.724Z</time></trkpt><trkpt lat="42.0953677" lon="12.1726632"><ele>316.3333333333333</ele><time>2026-04-20T18:24:45.726Z</time></trkpt><trkpt lat="42.0953025" lon="12.1728629"><ele>316.6666666666667</ele><time>2026-04-20T18:24:46.726Z</time></trkpt><trkpt lat="42.0952383" lon="12.1730573"><ele>317.0</ele><time>2026-04-20T18:24:47.727Z</time></trkpt><trkpt lat="42.0951691" lon="12.1732578"><ele>317.0</ele><time>2026-04-20T18:24:48.726Z</time></trkpt><trkpt lat="42.0951039" lon="12.1734521"><ele>317.0</ele><time>2026-04-20T18:24:49.727Z</time></trkpt><trkpt lat="42.0950329" lon="12.1736529"><ele>317.0</ele><time>2026-04-20T18:24:50.726Z</time></trkpt><trkpt lat="42.0949647" lon="12.173858"><ele>313.6666666666667</ele><time>2026-04-20T18:24:51.725Z</time></trkpt><trkpt lat="42.0948989" lon="12.1740596"><ele>310.3333333333333</ele><time>2026-04-20T18:24:52.725Z</time></trkpt><trkpt lat="42.0948393" lon="12.1742499"><ele>307.0</ele><time>2026-04-20T18:24:53.724Z</time></trkpt><trkpt lat="42.0947799" lon="12.1744317"><ele>307.0</ele><time>2026-04-20T18:24:54.726Z</time></trkpt><trkpt lat="42.0947176" lon="12.1746089"><ele>307.0</ele><time>2026-04-20T18:24:55.725Z</time></trkpt><trkpt lat="42.0946555" lon="12.1747907"><ele>307.0</ele><time>2026-04-20T18:24:56.725Z</time></trkpt><trkpt lat="42.0945881" lon="12.174965"><ele>307.0</ele><time>2026-04-20T18:24:57.726Z</time></trkpt><trkpt lat="42.0945158" lon="12.1751345"><ele>306.66666666666663</ele><time>2026-04-20T18:24:58.725Z</time></trkpt><trkpt lat="42.0944298" lon="12.1753009"><ele>306.3333333333333</ele><time>2026-04-20T18:24:59.725Z</time></trkpt><trkpt lat="42.0943414" lon="12.1754673"><ele>306.0</ele><time>2026-04-20T18:25:00.725Z</time></trkpt><trkpt lat="42.0942448" lon="12.1756359"><ele>306.3333333333333</ele><time>2026-04-20T18:25:01.725Z</time></trkpt><trkpt lat="42.0941433" lon="12.1758058"><ele>306.66666666666663</ele><time>2026-04-20T18:25:02.725Z</time></trkpt><trkpt lat="42.0940413" lon="12.1759783"><ele>307.0</ele><time>2026-04-20T18:25:03.726Z</time></trkpt><trkpt lat="42.0939392" lon="12.1761508"><ele>304.66666666666663</ele><time>2026-04-20T18:25:04.725Z</time></trkpt><trkpt lat="42.0938284" lon="12.1763278"><ele>302.3333333333333</ele><time>2026-04-20T18:25:05.726Z</time></trkpt><trkpt lat="42.0937225" lon="12.1765014"><ele>300.0</ele><time>2026-04-20T18:25:06.725Z</time></trkpt><trkpt lat="42.0936117" lon="12.1766722"><ele>299.3333333333333</ele><time>2026-04-20T18:25:07.726Z</time></trkpt><trkpt lat="42.0935025" lon="12.1768467"><ele>298.66666666666663</ele><time>2026-04-20T18:25:08.725Z</time></trkpt><trkpt lat="42.0933967" lon="12.1770278"><ele>298.0</ele><time>2026-04-20T18:25:09.724Z</time></trkpt><trkpt lat="42.0932849" lon="12.1772108"><ele>293.66666666666663</ele><time>2026-04-20T18:25:10.724Z</time></trkpt><trkpt lat="42.0931786" lon="12.1773923"><ele>289.3333333333333</ele><time>2026-04-20T18:25:11.724Z</time></trkpt><trkpt lat="42.0930727" lon="12.1775731"><ele>285.0</ele><time>2026-04-20T18:25:12.727Z</time></trkpt><trkpt lat="42.0929633" lon="12.1777512"><ele>285.0</ele><time>2026-04-20T18:25:13.727Z</time></trkpt><trkpt lat="42.0928529" lon="12.1779326"><ele>285.0</ele><time>2026-04-20T18:25:14.724Z</time></trkpt><trkpt lat="42.0927399" lon="12.1781124"><ele>285.0</ele><time>2026-04-20T18:25:15.725Z</time></trkpt><trkpt lat="42.0926271" lon="12.1783014"><ele>284.3333333333333</ele><time>2026-04-20T18:25:16.725Z</time></trkpt><trkpt lat="42.0925111" lon="12.1784868"><ele>283.66666666666663</ele><time>2026-04-20T18:25:17.726Z</time></trkpt><trkpt lat="42.0924009" lon="12.1786716"><ele>283.0</ele><time>2026-04-20T18:25:18.725Z</time></trkpt><trkpt lat="42.0922923" lon="12.1788546"><ele>279.66666666666663</ele><time>2026-04-20T18:25:19.725Z</time></trkpt><trkpt lat="42.0921859" lon="12.1790324"><ele>276.3333333333333</ele><time>2026-04-20T18:25:20.725Z</time></trkpt><trkpt lat="42.0920808" lon="12.1792019"><ele>273.0</ele><time>2026-04-20T18:25:21.726Z</time></trkpt><trkpt lat="42.0919903" lon="12.1793698"><ele>273.0</ele><time>2026-04-20T18:25:22.725Z</time></trkpt><trkpt lat="42.0918914" lon="12.1795387"><ele>273.0</ele><time>2026-04-20T18:25:23.725Z</time></trkpt><trkpt lat="42.0917878" lon="12.1796977"><ele>273.0</ele><time>2026-04-20T18:25:24.725Z</time></trkpt><trkpt lat="42.0916892" lon="12.1798617"><ele>273.0</ele><time>2026-04-20T18:25:25.725Z</time></trkpt><trkpt lat="42.0915983" lon="12.1800151"><ele>273.0</ele><time>2026-04-20T18:25:26.725Z</time></trkpt><trkpt lat="42.0915007" lon="12.1801664"><ele>273.0</ele><time>2026-04-20T18:25:27.725Z</time></trkpt><trkpt lat="42.0913903" lon="12.1803053"><ele>273.0</ele><time>2026-04-20T18:25:28.725Z</time></trkpt><trkpt lat="42.0912647" lon="12.1804273"><ele>270.3333333333333</ele><time>2026-04-20T18:25:29.726Z</time></trkpt><trkpt lat="42.0911338" lon="12.1805326"><ele>267.66666666666663</ele><time>2026-04-20T18:25:30.725Z</time></trkpt><trkpt lat="42.0909924" lon="12.1806238"><ele>265.0</ele><time>2026-04-20T18:25:31.726Z</time></trkpt><trkpt lat="42.0908559" lon="12.1807019"><ele>263.25</ele><time>2026-04-20T18:25:32.725Z</time></trkpt><trkpt lat="42.0907329" lon="12.1807858"><ele>261.5</ele><time>2026-04-20T18:25:33.725Z</time></trkpt><trkpt lat="42.0906085" lon="12.1808659"><ele>259.75</ele><time>2026-04-20T18:25:34.725Z</time></trkpt><trkpt lat="42.090505" lon="12.1809776"><ele>258.0</ele><time>2026-04-20T18:25:35.725Z</time></trkpt><trkpt lat="42.0904163" lon="12.1811047"><ele>258.0</ele><time>2026-04-20T18:25:36.725Z</time></trkpt><trkpt lat="42.0903386" lon="12.1812387"><ele>258.0</ele><time>2026-04-20T18:25:37.726Z</time></trkpt><trkpt lat="42.0902681" lon="12.1813909"><ele>258.0</ele><time>2026-04-20T18:25:38.725Z</time></trkpt><trkpt lat="42.0902051" lon="12.1815458"><ele>258.0</ele><time>2026-04-20T18:25:39.726Z</time></trkpt><trkpt lat="42.0901439" lon="12.1817017"><ele>257.75</ele><time>2026-04-20T18:25:40.725Z</time></trkpt><trkpt lat="42.0900799" lon="12.1818612"><ele>257.5</ele><time>2026-04-20T18:25:41.726Z</time></trkpt><trkpt lat="42.0900197" lon="12.1820205"><ele>257.25</ele><time>2026-04-20T18:25:42.725Z</time></trkpt><trkpt lat="42.0899608" lon="12.1821744"><ele>257.0</ele><time>2026-04-20T18:25:43.725Z</time></trkpt><trkpt lat="42.0898911" lon="12.1823187"><ele>254.75</ele><time>2026-04-20T18:25:44.725Z</time></trkpt><trkpt lat="42.0898081" lon="12.1824496"><ele>252.5</ele><time>2026-04-20T18:25:45.725Z</time></trkpt><trkpt lat="42.0897152" lon="12.1825646"><ele>250.25</ele><time>2026-04-20T18:25:46.725Z</time></trkpt><trkpt lat="42.0896131" lon="12.1826655"><ele>248.0</ele><time>2026-04-20T18:25:47.725Z</time></trkpt><trkpt lat="42.0895056" lon="12.1827587"><ele>248.0</ele><time>2026-04-20T18:25:48.725Z</time></trkpt><trkpt lat="42.0893964" lon="12.1828499"><ele>248.0</ele><time>2026-04-20T18:25:49.726Z</time></trkpt><trkpt lat="42.0892845" lon="12.1829397"><ele>248.0</ele><time>2026-04-20T18:25:50.725Z</time></trkpt><trkpt lat="42.0891756" lon="12.1830254"><ele>248.0</ele><time>2026-04-20T18:25:51.726Z</time></trkpt><trkpt lat="42.0890698" lon="12.1831076"><ele>247.66666666666669</ele><time>2026-04-20T18:25:52.726Z</time></trkpt><trkpt lat="42.0889839" lon="12.1831734"><ele>247.33333333333334</ele><time>2026-04-20T18:25:53.726Z</time></trkpt><trkpt lat="42.0889107" lon="12.1832234"><ele>247.0</ele><time>2026-04-20T18:25:54.726Z</time></trkpt><trkpt lat="42.0888381" lon="12.1832713"><ele>246.66666666666669</ele><time>2026-04-20T18:25:55.725Z</time></trkpt><trkpt lat="42.0887653" lon="12.183318"><ele>246.33333333333334</ele><time>2026-04-20T18:25:56.725Z</time></trkpt><trkpt lat="42.088693" lon="12.1833696"><ele>246.0</ele><time>2026-04-20T18:25:57.726Z</time></trkpt><trkpt lat="42.0886169" lon="12.1834223"><ele>245.83333333333334</ele><time>2026-04-20T18:25:58.725Z</time></trkpt><trkpt lat="42.0885369" lon="12.1834828"><ele>245.66666666666669</ele><time>2026-04-20T18:25:59.724Z</time></trkpt><trkpt lat="42.0884696" lon="12.183532"><ele>245.5</ele><time>2026-04-20T18:26:00.724Z</time></trkpt><trkpt lat="42.0884106" lon="12.1835839"><ele>245.33333333333334</ele><time>2026-04-20T18:26:01.726Z</time></trkpt><trkpt lat="42.0883557" lon="12.1836257"><ele>245.16666666666669</ele><time>2026-04-20T18:26:02.724Z</time></trkpt><trkpt lat="42.0882596" lon="12.1837035"><ele>245.0</ele><time>2026-04-20T18:26:04.726Z</time></trkpt><trkpt lat="42.0881761" lon="12.1837799"><ele>244.83333333333334</ele><time>2026-04-20T18:26:06.725Z</time></trkpt><trkpt lat="42.0880848" lon="12.1838393"><ele>244.66666666666669</ele><time>2026-04-20T18:26:08.724Z</time></trkpt><trkpt lat="42.0880201" lon="12.1838926"><ele>244.5</ele><time>2026-04-20T18:26:09.725Z</time></trkpt><trkpt lat="42.0879578" lon="12.1839674"><ele>244.33333333333331</ele><time>2026-04-20T18:26:10.725Z</time></trkpt><trkpt lat="42.0878885" lon="12.1840505"><ele>244.16666666666666</ele><time>2026-04-20T18:26:11.726Z</time></trkpt><trkpt lat="42.0878181" lon="12.1841337"><ele>244.0</ele><time>2026-04-20T18:26:12.725Z</time></trkpt><trkpt lat="42.087754" lon="12.1842164"><ele>243.39999999999998</ele><time>2026-04-20T18:26:13.725Z</time></trkpt><trkpt lat="42.0877015" lon="12.1843138"><ele>242.79999999999998</ele><time>2026-04-20T18:26:14.726Z</time></trkpt><trkpt lat="42.0876491" lon="12.184413"><ele>242.20000000000002</ele><time>2026-04-20T18:26:15.725Z</time></trkpt><trkpt lat="42.0875812" lon="12.1845019"><ele>241.60000000000002</ele><time>2026-04-20T18:26:16.725Z</time></trkpt><trkpt lat="42.0875058" lon="12.1845863"><ele>241.0</ele><time>2026-04-20T18:26:17.725Z</time></trkpt><trkpt lat="42.0874314" lon="12.1846705"><ele>241.20000000000002</ele><time>2026-04-20T18:26:18.726Z</time></trkpt><trkpt lat="42.0873595" lon="12.1847524"><ele>241.40000000000003</ele><time>2026-04-20T18:26:19.726Z</time></trkpt><trkpt lat="42.0873022" lon="12.1848283"><ele>241.6</ele><time>2026-04-20T18:26:20.725Z</time></trkpt><trkpt lat="42.0872253" lon="12.1849253"><ele>241.8</ele><time>2026-04-20T18:26:21.724Z</time></trkpt><trkpt lat="42.0871353" lon="12.1850353"><ele>242.0</ele><time>2026-04-20T18:26:22.725Z</time></trkpt><trkpt lat="42.0870572" lon="12.1851324"><ele>242.0</ele><time>2026-04-20T18:26:23.725Z</time></trkpt><trkpt lat="42.0869831" lon="12.1852275"><ele>242.0</ele><time>2026-04-20T18:26:24.725Z</time></trkpt><trkpt lat="42.0869092" lon="12.1853372"><ele>242.0</ele><time>2026-04-20T18:26:25.725Z</time></trkpt><trkpt lat="42.0868383" lon="12.1854459"><ele>242.0</ele><time>2026-04-20T18:26:26.726Z</time></trkpt><trkpt lat="42.0867621" lon="12.1855585"><ele>242.0</ele><time>2026-04-20T18:26:27.726Z</time></trkpt><trkpt lat="42.0866892" lon="12.1856741"><ele>241.75</ele><time>2026-04-20T18:26:28.725Z</time></trkpt><trkpt lat="42.0866119" lon="12.1858004"><ele>241.5</ele><time>2026-04-20T18:26:29.725Z</time></trkpt><trkpt lat="42.0865362" lon="12.1859304"><ele>241.25</ele><time>2026-04-20T18:26:30.725Z</time></trkpt><trkpt lat="42.0864559" lon="12.1860655"><ele>241.0</ele><time>2026-04-20T18:26:31.726Z</time></trkpt><trkpt lat="42.0863739" lon="12.1862057"><ele>241.75</ele><time>2026-04-20T18:26:32.726Z</time></trkpt><trkpt lat="42.0862903" lon="12.1863637"><ele>242.5</ele><time>2026-04-20T18:26:33.726Z</time></trkpt><trkpt lat="42.0862082" lon="12.1865298"><ele>243.25</ele><time>2026-04-20T18:26:34.725Z</time></trkpt><trkpt lat="42.0861339" lon="12.1867067"><ele>244.0</ele><time>2026-04-20T18:26:35.725Z</time></trkpt><trkpt lat="42.0860695" lon="12.1868918"><ele>244.0</ele><time>2026-04-20T18:26:36.725Z</time></trkpt><trkpt lat="42.0860107" lon="12.1870839"><ele>244.0</ele><time>2026-04-20T18:26:37.725Z</time></trkpt><trkpt lat="42.0859496" lon="12.1872772"><ele>244.0</ele><time>2026-04-20T18:26:38.725Z</time></trkpt><trkpt lat="42.0858996" lon="12.1874759"><ele>244.0</ele><time>2026-04-20T18:26:39.725Z</time></trkpt><trkpt lat="42.0858541" lon="12.1876651"><ele>244.0</ele><time>2026-04-20T18:26:40.725Z</time></trkpt><trkpt lat="42.0858017" lon="12.1878647"><ele>244.0</ele><time>2026-04-20T18:26:41.724Z</time></trkpt><trkpt lat="42.0857566" lon="12.188065"><ele>245.0</ele><time>2026-04-20T18:26:42.725Z</time></trkpt><trkpt lat="42.085711" lon="12.1882571"><ele>246.0</ele><time>2026-04-20T18:26:43.726Z</time></trkpt><trkpt lat="42.085661" lon="12.1884558"><ele>247.0</ele><time>2026-04-20T18:26:44.725Z</time></trkpt><trkpt lat="42.0856055" lon="12.1886577"><ele>247.0</ele><time>2026-04-20T18:26:45.725Z</time></trkpt><trkpt lat="42.085545" lon="12.1888583"><ele>247.0</ele><time>2026-04-20T18:26:46.727Z</time></trkpt><trkpt lat="42.0854812" lon="12.1890628"><ele>247.0</ele><time>2026-04-20T18:26:47.725Z</time></trkpt><trkpt lat="42.0854192" lon="12.1892685"><ele>245.66666666666666</ele><time>2026-04-20T18:26:48.725Z</time></trkpt><trkpt lat="42.0853595" lon="12.1894665"><ele>244.33333333333331</ele><time>2026-04-20T18:26:49.726Z</time></trkpt><trkpt lat="42.0852964" lon="12.1896681"><ele>243.0</ele><time>2026-04-20T18:26:50.725Z</time></trkpt><trkpt lat="42.0852352" lon="12.1898567"><ele>242.0</ele><time>2026-04-20T18:26:51.726Z</time></trkpt><trkpt lat="42.0851761" lon="12.190052"><ele>241.0</ele><time>2026-04-20T18:26:52.725Z</time></trkpt><trkpt lat="42.085115" lon="12.1902403"><ele>240.0</ele><time>2026-04-20T18:26:53.726Z</time></trkpt><trkpt lat="42.0850534" lon="12.190421"><ele>240.0</ele><time>2026-04-20T18:26:54.725Z</time></trkpt><trkpt lat="42.0849924" lon="12.1905936"><ele>240.0</ele><time>2026-04-20T18:26:55.726Z</time></trkpt><trkpt lat="42.0849252" lon="12.1907646"><ele>240.0</ele><time>2026-04-20T18:26:56.725Z</time></trkpt><trkpt lat="42.0848727" lon="12.1909227"><ele>240.0</ele><time>2026-04-20T18:26:57.725Z</time></trkpt><trkpt lat="42.0848119" lon="12.1910879"><ele>239.5</ele><time>2026-04-20T18:26:58.726Z</time></trkpt><trkpt lat="42.0847608" lon="12.1912449"><ele>239.0</ele><time>2026-04-20T18:26:59.726Z</time></trkpt><trkpt lat="42.0847102" lon="12.1913933"><ele>238.5</ele><time>2026-04-20T18:27:00.724Z</time></trkpt><trkpt lat="42.0846683" lon="12.1915325"><ele>238.0</ele><time>2026-04-20T18:27:01.724Z</time></trkpt><trkpt lat="42.0846325" lon="12.1916695"><ele>238.0</ele><time>2026-04-20T18:27:02.725Z</time></trkpt><trkpt lat="42.0846067" lon="12.1918048"><ele>238.0</ele><time>2026-04-20T18:27:03.725Z</time></trkpt><trkpt lat="42.0845798" lon="12.1919289"><ele>238.0</ele><time>2026-04-20T18:27:04.726Z</time></trkpt><trkpt lat="42.0845641" lon="12.1920555"><ele>238.0</ele><time>2026-04-20T18:27:05.726Z</time></trkpt><trkpt lat="42.0845468" lon="12.192186"><ele>238.0</ele><time>2026-04-20T18:27:06.725Z</time></trkpt><trkpt lat="42.0845321" lon="12.192336"><ele>237.66666666666666</ele><time>2026-04-20T18:27:07.725Z</time></trkpt><trkpt lat="42.0845155" lon="12.1925182"><ele>237.33333333333331</ele><time>2026-04-20T18:27:08.725Z</time></trkpt><trkpt lat="42.0844853" lon="12.1927231"><ele>237.0</ele><time>2026-04-20T18:27:09.724Z</time></trkpt><trkpt lat="42.0844515" lon="12.1929358"><ele>237.0</ele><time>2026-04-20T18:27:10.726Z</time></trkpt><trkpt lat="42.0844028" lon="12.1931543"><ele>237.0</ele><time>2026-04-20T18:27:11.726Z</time></trkpt><trkpt lat="42.0843609" lon="12.1933587"><ele>237.0</ele><time>2026-04-20T18:27:12.726Z</time></trkpt><trkpt lat="42.084317" lon="12.1935494"><ele>237.25</ele><time>2026-04-20T18:27:13.727Z</time></trkpt><trkpt lat="42.0842743" lon="12.1937225"><ele>237.5</ele><time>2026-04-20T18:27:14.725Z</time></trkpt><trkpt lat="42.0842351" lon="12.1938786"><ele>237.75</ele><time>2026-04-20T18:27:15.725Z</time></trkpt><trkpt lat="42.0842027" lon="12.1940222"><ele>238.0</ele><time>2026-04-20T18:27:16.725Z</time></trkpt><trkpt lat="42.0841675" lon="12.1941559"><ele>238.25</ele><time>2026-04-20T18:27:17.726Z</time></trkpt><trkpt lat="42.0841313" lon="12.1942909"><ele>238.5</ele><time>2026-04-20T18:27:18.724Z</time></trkpt><trkpt lat="42.0840982" lon="12.1944365"><ele>238.75</ele><time>2026-04-20T18:27:19.725Z</time></trkpt><trkpt lat="42.0840583" lon="12.1945861"><ele>239.0</ele><time>2026-04-20T18:27:20.725Z</time></trkpt><trkpt lat="42.08402" lon="12.1947375"><ele>239.0</ele><time>2026-04-20T18:27:21.726Z</time></trkpt><trkpt lat="42.0839838" lon="12.1948998"><ele>239.0</ele><time>2026-04-20T18:27:22.724Z</time></trkpt><trkpt lat="42.0839458" lon="12.1950635"><ele>239.0</ele><time>2026-04-20T18:27:23.725Z</time></trkpt><trkpt lat="42.0839024" lon="12.1952285"><ele>239.0</ele><time>2026-04-20T18:27:24.727Z</time></trkpt><trkpt lat="42.0838611" lon="12.1954029"><ele>239.0</ele><time>2026-04-20T18:27:25.725Z</time></trkpt><trkpt lat="42.083823" lon="12.1955821"><ele>239.0</ele><time>2026-04-20T18:27:26.727Z</time></trkpt><trkpt lat="42.0837798" lon="12.1957653"><ele>239.0</ele><time>2026-04-20T18:27:27.724Z</time></trkpt><trkpt lat="42.0837376" lon="12.1959473"><ele>239.0</ele><time>2026-04-20T18:27:28.726Z</time></trkpt><trkpt lat="42.083693" lon="12.1961354"><ele>239.5</ele><time>2026-04-20T18:27:29.724Z</time></trkpt><trkpt lat="42.08365" lon="12.1963156"><ele>240.0</ele><time>2026-04-20T18:27:30.725Z</time></trkpt><trkpt lat="42.0836061" lon="12.1964933"><ele>240.5</ele><time>2026-04-20T18:27:31.726Z</time></trkpt><trkpt lat="42.0835601" lon="12.1966706"><ele>241.0</ele><time>2026-04-20T18:27:32.726Z</time></trkpt><trkpt lat="42.0835056" lon="12.1968434"><ele>242.0</ele><time>2026-04-20T18:27:33.726Z</time></trkpt><trkpt lat="42.0834496" lon="12.1970199"><ele>243.0</ele><time>2026-04-20T18:27:34.726Z</time></trkpt><trkpt lat="42.0833905" lon="12.1971868"><ele>244.0</ele><time>2026-04-20T18:27:35.725Z</time></trkpt><trkpt lat="42.083314" lon="12.1973564"><ele>245.0</ele><time>2026-04-20T18:27:36.725Z</time></trkpt><trkpt lat="42.0832297" lon="12.1975242"><ele>245.0</ele><time>2026-04-20T18:27:37.725Z</time></trkpt><trkpt lat="42.0831382" lon="12.197686"><ele>245.0</ele><time>2026-04-20T18:27:38.726Z</time></trkpt><trkpt lat="42.0830422" lon="12.1978377"><ele>245.0</ele><time>2026-04-20T18:27:39.724Z</time></trkpt><trkpt lat="42.082942" lon="12.1979906"><ele>245.0</ele><time>2026-04-20T18:27:40.724Z</time></trkpt><trkpt lat="42.0828434" lon="12.1981365"><ele>245.0</ele><time>2026-04-20T18:27:41.726Z</time></trkpt><trkpt lat="42.082733" lon="12.198285"><ele>245.0</ele><time>2026-04-20T18:27:42.725Z</time></trkpt><trkpt lat="42.0826231" lon="12.1984303"><ele>245.33333333333334</ele><time>2026-04-20T18:27:43.724Z</time></trkpt><trkpt lat="42.0825126" lon="12.198579"><ele>245.66666666666669</ele><time>2026-04-20T18:27:44.725Z</time></trkpt><trkpt lat="42.082394" lon="12.1987221"><ele>246.0</ele><time>2026-04-20T18:27:45.725Z</time></trkpt><trkpt lat="42.082273" lon="12.1988544"><ele>246.66666666666669</ele><time>2026-04-20T18:27:46.726Z</time></trkpt><trkpt lat="42.0821497" lon="12.1989856"><ele>247.33333333333334</ele><time>2026-04-20T18:27:47.725Z</time></trkpt><trkpt lat="42.082032" lon="12.1991151"><ele>248.0</ele><time>2026-04-20T18:27:48.726Z</time></trkpt><trkpt lat="42.0819155" lon="12.1992451"><ele>248.33333333333334</ele><time>2026-04-20T18:27:49.726Z</time></trkpt><trkpt lat="42.0818034" lon="12.1993878"><ele>248.66666666666669</ele><time>2026-04-20T18:27:50.726Z</time></trkpt><trkpt lat="42.0817019" lon="12.1995385"><ele>249.0</ele><time>2026-04-20T18:27:51.726Z</time></trkpt><trkpt lat="42.0816047" lon="12.1996913"><ele>248.66666666666669</ele><time>2026-04-20T18:27:52.726Z</time></trkpt><trkpt lat="42.0815111" lon="12.1998585"><ele>248.33333333333334</ele><time>2026-04-20T18:27:53.726Z</time></trkpt><trkpt lat="42.0814265" lon="12.2000224"><ele>248.0</ele><time>2026-04-20T18:27:54.725Z</time></trkpt><trkpt lat="42.0813307" lon="12.2002"><ele>248.0</ele><time>2026-04-20T18:27:55.725Z</time></trkpt><trkpt lat="42.0812268" lon="12.2003838"><ele>248.0</ele><time>2026-04-20T18:27:56.727Z</time></trkpt><trkpt lat="42.0811274" lon="12.2005644"><ele>248.0</ele><time>2026-04-20T18:27:57.726Z</time></trkpt><trkpt lat="42.0810281" lon="12.2007474"><ele>247.0</ele><time>2026-04-20T18:27:58.726Z</time></trkpt><trkpt lat="42.0809296" lon="12.2009254"><ele>246.0</ele><time>2026-04-20T18:27:59.726Z</time></trkpt><trkpt lat="42.0808306" lon="12.2011067"><ele>245.0</ele><time>2026-04-20T18:28:00.726Z</time></trkpt><trkpt lat="42.0807342" lon="12.2012826"><ele>245.0</ele><time>2026-04-20T18:28:01.725Z</time></trkpt><trkpt lat="42.0806405" lon="12.2014535"><ele>245.0</ele><time>2026-04-20T18:28:02.725Z</time></trkpt><trkpt lat="42.0805404" lon="12.2016255"><ele>245.0</ele><time>2026-04-20T18:28:03.725Z</time></trkpt><trkpt lat="42.0804468" lon="12.2017913"><ele>245.75</ele><time>2026-04-20T18:28:04.725Z</time></trkpt><trkpt lat="42.0803555" lon="12.2019576"><ele>246.5</ele><time>2026-04-20T18:28:05.725Z</time></trkpt><trkpt lat="42.0802697" lon="12.202123"><ele>247.25</ele><time>2026-04-20T18:28:06.725Z</time></trkpt><trkpt lat="42.0801907" lon="12.2022817"><ele>248.0</ele><time>2026-04-20T18:28:07.725Z</time></trkpt><trkpt lat="42.0801266" lon="12.2024433"><ele>248.0</ele><time>2026-04-20T18:28:08.725Z</time></trkpt><trkpt lat="42.0800597" lon="12.2026003"><ele>248.0</ele><time>2026-04-20T18:28:09.725Z</time></trkpt><trkpt lat="42.079996" lon="12.2027538"><ele>248.0</ele><time>2026-04-20T18:28:10.725Z</time></trkpt><trkpt lat="42.0799398" lon="12.202896"><ele>248.0</ele><time>2026-04-20T18:28:11.726Z</time></trkpt><trkpt lat="42.0798929" lon="12.2030402"><ele>247.75</ele><time>2026-04-20T18:28:12.726Z</time></trkpt><trkpt lat="42.0798433" lon="12.2031824"><ele>247.5</ele><time>2026-04-20T18:28:13.726Z</time></trkpt><trkpt lat="42.0797953" lon="12.203325"><ele>247.25</ele><time>2026-04-20T18:28:14.725Z</time></trkpt><trkpt lat="42.0797454" lon="12.203469"><ele>247.0</ele><time>2026-04-20T18:28:15.726Z</time></trkpt><trkpt lat="42.0796949" lon="12.2036016"><ele>247.0</ele><time>2026-04-20T18:28:16.726Z</time></trkpt><trkpt lat="42.0796499" lon="12.2037242"><ele>247.0</ele><time>2026-04-20T18:28:17.725Z</time></trkpt><trkpt lat="42.0796046" lon="12.2038341"><ele>247.0</ele><time>2026-04-20T18:28:18.725Z</time></trkpt><trkpt lat="42.0795683" lon="12.2039383"><ele>247.0</ele><time>2026-04-20T18:28:19.725Z</time></trkpt><trkpt lat="42.0795338" lon="12.2040403"><ele>247.0</ele><time>2026-04-20T18:28:20.724Z</time></trkpt><trkpt lat="42.0794963" lon="12.2041518"><ele>247.0</ele><time>2026-04-20T18:28:21.724Z</time></trkpt><trkpt lat="42.0794533" lon="12.2042663"><ele>247.0</ele><time>2026-04-20T18:28:22.726Z</time></trkpt><trkpt lat="42.0794113" lon="12.2043812"><ele>247.0</ele><time>2026-04-20T18:28:23.725Z</time></trkpt><trkpt lat="42.0793631" lon="12.2045017"><ele>247.0</ele><time>2026-04-20T18:28:24.725Z</time></trkpt><trkpt lat="42.0793126" lon="12.2046289"><ele>247.0</ele><time>2026-04-20T18:28:25.725Z</time></trkpt><trkpt lat="42.0792551" lon="12.2047605"><ele>247.0</ele><time>2026-04-20T18:28:26.725Z</time></trkpt><trkpt lat="42.079195" lon="12.2048959"><ele>247.0</ele><time>2026-04-20T18:28:27.726Z</time></trkpt><trkpt lat="42.0791365" lon="12.2050296"><ele>247.0</ele><time>2026-04-20T18:28:28.724Z</time></trkpt><trkpt lat="42.0790757" lon="12.2051674"><ele>247.0</ele><time>2026-04-20T18:28:29.725Z</time></trkpt><trkpt lat="42.0790072" lon="12.2052977"><ele>247.0</ele><time>2026-04-20T18:28:30.725Z</time></trkpt><trkpt lat="42.0789396" lon="12.2054358"><ele>247.0</ele><time>2026-04-20T18:28:31.726Z</time></trkpt><trkpt lat="42.0788708" lon="12.2055757"><ele>247.0</ele><time>2026-04-20T18:28:32.726Z</time></trkpt><trkpt lat="42.0788007" lon="12.2057156"><ele>247.0</ele><time>2026-04-20T18:28:33.725Z</time></trkpt><trkpt lat="42.0787183" lon="12.2058529"><ele>247.0</ele><time>2026-04-20T18:28:34.724Z</time></trkpt><trkpt lat="42.0786324" lon="12.2059884"><ele>247.0</ele><time>2026-04-20T18:28:35.726Z</time></trkpt><trkpt lat="42.0785382" lon="12.2061257"><ele>247.0</ele><time>2026-04-20T18:28:36.724Z</time></trkpt><trkpt lat="42.0784425" lon="12.2062575"><ele>247.0</ele><time>2026-04-20T18:28:37.725Z</time></trkpt><trkpt lat="42.0783555" lon="12.2063875"><ele>247.25</ele><time>2026-04-20T18:28:38.725Z</time></trkpt><trkpt lat="42.0782709" lon="12.2065158"><ele>247.5</ele><time>2026-04-20T18:28:39.726Z</time></trkpt><trkpt lat="42.0781912" lon="12.206645"><ele>247.75</ele><time>2026-04-20T18:28:40.725Z</time></trkpt><trkpt lat="42.0781082" lon="12.2067754"><ele>248.0</ele><time>2026-04-20T18:28:41.726Z</time></trkpt><trkpt lat="42.0780387" lon="12.2069156"><ele>248.0</ele><time>2026-04-20T18:28:42.725Z</time></trkpt><trkpt lat="42.0779629" lon="12.2070573"><ele>248.0</ele><time>2026-04-20T18:28:43.726Z</time></trkpt><trkpt lat="42.0778982" lon="12.2072093"><ele>248.0</ele><time>2026-04-20T18:28:44.725Z</time></trkpt><trkpt lat="42.0778375" lon="12.2073645"><ele>248.0</ele><time>2026-04-20T18:28:45.724Z</time></trkpt><trkpt lat="42.0777792" lon="12.2075198"><ele>248.25</ele><time>2026-04-20T18:28:46.726Z</time></trkpt><trkpt lat="42.0777189" lon="12.2076767"><ele>248.5</ele><time>2026-04-20T18:28:47.725Z</time></trkpt><trkpt lat="42.0776615" lon="12.207837"><ele>248.75</ele><time>2026-04-20T18:28:48.725Z</time></trkpt><trkpt lat="42.0776069" lon="12.2079954"><ele>249.0</ele><time>2026-04-20T18:28:49.726Z</time></trkpt><trkpt lat="42.0775527" lon="12.2081565"><ele>249.0</ele><time>2026-04-20T18:28:50.726Z</time></trkpt><trkpt lat="42.0774973" lon="12.208325"><ele>249.0</ele><time>2026-04-20T18:28:51.724Z</time></trkpt><trkpt lat="42.0774417" lon="12.2084916"><ele>249.0</ele><time>2026-04-20T18:28:52.726Z</time></trkpt><trkpt lat="42.0773873" lon="12.2086507"><ele>249.0</ele><time>2026-04-20T18:28:53.726Z</time></trkpt><trkpt lat="42.0773397" lon="12.2088017"><ele>249.0</ele><time>2026-04-20T18:28:54.725Z</time></trkpt><trkpt lat="42.0772918" lon="12.2089503"><ele>249.0</ele><time>2026-04-20T18:28:55.725Z</time></trkpt><trkpt lat="42.0772392" lon="12.2090969"><ele>249.0</ele><time>2026-04-20T18:28:56.725Z</time></trkpt><trkpt lat="42.0771868" lon="12.2092498"><ele>249.0</ele><time>2026-04-20T18:28:57.725Z</time></trkpt><trkpt lat="42.0771354" lon="12.2094024"><ele>249.0</ele><time>2026-04-20T18:28:58.725Z</time></trkpt><trkpt lat="42.0770821" lon="12.2095576"><ele>249.0</ele><time>2026-04-20T18:28:59.726Z</time></trkpt><trkpt lat="42.0770301" lon="12.2097174"><ele>249.0</ele><time>2026-04-20T18:29:00.725Z</time></trkpt><trkpt lat="42.0769748" lon="12.2098842"><ele>249.0</ele><time>2026-04-20T18:29:01.725Z</time></trkpt><trkpt lat="42.0769201" lon="12.2100505"><ele>249.25</ele><time>2026-04-20T18:29:02.726Z</time></trkpt><trkpt lat="42.0768592" lon="12.2102186"><ele>249.5</ele><time>2026-04-20T18:29:03.724Z</time></trkpt><trkpt lat="42.0767975" lon="12.2103957"><ele>249.75</ele><time>2026-04-20T18:29:04.725Z</time></trkpt><trkpt lat="42.0767441" lon="12.2105678"><ele>250.0</ele><time>2026-04-20T18:29:05.725Z</time></trkpt><trkpt lat="42.0766797" lon="12.2107404"><ele>250.0</ele><time>2026-04-20T18:29:06.726Z</time></trkpt><trkpt lat="42.0766153" lon="12.2109241"><ele>250.0</ele><time>2026-04-20T18:29:07.724Z</time></trkpt><trkpt lat="42.0765457" lon="12.2110975"><ele>250.0</ele><time>2026-04-20T18:29:08.725Z</time></trkpt><trkpt lat="42.0764739" lon="12.2112672"><ele>250.0</ele><time>2026-04-20T18:29:09.725Z</time></trkpt><trkpt lat="42.0763876" lon="12.2114355"><ele>249.0</ele><time>2026-04-20T18:29:10.726Z</time></trkpt><trkpt lat="42.0762951" lon="12.2116084"><ele>248.0</ele><time>2026-04-20T18:29:11.726Z</time></trkpt><trkpt lat="42.0762045" lon="12.2117683"><ele>247.0</ele><time>2026-04-20T18:29:12.726Z</time></trkpt><trkpt lat="42.0761127" lon="12.2119231"><ele>247.0</ele><time>2026-04-20T18:29:13.724Z</time></trkpt><trkpt lat="42.076023" lon="12.2120733"><ele>247.0</ele><time>2026-04-20T18:29:14.725Z</time></trkpt><trkpt lat="42.0759246" lon="12.2122293"><ele>247.0</ele><time>2026-04-20T18:29:15.725Z</time></trkpt><trkpt lat="42.0758115" lon="12.2123943"><ele>247.0</ele><time>2026-04-20T18:29:16.725Z</time></trkpt><trkpt lat="42.0757111" lon="12.2125607"><ele>247.0</ele><time>2026-04-20T18:29:17.726Z</time></trkpt><trkpt lat="42.0756081" lon="12.2127326"><ele>247.0</ele><time>2026-04-20T18:29:18.724Z</time></trkpt><trkpt lat="42.0754951" lon="12.2129114"><ele>247.0</ele><time>2026-04-20T18:29:19.726Z</time></trkpt><trkpt lat="42.0753869" lon="12.2130916"><ele>247.0</ele><time>2026-04-20T18:29:20.725Z</time></trkpt><trkpt lat="42.0752786" lon="12.2132648"><ele>247.0</ele><time>2026-04-20T18:29:21.726Z</time></trkpt><trkpt lat="42.0751615" lon="12.2134467"><ele>246.66666666666666</ele><time>2026-04-20T18:29:22.724Z</time></trkpt><trkpt lat="42.0750422" lon="12.2136256"><ele>246.33333333333331</ele><time>2026-04-20T18:29:23.725Z</time></trkpt><trkpt lat="42.0749212" lon="12.2137943"><ele>246.0</ele><time>2026-04-20T18:29:24.726Z</time></trkpt><trkpt lat="42.074795" lon="12.2139576"><ele>245.66666666666669</ele><time>2026-04-20T18:29:25.725Z</time></trkpt><trkpt lat="42.0746598" lon="12.2141101"><ele>245.33333333333334</ele><time>2026-04-20T18:29:26.726Z</time></trkpt><trkpt lat="42.0745222" lon="12.2142584"><ele>245.0</ele><time>2026-04-20T18:29:27.724Z</time></trkpt><trkpt lat="42.0743946" lon="12.2144011"><ele>245.0</ele><time>2026-04-20T18:29:28.725Z</time></trkpt><trkpt lat="42.0742745" lon="12.2145332"><ele>245.0</ele><time>2026-04-20T18:29:29.725Z</time></trkpt><trkpt lat="42.0741522" lon="12.2146684"><ele>245.0</ele><time>2026-04-20T18:29:30.724Z</time></trkpt><trkpt lat="42.0740344" lon="12.2147913"><ele>245.0</ele><time>2026-04-20T18:29:31.726Z</time></trkpt><trkpt lat="42.0739216" lon="12.2149138"><ele>245.0</ele><time>2026-04-20T18:29:32.725Z</time></trkpt><trkpt lat="42.0738098" lon="12.2150332"><ele>245.0</ele><time>2026-04-20T18:29:33.725Z</time></trkpt><trkpt lat="42.0736899" lon="12.2151594"><ele>245.0</ele><time>2026-04-20T18:29:34.725Z</time></trkpt><trkpt lat="42.0735644" lon="12.2152898"><ele>245.0</ele><time>2026-04-20T18:29:35.725Z</time></trkpt><trkpt lat="42.0734384" lon="12.2154229"><ele>245.0</ele><time>2026-04-20T18:29:36.726Z</time></trkpt><trkpt lat="42.0733025" lon="12.2155715"><ele>245.0</ele><time>2026-04-20T18:29:37.725Z</time></trkpt><trkpt lat="42.0731628" lon="12.2157264"><ele>245.0</ele><time>2026-04-20T18:29:38.725Z</time></trkpt><trkpt lat="42.0730116" lon="12.2158872"><ele>245.0</ele><time>2026-04-20T18:29:39.726Z</time></trkpt><trkpt lat="42.0728567" lon="12.2160438"><ele>245.0</ele><time>2026-04-20T18:29:40.726Z</time></trkpt><trkpt lat="42.0726908" lon="12.2162147"><ele>245.0</ele><time>2026-04-20T18:29:41.725Z</time></trkpt><trkpt lat="42.0725442" lon="12.2163761"><ele>245.0</ele><time>2026-04-20T18:29:42.726Z</time></trkpt><trkpt lat="42.0723917" lon="12.2165349"><ele>245.0</ele><time>2026-04-20T18:29:43.725Z</time></trkpt><trkpt lat="42.0722525" lon="12.2166795"><ele>244.66666666666669</ele><time>2026-04-20T18:29:44.725Z</time></trkpt><trkpt lat="42.0721092" lon="12.2168378"><ele>244.33333333333331</ele><time>2026-04-20T18:29:45.724Z</time></trkpt><trkpt lat="42.0719671" lon="12.2169966"><ele>244.0</ele><time>2026-04-20T18:29:46.727Z</time></trkpt><trkpt lat="42.0718336" lon="12.2171548"><ele>244.33333333333331</ele><time>2026-04-20T18:29:47.726Z</time></trkpt><trkpt lat="42.0717015" lon="12.2173195"><ele>244.66666666666669</ele><time>2026-04-20T18:29:48.725Z</time></trkpt><trkpt lat="42.0715693" lon="12.2174937"><ele>245.0</ele><time>2026-04-20T18:29:49.727Z</time></trkpt><trkpt lat="42.0714439" lon="12.21767"><ele>245.0</ele><time>2026-04-20T18:29:50.727Z</time></trkpt><trkpt lat="42.0713238" lon="12.2178541"><ele>245.0</ele><time>2026-04-20T18:29:51.726Z</time></trkpt><trkpt lat="42.0712061" lon="12.2180546"><ele>245.0</ele><time>2026-04-20T18:29:52.727Z</time></trkpt><trkpt lat="42.0710991" lon="12.2182567"><ele>245.33333333333334</ele><time>2026-04-20T18:29:53.727Z</time></trkpt><trkpt lat="42.0709904" lon="12.2184736"><ele>245.66666666666669</ele><time>2026-04-20T18:29:54.724Z</time></trkpt><trkpt lat="42.070878" lon="12.2186961"><ele>246.0</ele><time>2026-04-20T18:29:55.725Z</time></trkpt><trkpt lat="42.0707693" lon="12.2189201"><ele>247.66666666666669</ele><time>2026-04-20T18:29:56.726Z</time></trkpt><trkpt lat="42.0706559" lon="12.2191459"><ele>249.33333333333334</ele><time>2026-04-20T18:29:57.724Z</time></trkpt><trkpt lat="42.0705464" lon="12.2193711"><ele>251.0</ele><time>2026-04-20T18:29:58.725Z</time></trkpt><trkpt lat="42.0704342" lon="12.219591"><ele>251.0</ele><time>2026-04-20T18:29:59.725Z</time></trkpt><trkpt lat="42.0703241" lon="12.2198117"><ele>251.0</ele><time>2026-04-20T18:30:00.725Z</time></trkpt><trkpt lat="42.0702108" lon="12.2200243"><ele>251.0</ele><time>2026-04-20T18:30:01.727Z</time></trkpt><trkpt lat="42.070096" lon="12.2202339"><ele>251.33333333333334</ele><time>2026-04-20T18:30:02.726Z</time></trkpt><trkpt lat="42.0699774" lon="12.2204284"><ele>251.66666666666669</ele><time>2026-04-20T18:30:03.726Z</time></trkpt><trkpt lat="42.0698531" lon="12.2206166"><ele>252.0</ele><time>2026-04-20T18:30:04.725Z</time></trkpt><trkpt lat="42.0697239" lon="12.2207976"><ele>253.66666666666669</ele><time>2026-04-20T18:30:05.726Z</time></trkpt><trkpt lat="42.0695929" lon="12.2209624"><ele>255.33333333333334</ele><time>2026-04-20T18:30:06.727Z</time></trkpt><trkpt lat="42.0694601" lon="12.2211024"><ele>257.0</ele><time>2026-04-20T18:30:07.726Z</time></trkpt><trkpt lat="42.0693308" lon="12.2212243"><ele>257.0</ele><time>2026-04-20T18:30:08.725Z</time></trkpt><trkpt lat="42.0691863" lon="12.2213164"><ele>257.0</ele><time>2026-04-20T18:30:09.726Z</time></trkpt><trkpt lat="42.0690398" lon="12.2214107"><ele>257.0</ele><time>2026-04-20T18:30:10.726Z</time></trkpt><trkpt lat="42.0688836" lon="12.2214971"><ele>254.33333333333334</ele><time>2026-04-20T18:30:11.726Z</time></trkpt><trkpt lat="42.068723" lon="12.2215862"><ele>251.66666666666669</ele><time>2026-04-20T18:30:12.726Z</time></trkpt><trkpt lat="42.0685611" lon="12.2216788"><ele>249.0</ele><time>2026-04-20T18:30:13.725Z</time></trkpt><trkpt lat="42.0683941" lon="12.221758"><ele>248.0</ele><time>2026-04-20T18:30:14.727Z</time></trkpt><trkpt lat="42.0682272" lon="12.2218444"><ele>247.0</ele><time>2026-04-20T18:30:15.725Z</time></trkpt><trkpt lat="42.068062" lon="12.2219176"><ele>246.0</ele><time>2026-04-20T18:30:16.726Z</time></trkpt><trkpt lat="42.0678853" lon="12.2219894"><ele>246.0</ele><time>2026-04-20T18:30:17.726Z</time></trkpt><trkpt lat="42.0677142" lon="12.2220521"><ele>246.0</ele><time>2026-04-20T18:30:18.726Z</time></trkpt><trkpt lat="42.0675428" lon="12.2221168"><ele>246.0</ele><time>2026-04-20T18:30:19.724Z</time></trkpt><trkpt lat="42.0673658" lon="12.2221782"><ele>246.0</ele><time>2026-04-20T18:30:20.727Z</time></trkpt><trkpt lat="42.0671932" lon="12.222244"><ele>246.0</ele><time>2026-04-20T18:30:21.726Z</time></trkpt><trkpt lat="42.0670237" lon="12.2222984"><ele>246.0</ele><time>2026-04-20T18:30:22.725Z</time></trkpt><trkpt lat="42.0668545" lon="12.2223613"><ele>245.66666666666669</ele><time>2026-04-20T18:30:23.726Z</time></trkpt><trkpt lat="42.0666816" lon="12.2224297"><ele>245.33333333333334</ele><time>2026-04-20T18:30:24.724Z</time></trkpt><trkpt lat="42.0665258" lon="12.222523"><ele>245.0</ele><time>2026-04-20T18:30:25.726Z</time></trkpt><trkpt lat="42.0663647" lon="12.2226282"><ele>244.0</ele><time>2026-04-20T18:30:26.726Z</time></trkpt><trkpt lat="42.0662021" lon="12.2227521"><ele>243.0</ele><time>2026-04-20T18:30:27.724Z</time></trkpt><trkpt lat="42.0660377" lon="12.2228795"><ele>242.0</ele><time>2026-04-20T18:30:28.727Z</time></trkpt><trkpt lat="42.0658737" lon="12.2230143"><ele>242.66666666666669</ele><time>2026-04-20T18:30:29.726Z</time></trkpt><trkpt lat="42.0657116" lon="12.2231511"><ele>243.33333333333331</ele><time>2026-04-20T18:30:30.726Z</time></trkpt><trkpt lat="42.0655567" lon="12.223284"><ele>244.0</ele><time>2026-04-20T18:30:31.725Z</time></trkpt><trkpt lat="42.0654145" lon="12.2234064"><ele>244.0</ele><time>2026-04-20T18:30:32.726Z</time></trkpt><trkpt lat="42.0652772" lon="12.2235269"><ele>244.0</ele><time>2026-04-20T18:30:33.726Z</time></trkpt><trkpt lat="42.0651475" lon="12.2236444"><ele>244.0</ele><time>2026-04-20T18:30:34.726Z</time></trkpt><trkpt lat="42.0650173" lon="12.2237674"><ele>245.66666666666666</ele><time>2026-04-20T18:30:35.726Z</time></trkpt><trkpt lat="42.0648953" lon="12.2239087"><ele>247.33333333333331</ele><time>2026-04-20T18:30:36.725Z</time></trkpt><trkpt lat="42.0647729" lon="12.2240505"><ele>249.0</ele><time>2026-04-20T18:30:37.727Z</time></trkpt><trkpt lat="42.0646586" lon="12.2242037"><ele>251.0</ele><time>2026-04-20T18:30:38.725Z</time></trkpt><trkpt lat="42.0645635" lon="12.2243616"><ele>253.0</ele><time>2026-04-20T18:30:39.725Z</time></trkpt><trkpt lat="42.0644806" lon="12.2245321"><ele>255.0</ele><time>2026-04-20T18:30:40.726Z</time></trkpt><trkpt lat="42.0644046" lon="12.2247182"><ele>254.33333333333331</ele><time>2026-04-20T18:30:41.726Z</time></trkpt><trkpt lat="42.0643406" lon="12.2249163"><ele>253.66666666666666</ele><time>2026-04-20T18:30:42.726Z</time></trkpt><trkpt lat="42.0642867" lon="12.22512"><ele>253.0</ele><time>2026-04-20T18:30:43.726Z</time></trkpt><trkpt lat="42.0642349" lon="12.2253401"><ele>253.0</ele><time>2026-04-20T18:30:44.725Z</time></trkpt><trkpt lat="42.0641869" lon="12.2255778"><ele>253.0</ele><time>2026-04-20T18:30:45.727Z</time></trkpt><trkpt lat="42.0641432" lon="12.2258078"><ele>253.0</ele><time>2026-04-20T18:30:46.725Z</time></trkpt><trkpt lat="42.0640977" lon="12.2260401"><ele>252.0</ele><time>2026-04-20T18:30:47.725Z</time></trkpt><trkpt lat="42.0640495" lon="12.22626"><ele>251.0</ele><time>2026-04-20T18:30:48.726Z</time></trkpt><trkpt lat="42.0639941" lon="12.2264698"><ele>250.0</ele><time>2026-04-20T18:30:49.724Z</time></trkpt><trkpt lat="42.0639295" lon="12.2266846"><ele>248.66666666666666</ele><time>2026-04-20T18:30:50.725Z</time></trkpt><trkpt lat="42.0638449" lon="12.2268898"><ele>247.33333333333331</ele><time>2026-04-20T18:30:51.727Z</time></trkpt><trkpt lat="42.0637626" lon="12.2270936"><ele>246.0</ele><time>2026-04-20T18:30:52.726Z</time></trkpt><trkpt lat="42.0636714" lon="12.2273023"><ele>245.33333333333331</ele><time>2026-04-20T18:30:53.725Z</time></trkpt><trkpt lat="42.0635818" lon="12.2274987"><ele>244.66666666666666</ele><time>2026-04-20T18:30:54.726Z</time></trkpt><trkpt lat="42.0634905" lon="12.2276988"><ele>244.0</ele><time>2026-04-20T18:30:55.725Z</time></trkpt><trkpt lat="42.063412" lon="12.2279071"><ele>244.0</ele><time>2026-04-20T18:30:56.726Z</time></trkpt><trkpt lat="42.0633505" lon="12.2281149"><ele>244.0</ele><time>2026-04-20T18:30:57.726Z</time></trkpt><trkpt lat="42.0632908" lon="12.2283365"><ele>244.0</ele><time>2026-04-20T18:30:58.725Z</time></trkpt><trkpt lat="42.0632329" lon="12.2285705"><ele>244.66666666666666</ele><time>2026-04-20T18:30:59.726Z</time></trkpt><trkpt lat="42.0631893" lon="12.2288032"><ele>245.33333333333331</ele><time>2026-04-20T18:31:00.725Z</time></trkpt><trkpt lat="42.0631368" lon="12.2290311"><ele>246.0</ele><time>2026-04-20T18:31:01.724Z</time></trkpt><trkpt lat="42.0630947" lon="12.2292626"><ele>246.0</ele><time>2026-04-20T18:31:02.724Z</time></trkpt><trkpt lat="42.0630527" lon="12.2294819"><ele>246.0</ele><time>2026-04-20T18:31:03.726Z</time></trkpt><trkpt lat="42.0630218" lon="12.2296964"><ele>246.0</ele><time>2026-04-20T18:31:04.725Z</time></trkpt><trkpt lat="42.062995" lon="12.2299006"><ele>245.5</ele><time>2026-04-20T18:31:05.724Z</time></trkpt><trkpt lat="42.0629617" lon="12.2300877"><ele>245.0</ele><time>2026-04-20T18:31:06.725Z</time></trkpt><trkpt lat="42.0629125" lon="12.2302635"><ele>244.5</ele><time>2026-04-20T18:31:07.727Z</time></trkpt><trkpt lat="42.0628421" lon="12.2304383"><ele>244.0</ele><time>2026-04-20T18:31:08.726Z</time></trkpt><trkpt lat="42.0627514" lon="12.2306149"><ele>243.66666666666666</ele><time>2026-04-20T18:31:09.725Z</time></trkpt><trkpt lat="42.0626489" lon="12.230799"><ele>243.33333333333331</ele><time>2026-04-20T18:31:10.726Z</time></trkpt><trkpt lat="42.062537" lon="12.2309845"><ele>243.0</ele><time>2026-04-20T18:31:11.726Z</time></trkpt><trkpt lat="42.0624253" lon="12.2311664"><ele>243.0</ele><time>2026-04-20T18:31:12.725Z</time></trkpt><trkpt lat="42.0623097" lon="12.2313442"><ele>243.0</ele><time>2026-04-20T18:31:13.727Z</time></trkpt><trkpt lat="42.0621879" lon="12.2315273"><ele>243.0</ele><time>2026-04-20T18:31:14.725Z</time></trkpt><trkpt lat="42.0620568" lon="12.2316956"><ele>241.0</ele><time>2026-04-20T18:31:15.725Z</time></trkpt><trkpt lat="42.0619297" lon="12.2318483"><ele>239.0</ele><time>2026-04-20T18:31:16.726Z</time></trkpt><trkpt lat="42.0617938" lon="12.2319953"><ele>237.0</ele><time>2026-04-20T18:31:17.725Z</time></trkpt><trkpt lat="42.0616585" lon="12.2321293"><ele>236.66666666666669</ele><time>2026-04-20T18:31:18.725Z</time></trkpt><trkpt lat="42.0615202" lon="12.2322615"><ele>236.33333333333334</ele><time>2026-04-20T18:31:19.725Z</time></trkpt><trkpt lat="42.0613767" lon="12.2323802"><ele>236.0</ele><time>2026-04-20T18:31:20.726Z</time></trkpt><trkpt lat="42.0612358" lon="12.2324941"><ele>236.0</ele><time>2026-04-20T18:31:21.726Z</time></trkpt><trkpt lat="42.0610908" lon="12.2325912"><ele>236.0</ele><time>2026-04-20T18:31:22.725Z</time></trkpt><trkpt lat="42.0609433" lon="12.2326849"><ele>236.0</ele><time>2026-04-20T18:31:23.724Z</time></trkpt><trkpt lat="42.0608074" lon="12.2327953"><ele>236.0</ele><time>2026-04-20T18:31:24.725Z</time></trkpt><trkpt lat="42.0606761" lon="12.2329204"><ele>236.0</ele><time>2026-04-20T18:31:25.727Z</time></trkpt><trkpt lat="42.0605352" lon="12.2330712"><ele>236.0</ele><time>2026-04-20T18:31:26.725Z</time></trkpt><trkpt lat="42.0603979" lon="12.233222"><ele>235.33333333333334</ele><time>2026-04-20T18:31:27.725Z</time></trkpt><trkpt lat="42.0602588" lon="12.2333912"><ele>234.66666666666669</ele><time>2026-04-20T18:31:28.724Z</time></trkpt><trkpt lat="42.0601304" lon="12.2335563"><ele>234.0</ele><time>2026-04-20T18:31:29.727Z</time></trkpt><trkpt lat="42.0599908" lon="12.2337084"><ele>233.66666666666669</ele><time>2026-04-20T18:31:30.725Z</time></trkpt><trkpt lat="42.0598458" lon="12.2338531"><ele>233.33333333333334</ele><time>2026-04-20T18:31:31.725Z</time></trkpt><trkpt lat="42.0596948" lon="12.2339912"><ele>233.0</ele><time>2026-04-20T18:31:32.727Z</time></trkpt><trkpt lat="42.059537" lon="12.2341292"><ele>232.66666666666669</ele><time>2026-04-20T18:31:33.725Z</time></trkpt><trkpt lat="42.0593805" lon="12.2342682"><ele>232.33333333333331</ele><time>2026-04-20T18:31:34.725Z</time></trkpt><trkpt lat="42.0592184" lon="12.234412"><ele>232.0</ele><time>2026-04-20T18:31:35.725Z</time></trkpt><trkpt lat="42.0590535" lon="12.2345506"><ele>232.0</ele><time>2026-04-20T18:31:36.725Z</time></trkpt><trkpt lat="42.0588874" lon="12.2346975"><ele>232.0</ele><time>2026-04-20T18:31:37.726Z</time></trkpt><trkpt lat="42.0587204" lon="12.2348392"><ele>232.0</ele><time>2026-04-20T18:31:38.726Z</time></trkpt><trkpt lat="42.0585535" lon="12.2349839"><ele>231.33333333333331</ele><time>2026-04-20T18:31:39.726Z</time></trkpt><trkpt lat="42.0583845" lon="12.2351272"><ele>230.66666666666669</ele><time>2026-04-20T18:31:40.727Z</time></trkpt><trkpt lat="42.0582186" lon="12.2352761"><ele>230.0</ele><time>2026-04-20T18:31:41.726Z</time></trkpt><trkpt lat="42.0580523" lon="12.2354187"><ele>230.0</ele><time>2026-04-20T18:31:42.726Z</time></trkpt><trkpt lat="42.0578958" lon="12.2355619"><ele>230.0</ele><time>2026-04-20T18:31:43.726Z</time></trkpt><trkpt lat="42.0577512" lon="12.2357097"><ele>230.0</ele><time>2026-04-20T18:31:44.727Z</time></trkpt><trkpt lat="42.0576087" lon="12.2358626"><ele>229.33333333333334</ele><time>2026-04-20T18:31:45.727Z</time></trkpt><trkpt lat="42.0574662" lon="12.2360248"><ele>228.66666666666669</ele><time>2026-04-20T18:31:46.725Z</time></trkpt><trkpt lat="42.0573213" lon="12.2361844"><ele>228.0</ele><time>2026-04-20T18:31:47.726Z</time></trkpt><trkpt lat="42.0571747" lon="12.2363401"><ele>227.0</ele><time>2026-04-20T18:31:48.727Z</time></trkpt><trkpt lat="42.0570224" lon="12.236496"><ele>226.0</ele><time>2026-04-20T18:31:49.726Z</time></trkpt><trkpt lat="42.0568684" lon="12.236652"><ele>225.0</ele><time>2026-04-20T18:31:50.724Z</time></trkpt><trkpt lat="42.0567065" lon="12.2368138"><ele>224.0</ele><time>2026-04-20T18:31:51.726Z</time></trkpt><trkpt lat="42.0565432" lon="12.2369743"><ele>223.0</ele><time>2026-04-20T18:31:52.725Z</time></trkpt><trkpt lat="42.0563795" lon="12.2371318"><ele>222.0</ele><time>2026-04-20T18:31:53.725Z</time></trkpt><trkpt lat="42.05622" lon="12.2372866"><ele>222.0</ele><time>2026-04-20T18:31:54.727Z</time></trkpt><trkpt lat="42.0560626" lon="12.2374409"><ele>222.0</ele><time>2026-04-20T18:31:55.725Z</time></trkpt><trkpt lat="42.0559053" lon="12.237593"><ele>222.0</ele><time>2026-04-20T18:31:56.726Z</time></trkpt><trkpt lat="42.0557522" lon="12.2377434"><ele>222.0</ele><time>2026-04-20T18:31:57.726Z</time></trkpt><trkpt lat="42.0555983" lon="12.2378979"><ele>222.0</ele><time>2026-04-20T18:31:58.726Z</time></trkpt><trkpt lat="42.0554444" lon="12.238048"><ele>222.0</ele><time>2026-04-20T18:31:59.725Z</time></trkpt><trkpt lat="42.0552923" lon="12.2381971"><ele>222.0</ele><time>2026-04-20T18:32:00.726Z</time></trkpt><trkpt lat="42.0551462" lon="12.2383455"><ele>222.0</ele><time>2026-04-20T18:32:01.727Z</time></trkpt><trkpt lat="42.0550047" lon="12.238498"><ele>222.0</ele><time>2026-04-20T18:32:02.725Z</time></trkpt><trkpt lat="42.0548623" lon="12.2386488"><ele>221.33333333333331</ele><time>2026-04-20T18:32:03.725Z</time></trkpt><trkpt lat="42.0547186" lon="12.2388042"><ele>220.66666666666666</ele><time>2026-04-20T18:32:04.725Z</time></trkpt><trkpt lat="42.0545687" lon="12.2389633"><ele>220.0</ele><time>2026-04-20T18:32:05.725Z</time></trkpt><trkpt lat="42.0544269" lon="12.2391231"><ele>220.0</ele><time>2026-04-20T18:32:06.727Z</time></trkpt><trkpt lat="42.054281" lon="12.239285"><ele>220.0</ele><time>2026-04-20T18:32:07.725Z</time></trkpt><trkpt lat="42.0541392" lon="12.2394402"><ele>220.0</ele><time>2026-04-20T18:32:08.725Z</time></trkpt><trkpt lat="42.054004" lon="12.2395955"><ele>220.33333333333331</ele><time>2026-04-20T18:32:09.727Z</time></trkpt><trkpt lat="42.0538789" lon="12.2397544"><ele>220.66666666666669</ele><time>2026-04-20T18:32:10.726Z</time></trkpt><trkpt lat="42.053756" lon="12.2399324"><ele>221.0</ele><time>2026-04-20T18:32:11.726Z</time></trkpt><trkpt lat="42.0536376" lon="12.240122"><ele>221.0</ele><time>2026-04-20T18:32:12.725Z</time></trkpt><trkpt lat="42.0535153" lon="12.2403236"><ele>221.0</ele><time>2026-04-20T18:32:13.725Z</time></trkpt><trkpt lat="42.053401" lon="12.2405279"><ele>221.0</ele><time>2026-04-20T18:32:14.725Z</time></trkpt><trkpt lat="42.0533005" lon="12.2407236"><ele>222.0</ele><time>2026-04-20T18:32:15.725Z</time></trkpt><trkpt lat="42.0532005" lon="12.2409203"><ele>223.0</ele><time>2026-04-20T18:32:16.725Z</time></trkpt><trkpt lat="42.0531047" lon="12.2411148"><ele>224.0</ele><time>2026-04-20T18:32:17.726Z</time></trkpt><trkpt lat="42.0530061" lon="12.241315"><ele>223.33333333333334</ele><time>2026-04-20T18:32:18.726Z</time></trkpt><trkpt lat="42.0529143" lon="12.241522"><ele>222.66666666666669</ele><time>2026-04-20T18:32:19.726Z</time></trkpt><trkpt lat="42.0528257" lon="12.2417431"><ele>222.0</ele><time>2026-04-20T18:32:20.724Z</time></trkpt><trkpt lat="42.0527407" lon="12.241964"><ele>222.0</ele><time>2026-04-20T18:32:21.726Z</time></trkpt><trkpt lat="42.0526573" lon="12.2421882"><ele>222.0</ele><time>2026-04-20T18:32:22.726Z</time></trkpt><trkpt lat="42.0525781" lon="12.242397"><ele>222.0</ele><time>2026-04-20T18:32:23.726Z</time></trkpt><trkpt lat="42.0524916" lon="12.2425979"><ele>221.0</ele><time>2026-04-20T18:32:24.725Z</time></trkpt><trkpt lat="42.0523949" lon="12.2427902"><ele>220.0</ele><time>2026-04-20T18:32:25.726Z</time></trkpt><trkpt lat="42.0522867" lon="12.2429818"><ele>219.0</ele><time>2026-04-20T18:32:26.725Z</time></trkpt><trkpt lat="42.052168" lon="12.2431686"><ele>219.0</ele><time>2026-04-20T18:32:27.725Z</time></trkpt><trkpt lat="42.0520403" lon="12.2433512"><ele>219.0</ele><time>2026-04-20T18:32:28.725Z</time></trkpt><trkpt lat="42.0519045" lon="12.2435338"><ele>219.0</ele><time>2026-04-20T18:32:29.725Z</time></trkpt><trkpt lat="42.0517762" lon="12.2437114"><ele>219.0</ele><time>2026-04-20T18:32:30.725Z</time></trkpt><trkpt lat="42.0516509" lon="12.2438857"><ele>219.0</ele><time>2026-04-20T18:32:31.725Z</time></trkpt><trkpt lat="42.0515317" lon="12.2440582"><ele>219.0</ele><time>2026-04-20T18:32:32.725Z</time></trkpt><trkpt lat="42.051424" lon="12.244225"><ele>218.66666666666669</ele><time>2026-04-20T18:32:33.726Z</time></trkpt><trkpt lat="42.0513173" lon="12.2443978"><ele>218.33333333333334</ele><time>2026-04-20T18:32:34.726Z</time></trkpt><trkpt lat="42.0512277" lon="12.2445803"><ele>218.0</ele><time>2026-04-20T18:32:35.726Z</time></trkpt><trkpt lat="42.0511285" lon="12.2447641"><ele>218.0</ele><time>2026-04-20T18:32:36.726Z</time></trkpt><trkpt lat="42.0510395" lon="12.2449474"><ele>218.0</ele><time>2026-04-20T18:32:37.725Z</time></trkpt><trkpt lat="42.0509488" lon="12.2451361"><ele>218.0</ele><time>2026-04-20T18:32:38.725Z</time></trkpt><trkpt lat="42.0508575" lon="12.2453319"><ele>217.33333333333334</ele><time>2026-04-20T18:32:39.726Z</time></trkpt><trkpt lat="42.0507673" lon="12.2455361"><ele>216.66666666666669</ele><time>2026-04-20T18:32:40.726Z</time></trkpt><trkpt lat="42.0506812" lon="12.2457399"><ele>216.0</ele><time>2026-04-20T18:32:41.727Z</time></trkpt><trkpt lat="42.0506043" lon="12.2459593"><ele>216.0</ele><time>2026-04-20T18:32:42.725Z</time></trkpt><trkpt lat="42.0505289" lon="12.246181"><ele>216.0</ele><time>2026-04-20T18:32:43.726Z</time></trkpt><trkpt lat="42.0504533" lon="12.2464042"><ele>216.0</ele><time>2026-04-20T18:32:44.725Z</time></trkpt><trkpt lat="42.0503788" lon="12.2466284"><ele>216.0</ele><time>2026-04-20T18:32:45.725Z</time></trkpt><trkpt lat="42.0503035" lon="12.2468528"><ele>216.0</ele><time>2026-04-20T18:32:46.727Z</time></trkpt><trkpt lat="42.0502266" lon="12.247079"><ele>216.0</ele><time>2026-04-20T18:32:47.727Z</time></trkpt><trkpt lat="42.0501546" lon="12.2473057"><ele>216.0</ele><time>2026-04-20T18:32:48.725Z</time></trkpt><trkpt lat="42.0500759" lon="12.2475338"><ele>216.0</ele><time>2026-04-20T18:32:49.726Z</time></trkpt><trkpt lat="42.0499997" lon="12.2477594"><ele>216.0</ele><time>2026-04-20T18:32:50.726Z</time></trkpt><trkpt lat="42.0499221" lon="12.2479875"><ele>216.0</ele><time>2026-04-20T18:32:51.725Z</time></trkpt><trkpt lat="42.0498457" lon="12.2482131"><ele>216.0</ele><time>2026-04-20T18:32:52.727Z</time></trkpt><trkpt lat="42.0497731" lon="12.2484288"><ele>216.0</ele><time>2026-04-20T18:32:53.725Z</time></trkpt><trkpt lat="42.0497075" lon="12.2486331"><ele>216.0</ele><time>2026-04-20T18:32:54.726Z</time></trkpt><trkpt lat="42.0496386" lon="12.2488383"><ele>216.0</ele><time>2026-04-20T18:32:55.725Z</time></trkpt><trkpt lat="42.0495801" lon="12.2490298"><ele>216.0</ele><time>2026-04-20T18:32:56.724Z</time></trkpt><trkpt lat="42.0495347" lon="12.24921"><ele>215.25</ele><time>2026-04-20T18:32:57.726Z</time></trkpt><trkpt lat="42.0495032" lon="12.2493886"><ele>214.5</ele><time>2026-04-20T18:32:58.725Z</time></trkpt><trkpt lat="42.049485" lon="12.2495822"><ele>213.75</ele><time>2026-04-20T18:32:59.726Z</time></trkpt><trkpt lat="42.0494885" lon="12.2497839"><ele>213.0</ele><time>2026-04-20T18:33:00.726Z</time></trkpt><trkpt lat="42.0494996" lon="12.2499921"><ele>212.33333333333331</ele><time>2026-04-20T18:33:01.726Z</time></trkpt><trkpt lat="42.0495044" lon="12.2502185"><ele>211.66666666666666</ele><time>2026-04-20T18:33:02.726Z</time></trkpt><trkpt lat="42.0494896" lon="12.2504492"><ele>211.0</ele><time>2026-04-20T18:33:03.726Z</time></trkpt><trkpt lat="42.0494642" lon="12.2506848"><ele>210.0</ele><time>2026-04-20T18:33:04.726Z</time></trkpt><trkpt lat="42.049423" lon="12.250913"><ele>209.0</ele><time>2026-04-20T18:33:05.725Z</time></trkpt><trkpt lat="42.0493674" lon="12.2511229"><ele>208.0</ele><time>2026-04-20T18:33:06.727Z</time></trkpt><trkpt lat="42.0493038" lon="12.2513098"><ele>206.66666666666666</ele><time>2026-04-20T18:33:07.725Z</time></trkpt><trkpt lat="42.0492242" lon="12.251475"><ele>205.33333333333331</ele><time>2026-04-20T18:33:08.726Z</time></trkpt><trkpt lat="42.0491215" lon="12.251637"><ele>204.0</ele><time>2026-04-20T18:33:09.725Z</time></trkpt><trkpt lat="42.0490004" lon="12.2517991"><ele>204.0</ele><time>2026-04-20T18:33:10.726Z</time></trkpt><trkpt lat="42.0488588" lon="12.2519603"><ele>204.0</ele><time>2026-04-20T18:33:11.725Z</time></trkpt><trkpt lat="42.0486954" lon="12.2521239"><ele>204.0</ele><time>2026-04-20T18:33:12.726Z</time></trkpt><trkpt lat="42.0485262" lon="12.2522778"><ele>203.33333333333331</ele><time>2026-04-20T18:33:13.725Z</time></trkpt><trkpt lat="42.0483558" lon="12.2524457"><ele>202.66666666666666</ele><time>2026-04-20T18:33:14.726Z</time></trkpt><trkpt lat="42.0481934" lon="12.252618"><ele>202.0</ele><time>2026-04-20T18:33:15.725Z</time></trkpt><trkpt lat="42.0480272" lon="12.2528038"><ele>201.66666666666666</ele><time>2026-04-20T18:33:16.726Z</time></trkpt><trkpt lat="42.0478603" lon="12.2529967"><ele>201.33333333333331</ele><time>2026-04-20T18:33:17.725Z</time></trkpt><trkpt lat="42.0476915" lon="12.2531978"><ele>201.0</ele><time>2026-04-20T18:33:18.727Z</time></trkpt><trkpt lat="42.0475228" lon="12.2533972"><ele>199.66666666666669</ele><time>2026-04-20T18:33:19.726Z</time></trkpt><trkpt lat="42.0473638" lon="12.2535911"><ele>198.33333333333334</ele><time>2026-04-20T18:33:20.725Z</time></trkpt><trkpt lat="42.0472093" lon="12.2537774"><ele>197.0</ele><time>2026-04-20T18:33:21.726Z</time></trkpt><trkpt lat="42.047059" lon="12.2539525"><ele>197.66666666666669</ele><time>2026-04-20T18:33:22.725Z</time></trkpt><trkpt lat="42.0469146" lon="12.25412"><ele>198.33333333333331</ele><time>2026-04-20T18:33:23.726Z</time></trkpt><trkpt lat="42.046773" lon="12.2542806"><ele>199.0</ele><time>2026-04-20T18:33:24.725Z</time></trkpt><trkpt lat="42.0466299" lon="12.2544461"><ele>199.33333333333331</ele><time>2026-04-20T18:33:25.725Z</time></trkpt><trkpt lat="42.0464747" lon="12.2546128"><ele>199.66666666666669</ele><time>2026-04-20T18:33:26.726Z</time></trkpt><trkpt lat="42.0463142" lon="12.2547732"><ele>200.0</ele><time>2026-04-20T18:33:27.727Z</time></trkpt><trkpt lat="42.0461408" lon="12.2549312"><ele>200.0</ele><time>2026-04-20T18:33:28.726Z</time></trkpt><trkpt lat="42.0459714" lon="12.2550929"><ele>200.0</ele><time>2026-04-20T18:33:29.725Z</time></trkpt><trkpt lat="42.0458051" lon="12.2552498"><ele>200.0</ele><time>2026-04-20T18:33:30.726Z</time></trkpt><trkpt lat="42.0456519" lon="12.2553959"><ele>199.66666666666669</ele><time>2026-04-20T18:33:31.725Z</time></trkpt><trkpt lat="42.045504" lon="12.2555425"><ele>199.33333333333331</ele><time>2026-04-20T18:33:32.725Z</time></trkpt><trkpt lat="42.0453478" lon="12.2557114"><ele>199.0</ele><time>2026-04-20T18:33:33.725Z</time></trkpt><trkpt lat="42.0451965" lon="12.2558844"><ele>199.0</ele><time>2026-04-20T18:33:34.726Z</time></trkpt><trkpt lat="42.0450395" lon="12.256067"><ele>199.0</ele><time>2026-04-20T18:33:35.725Z</time></trkpt><trkpt lat="42.044885" lon="12.2562592"><ele>199.0</ele><time>2026-04-20T18:33:36.726Z</time></trkpt><trkpt lat="42.0447245" lon="12.2564537"><ele>198.66666666666666</ele><time>2026-04-20T18:33:37.726Z</time></trkpt><trkpt lat="42.0445709" lon="12.256641"><ele>198.33333333333331</ele><time>2026-04-20T18:33:38.726Z</time></trkpt><trkpt lat="42.0444136" lon="12.2568371"><ele>198.0</ele><time>2026-04-20T18:33:39.726Z</time></trkpt><trkpt lat="42.0442517" lon="12.2570265"><ele>197.66666666666669</ele><time>2026-04-20T18:33:40.725Z</time></trkpt><trkpt lat="42.0441002" lon="12.2572068"><ele>197.33333333333334</ele><time>2026-04-20T18:33:41.726Z</time></trkpt><trkpt lat="42.0439472" lon="12.25738"><ele>197.0</ele><time>2026-04-20T18:33:42.725Z</time></trkpt><trkpt lat="42.0437966" lon="12.257543"><ele>197.0</ele><time>2026-04-20T18:33:43.726Z</time></trkpt><trkpt lat="42.0436519" lon="12.2577004"><ele>197.0</ele><time>2026-04-20T18:33:44.725Z</time></trkpt><trkpt lat="42.043513" lon="12.2578451"><ele>197.0</ele><time>2026-04-20T18:33:45.726Z</time></trkpt><trkpt lat="42.0433791" lon="12.2579796"><ele>197.0</ele><time>2026-04-20T18:33:46.726Z</time></trkpt><trkpt lat="42.0432505" lon="12.2581074"><ele>197.0</ele><time>2026-04-20T18:33:47.726Z</time></trkpt><trkpt lat="42.0431257" lon="12.2582338"><ele>197.0</ele><time>2026-04-20T18:33:48.726Z</time></trkpt><trkpt lat="42.0430094" lon="12.2583547"><ele>197.0</ele><time>2026-04-20T18:33:49.726Z</time></trkpt><trkpt lat="42.0429017" lon="12.2584692"><ele>197.0</ele><time>2026-04-20T18:33:50.726Z</time></trkpt><trkpt lat="42.0427967" lon="12.2585825"><ele>197.0</ele><time>2026-04-20T18:33:51.727Z</time></trkpt><trkpt lat="42.042697" lon="12.2586964"><ele>197.0</ele><time>2026-04-20T18:33:52.725Z</time></trkpt><trkpt lat="42.0426042" lon="12.2587916"><ele>197.0</ele><time>2026-04-20T18:33:53.726Z</time></trkpt><trkpt lat="42.0425195" lon="12.2588946"><ele>197.0</ele><time>2026-04-20T18:33:54.725Z</time></trkpt><trkpt lat="42.0424403" lon="12.2589893"><ele>197.0</ele><time>2026-04-20T18:33:55.725Z</time></trkpt><trkpt lat="42.0423715" lon="12.2590653"><ele>197.0</ele><time>2026-04-20T18:33:56.727Z</time></trkpt><trkpt lat="42.0423132" lon="12.2591221"><ele>197.0</ele><time>2026-04-20T18:33:57.727Z</time></trkpt><trkpt lat="42.0421872" lon="12.2591873"><ele>196.42857142857144</ele><time>2026-04-20T18:33:59.727Z</time></trkpt><trkpt lat="42.0421171" lon="12.2591977"><ele>195.85714285714286</ele><time>2026-04-20T18:34:00.725Z</time></trkpt><trkpt lat="42.0420552" lon="12.2592263"><ele>195.28571428571428</ele><time>2026-04-20T18:34:01.726Z</time></trkpt><trkpt lat="42.042001" lon="12.2592832"><ele>194.71428571428572</ele><time>2026-04-20T18:34:02.725Z</time></trkpt><trkpt lat="42.0419691" lon="12.2593607"><ele>194.14285714285714</ele><time>2026-04-20T18:34:03.726Z</time></trkpt><trkpt lat="42.0419573" lon="12.2594544"><ele>193.57142857142858</ele><time>2026-04-20T18:34:04.726Z</time></trkpt><trkpt lat="42.0419358" lon="12.2595608"><ele>193.0</ele><time>2026-04-20T18:34:05.724Z</time></trkpt><trkpt lat="42.0418934" lon="12.2596629"><ele>193.0</ele><time>2026-04-20T18:34:06.725Z</time></trkpt><trkpt lat="42.04182" lon="12.2597654"><ele>193.0</ele><time>2026-04-20T18:34:07.726Z</time></trkpt><trkpt lat="42.0417261" lon="12.2598741"><ele>193.0</ele><time>2026-04-20T18:34:08.726Z</time></trkpt><trkpt lat="42.0416136" lon="12.2600052"><ele>193.0</ele><time>2026-04-20T18:34:09.726Z</time></trkpt><trkpt lat="42.0414863" lon="12.2601634"><ele>192.0</ele><time>2026-04-20T18:34:10.726Z</time></trkpt><trkpt lat="42.0413423" lon="12.26034"><ele>191.0</ele><time>2026-04-20T18:34:11.724Z</time></trkpt><trkpt lat="42.0411884" lon="12.260529"><ele>190.0</ele><time>2026-04-20T18:34:12.727Z</time></trkpt><trkpt lat="42.0410132" lon="12.2607406"><ele>188.5</ele><time>2026-04-20T18:34:13.727Z</time></trkpt><trkpt lat="42.0408348" lon="12.2609586"><ele>187.0</ele><time>2026-04-20T18:34:14.725Z</time></trkpt><trkpt lat="42.0406478" lon="12.2611854"><ele>185.0</ele><time>2026-04-20T18:34:15.726Z</time></trkpt><trkpt lat="42.0404444" lon="12.2614379"><ele>183.0</ele><time>2026-04-20T18:34:16.724Z</time></trkpt><trkpt lat="42.0402325" lon="12.261695"><ele>183.0</ele><time>2026-04-20T18:34:17.726Z</time></trkpt><trkpt lat="42.0400226" lon="12.2619489"><ele>183.0</ele><time>2026-04-20T18:34:18.725Z</time></trkpt><trkpt lat="42.0398173" lon="12.2621977"><ele>182.0</ele><time>2026-04-20T18:34:19.725Z</time></trkpt><trkpt lat="42.039611" lon="12.2624452"><ele>181.0</ele><time>2026-04-20T18:34:20.726Z</time></trkpt><trkpt lat="42.0394124" lon="12.2626842"><ele>181.0</ele><time>2026-04-20T18:34:21.724Z</time></trkpt><trkpt lat="42.0392189" lon="12.2629196"><ele>181.0</ele><time>2026-04-20T18:34:22.725Z</time></trkpt><trkpt lat="42.0390314" lon="12.2631425"><ele>178.5</ele><time>2026-04-20T18:34:23.725Z</time></trkpt><trkpt lat="42.0388592" lon="12.2633533"><ele>176.0</ele><time>2026-04-20T18:34:24.726Z</time></trkpt><trkpt lat="42.0386946" lon="12.2635581"><ele>176.0</ele><time>2026-04-20T18:34:25.725Z</time></trkpt><trkpt lat="42.0385351" lon="12.263759"><ele>176.0</ele><time>2026-04-20T18:34:26.725Z</time></trkpt><trkpt lat="42.0383919" lon="12.2639536"><ele>176.0</ele><time>2026-04-20T18:34:27.725Z</time></trkpt><trkpt lat="42.0382546" lon="12.2641515"><ele>176.33333333333331</ele><time>2026-04-20T18:34:28.726Z</time></trkpt><trkpt lat="42.0381275" lon="12.2643558"><ele>176.66666666666666</ele><time>2026-04-20T18:34:29.726Z</time></trkpt><trkpt lat="42.0380096" lon="12.2645669"><ele>177.0</ele><time>2026-04-20T18:34:30.725Z</time></trkpt><trkpt lat="42.0379035" lon="12.2647835"><ele>178.0</ele><time>2026-04-20T18:34:31.725Z</time></trkpt><trkpt lat="42.0378045" lon="12.2650006"><ele>179.0</ele><time>2026-04-20T18:34:32.725Z</time></trkpt><trkpt lat="42.0377123" lon="12.2652225"><ele>180.0</ele><time>2026-04-20T18:34:33.726Z</time></trkpt><trkpt lat="42.0376303" lon="12.2654438"><ele>180.33333333333334</ele><time>2026-04-20T18:34:34.727Z</time></trkpt><trkpt lat="42.0375514" lon="12.2656742"><ele>180.66666666666669</ele><time>2026-04-20T18:34:35.726Z</time></trkpt><trkpt lat="42.0374698" lon="12.2659069"><ele>181.0</ele><time>2026-04-20T18:34:36.726Z</time></trkpt><trkpt lat="42.0373882" lon="12.2661355"><ele>181.0</ele><time>2026-04-20T18:34:37.726Z</time></trkpt><trkpt lat="42.0373015" lon="12.2663719"><ele>181.0</ele><time>2026-04-20T18:34:38.726Z</time></trkpt><trkpt lat="42.0372126" lon="12.2666135"><ele>181.0</ele><time>2026-04-20T18:34:39.726Z</time></trkpt><trkpt lat="42.037126" lon="12.2668523"><ele>180.66666666666669</ele><time>2026-04-20T18:34:40.725Z</time></trkpt><trkpt lat="42.0370325" lon="12.2670985"><ele>180.33333333333334</ele><time>2026-04-20T18:34:41.725Z</time></trkpt><trkpt lat="42.0369426" lon="12.2673424"><ele>180.0</ele><time>2026-04-20T18:34:42.726Z</time></trkpt><trkpt lat="42.0368513" lon="12.2675867"><ele>179.0</ele><time>2026-04-20T18:34:43.725Z</time></trkpt><trkpt lat="42.036759" lon="12.2678396"><ele>178.0</ele><time>2026-04-20T18:34:44.726Z</time></trkpt><trkpt lat="42.03667" lon="12.2680909"><ele>177.0</ele><time>2026-04-20T18:34:45.726Z</time></trkpt><trkpt lat="42.0365876" lon="12.2683306"><ele>175.33333333333334</ele><time>2026-04-20T18:34:46.726Z</time></trkpt><trkpt lat="42.0364974" lon="12.2685701"><ele>173.66666666666669</ele><time>2026-04-20T18:34:47.724Z</time></trkpt><trkpt lat="42.0364146" lon="12.2688014"><ele>172.0</ele><time>2026-04-20T18:34:48.724Z</time></trkpt><trkpt lat="42.0363429" lon="12.2690175"><ele>171.0</ele><time>2026-04-20T18:34:49.726Z</time></trkpt><trkpt lat="42.0362741" lon="12.269224"><ele>170.0</ele><time>2026-04-20T18:34:50.726Z</time></trkpt><trkpt lat="42.0362218" lon="12.2694139"><ele>169.0</ele><time>2026-04-20T18:34:51.725Z</time></trkpt><trkpt lat="42.036176" lon="12.2696062"><ele>170.0</ele><time>2026-04-20T18:34:52.726Z</time></trkpt><trkpt lat="42.0361359" lon="12.2698209"><ele>171.0</ele><time>2026-04-20T18:34:53.726Z</time></trkpt><trkpt lat="42.0360947" lon="12.2700518"><ele>172.0</ele><time>2026-04-20T18:34:54.726Z</time></trkpt><trkpt lat="42.0360623" lon="12.2702852"><ele>172.0</ele><time>2026-04-20T18:34:55.724Z</time></trkpt><trkpt lat="42.0360348" lon="12.2705295"><ele>172.0</ele><time>2026-04-20T18:34:56.727Z</time></trkpt><trkpt lat="42.0360075" lon="12.2707617"><ele>172.0</ele><time>2026-04-20T18:34:57.726Z</time></trkpt><trkpt lat="42.0359779" lon="12.2709855"><ele>172.33333333333334</ele><time>2026-04-20T18:34:58.726Z</time></trkpt><trkpt lat="42.035939" lon="12.2712014"><ele>172.66666666666666</ele><time>2026-04-20T18:34:59.725Z</time></trkpt><trkpt lat="42.0358969" lon="12.2714035"><ele>173.0</ele><time>2026-04-20T18:35:00.726Z</time></trkpt><trkpt lat="42.0358444" lon="12.2716091"><ele>172.33333333333331</ele><time>2026-04-20T18:35:01.725Z</time></trkpt><trkpt lat="42.035775" lon="12.2718238"><ele>171.66666666666666</ele><time>2026-04-20T18:35:02.726Z</time></trkpt><trkpt lat="42.0356976" lon="12.2720474"><ele>171.0</ele><time>2026-04-20T18:35:03.726Z</time></trkpt><trkpt lat="42.0356162" lon="12.2722782"><ele>169.66666666666666</ele><time>2026-04-20T18:35:04.726Z</time></trkpt><trkpt lat="42.0355316" lon="12.2725194"><ele>168.33333333333331</ele><time>2026-04-20T18:35:05.724Z</time></trkpt><trkpt lat="42.035444" lon="12.2727656"><ele>167.0</ele><time>2026-04-20T18:35:06.725Z</time></trkpt><trkpt lat="42.0353572" lon="12.2730062"><ele>166.0</ele><time>2026-04-20T18:35:07.725Z</time></trkpt><trkpt lat="42.0352678" lon="12.2732472"><ele>165.0</ele><time>2026-04-20T18:35:08.726Z</time></trkpt><trkpt lat="42.0351854" lon="12.2734897"><ele>164.0</ele><time>2026-04-20T18:35:09.724Z</time></trkpt><trkpt lat="42.0351001" lon="12.2737366"><ele>163.66666666666666</ele><time>2026-04-20T18:35:10.726Z</time></trkpt><trkpt lat="42.035014" lon="12.2739822"><ele>163.33333333333334</ele><time>2026-04-20T18:35:11.725Z</time></trkpt><trkpt lat="42.0349348" lon="12.2742333"><ele>163.0</ele><time>2026-04-20T18:35:12.725Z</time></trkpt><trkpt lat="42.034859" lon="12.2744784"><ele>162.66666666666669</ele><time>2026-04-20T18:35:13.725Z</time></trkpt><trkpt lat="42.0347806" lon="12.2747285"><ele>162.33333333333334</ele><time>2026-04-20T18:35:14.726Z</time></trkpt><trkpt lat="42.034704" lon="12.2749743"><ele>162.0</ele><time>2026-04-20T18:35:15.726Z</time></trkpt><trkpt lat="42.0346324" lon="12.2752154"><ele>162.0</ele><time>2026-04-20T18:35:16.724Z</time></trkpt><trkpt lat="42.0345613" lon="12.2754581"><ele>162.0</ele><time>2026-04-20T18:35:17.725Z</time></trkpt><trkpt lat="42.0344872" lon="12.2757034"><ele>162.0</ele><time>2026-04-20T18:35:18.726Z</time></trkpt><trkpt lat="42.0344162" lon="12.2759486"><ele>163.33333333333334</ele><time>2026-04-20T18:35:19.726Z</time></trkpt><trkpt lat="42.0343528" lon="12.2761906"><ele>164.66666666666669</ele><time>2026-04-20T18:35:20.725Z</time></trkpt><trkpt lat="42.0342877" lon="12.276433"><ele>166.0</ele><time>2026-04-20T18:35:21.727Z</time></trkpt><trkpt lat="42.0342206" lon="12.2766719"><ele>166.0</ele><time>2026-04-20T18:35:22.724Z</time></trkpt><trkpt lat="42.0341491" lon="12.2769242"><ele>166.0</ele><time>2026-04-20T18:35:23.727Z</time></trkpt><trkpt lat="42.0340772" lon="12.2771778"><ele>166.0</ele><time>2026-04-20T18:35:24.725Z</time></trkpt><trkpt lat="42.0340171" lon="12.2774401"><ele>164.33333333333334</ele><time>2026-04-20T18:35:25.726Z</time></trkpt><trkpt lat="42.0339435" lon="12.2777049"><ele>162.66666666666666</ele><time>2026-04-20T18:35:26.726Z</time></trkpt><trkpt lat="42.0338756" lon="12.2779688"><ele>161.0</ele><time>2026-04-20T18:35:27.725Z</time></trkpt><trkpt lat="42.0338086" lon="12.278228"><ele>161.0</ele><time>2026-04-20T18:35:28.726Z</time></trkpt><trkpt lat="42.0337306" lon="12.2784907"><ele>161.0</ele><time>2026-04-20T18:35:29.725Z</time></trkpt><trkpt lat="42.0336577" lon="12.2787477"><ele>161.0</ele><time>2026-04-20T18:35:30.726Z</time></trkpt><trkpt lat="42.0335821" lon="12.2790074"><ele>161.33333333333331</ele><time>2026-04-20T18:35:31.726Z</time></trkpt><trkpt lat="42.033507" lon="12.2792689"><ele>161.66666666666666</ele><time>2026-04-20T18:35:32.725Z</time></trkpt><trkpt lat="42.0334336" lon="12.2795297"><ele>162.0</ele><time>2026-04-20T18:35:33.725Z</time></trkpt><trkpt lat="42.0333597" lon="12.2797944"><ele>163.33333333333334</ele><time>2026-04-20T18:35:34.726Z</time></trkpt><trkpt lat="42.0332896" lon="12.2800592"><ele>164.66666666666669</ele><time>2026-04-20T18:35:35.726Z</time></trkpt><trkpt lat="42.033219" lon="12.2803137"><ele>166.0</ele><time>2026-04-20T18:35:36.726Z</time></trkpt><trkpt lat="42.0331488" lon="12.2805552"><ele>166.0</ele><time>2026-04-20T18:35:37.725Z</time></trkpt><trkpt lat="42.0330813" lon="12.2807789"><ele>166.0</ele><time>2026-04-20T18:35:38.726Z</time></trkpt><trkpt lat="42.0330209" lon="12.2809796"><ele>166.0</ele><time>2026-04-20T18:35:39.725Z</time></trkpt><trkpt lat="42.0329718" lon="12.281183"><ele>166.0</ele><time>2026-04-20T18:35:40.725Z</time></trkpt><trkpt lat="42.0329243" lon="12.2813894"><ele>166.0</ele><time>2026-04-20T18:35:41.726Z</time></trkpt><trkpt lat="42.0328845" lon="12.2816103"><ele>166.0</ele><time>2026-04-20T18:35:42.725Z</time></trkpt><trkpt lat="42.03285" lon="12.2818496"><ele>166.0</ele><time>2026-04-20T18:35:43.726Z</time></trkpt><trkpt lat="42.032813" lon="12.2820958"><ele>166.0</ele><time>2026-04-20T18:35:44.724Z</time></trkpt><trkpt lat="42.0327734" lon="12.2823556"><ele>166.0</ele><time>2026-04-20T18:35:45.726Z</time></trkpt><trkpt lat="42.0327377" lon="12.2826269"><ele>166.0</ele><time>2026-04-20T18:35:46.726Z</time></trkpt><trkpt lat="42.0327002" lon="12.282892"><ele>166.0</ele><time>2026-04-20T18:35:47.725Z</time></trkpt><trkpt lat="42.032666" lon="12.2831561"><ele>166.0</ele><time>2026-04-20T18:35:48.726Z</time></trkpt><trkpt lat="42.0326372" lon="12.2834227"><ele>165.0</ele><time>2026-04-20T18:35:49.726Z</time></trkpt><trkpt lat="42.0326124" lon="12.2836957"><ele>164.0</ele><time>2026-04-20T18:35:50.725Z</time></trkpt><trkpt lat="42.0325862" lon="12.2839664"><ele>163.0</ele><time>2026-04-20T18:35:51.726Z</time></trkpt><trkpt lat="42.0325504" lon="12.2842456"><ele>162.33333333333334</ele><time>2026-04-20T18:35:52.725Z</time></trkpt><trkpt lat="42.03252" lon="12.2845216"><ele>161.66666666666666</ele><time>2026-04-20T18:35:53.726Z</time></trkpt><trkpt lat="42.0324885" lon="12.2847914"><ele>161.0</ele><time>2026-04-20T18:35:54.726Z</time></trkpt><trkpt lat="42.0324494" lon="12.2850604"><ele>158.66666666666666</ele><time>2026-04-20T18:35:55.724Z</time></trkpt><trkpt lat="42.0324041" lon="12.2853239"><ele>156.33333333333334</ele><time>2026-04-20T18:35:56.727Z</time></trkpt><trkpt lat="42.0323629" lon="12.2855732"><ele>154.0</ele><time>2026-04-20T18:35:57.727Z</time></trkpt><trkpt lat="42.0323258" lon="12.2858042"><ele>153.33333333333334</ele><time>2026-04-20T18:35:58.727Z</time></trkpt><trkpt lat="42.0322911" lon="12.286025"><ele>152.66666666666666</ele><time>2026-04-20T18:35:59.725Z</time></trkpt><trkpt lat="42.032255" lon="12.2862407"><ele>152.0</ele><time>2026-04-20T18:36:00.726Z</time></trkpt><trkpt lat="42.0322169" lon="12.2864444"><ele>151.66666666666666</ele><time>2026-04-20T18:36:01.727Z</time></trkpt><trkpt lat="42.032187" lon="12.2866424"><ele>151.33333333333334</ele><time>2026-04-20T18:36:02.727Z</time></trkpt><trkpt lat="42.0321506" lon="12.2868532"><ele>151.0</ele><time>2026-04-20T18:36:03.727Z</time></trkpt><trkpt lat="42.0321139" lon="12.2870708"><ele>150.33333333333334</ele><time>2026-04-20T18:36:04.726Z</time></trkpt><trkpt lat="42.0320743" lon="12.2873012"><ele>149.66666666666666</ele><time>2026-04-20T18:36:05.727Z</time></trkpt><trkpt lat="42.0320332" lon="12.2875417"><ele>149.0</ele><time>2026-04-20T18:36:06.726Z</time></trkpt><trkpt lat="42.0319884" lon="12.2877957"><ele>149.0</ele><time>2026-04-20T18:36:07.726Z</time></trkpt><trkpt lat="42.031945" lon="12.2880564"><ele>149.0</ele><time>2026-04-20T18:36:08.725Z</time></trkpt><trkpt lat="42.0319031" lon="12.2883218"><ele>149.0</ele><time>2026-04-20T18:36:09.726Z</time></trkpt><trkpt lat="42.0318572" lon="12.2885867"><ele>149.66666666666666</ele><time>2026-04-20T18:36:10.725Z</time></trkpt><trkpt lat="42.0318165" lon="12.2888539"><ele>150.33333333333334</ele><time>2026-04-20T18:36:11.726Z</time></trkpt><trkpt lat="42.0317733" lon="12.2891246"><ele>151.0</ele><time>2026-04-20T18:36:12.726Z</time></trkpt><trkpt lat="42.0317296" lon="12.2894"><ele>151.0</ele><time>2026-04-20T18:36:13.725Z</time></trkpt><trkpt lat="42.0316877" lon="12.2896688"><ele>151.0</ele><time>2026-04-20T18:36:14.725Z</time></trkpt><trkpt lat="42.0316419" lon="12.28994"><ele>151.0</ele><time>2026-04-20T18:36:15.725Z</time></trkpt><trkpt lat="42.0315926" lon="12.2902184"><ele>151.0</ele><time>2026-04-20T18:36:16.726Z</time></trkpt><trkpt lat="42.0315511" lon="12.2904953"><ele>151.0</ele><time>2026-04-20T18:36:17.726Z</time></trkpt><trkpt lat="42.0315025" lon="12.2907759"><ele>151.0</ele><time>2026-04-20T18:36:18.725Z</time></trkpt><trkpt lat="42.0314635" lon="12.2910489"><ele>151.0</ele><time>2026-04-20T18:36:19.726Z</time></trkpt><trkpt lat="42.0314184" lon="12.2913349"><ele>151.0</ele><time>2026-04-20T18:36:20.726Z</time></trkpt><trkpt lat="42.0313801" lon="12.2916058"><ele>151.0</ele><time>2026-04-20T18:36:21.727Z</time></trkpt><trkpt lat="42.031338" lon="12.2918809"><ele>150.66666666666669</ele><time>2026-04-20T18:36:22.725Z</time></trkpt><trkpt lat="42.031295" lon="12.2921504"><ele>150.33333333333334</ele><time>2026-04-20T18:36:23.727Z</time></trkpt><trkpt lat="42.0312548" lon="12.2924126"><ele>150.0</ele><time>2026-04-20T18:36:24.727Z</time></trkpt><trkpt lat="42.0312162" lon="12.2926593"><ele>149.66666666666666</ele><time>2026-04-20T18:36:25.727Z</time></trkpt><trkpt lat="42.0311772" lon="12.2929031"><ele>149.33333333333331</ele><time>2026-04-20T18:36:26.726Z</time></trkpt><trkpt lat="42.0311396" lon="12.2931358"><ele>149.0</ele><time>2026-04-20T18:36:27.726Z</time></trkpt><trkpt lat="42.0311092" lon="12.2933666"><ele>149.0</ele><time>2026-04-20T18:36:28.726Z</time></trkpt><trkpt lat="42.0310873" lon="12.2935984"><ele>149.0</ele><time>2026-04-20T18:36:29.726Z</time></trkpt><trkpt lat="42.0310721" lon="12.2938294"><ele>149.0</ele><time>2026-04-20T18:36:30.726Z</time></trkpt><trkpt lat="42.0310693" lon="12.2940658"><ele>148.0</ele><time>2026-04-20T18:36:31.726Z</time></trkpt><trkpt lat="42.0310647" lon="12.2943033"><ele>147.0</ele><time>2026-04-20T18:36:32.726Z</time></trkpt><trkpt lat="42.0310792" lon="12.2945442"><ele>146.0</ele><time>2026-04-20T18:36:33.725Z</time></trkpt><trkpt lat="42.0310905" lon="12.2947972"><ele>145.33333333333331</ele><time>2026-04-20T18:36:34.725Z</time></trkpt><trkpt lat="42.0311007" lon="12.2950477"><ele>144.66666666666666</ele><time>2026-04-20T18:36:35.726Z</time></trkpt><trkpt lat="42.031114" lon="12.2953055"><ele>144.0</ele><time>2026-04-20T18:36:36.726Z</time></trkpt><trkpt lat="42.0311271" lon="12.2955696"><ele>143.66666666666666</ele><time>2026-04-20T18:36:37.726Z</time></trkpt><trkpt lat="42.0311366" lon="12.2958343"><ele>143.33333333333331</ele><time>2026-04-20T18:36:38.725Z</time></trkpt><trkpt lat="42.0311483" lon="12.2961006"><ele>143.0</ele><time>2026-04-20T18:36:39.727Z</time></trkpt><trkpt lat="42.031156" lon="12.296371"><ele>142.66666666666666</ele><time>2026-04-20T18:36:40.726Z</time></trkpt><trkpt lat="42.0311628" lon="12.2966438"><ele>142.33333333333334</ele><time>2026-04-20T18:36:41.727Z</time></trkpt><trkpt lat="42.0311731" lon="12.2969125"><ele>142.0</ele><time>2026-04-20T18:36:42.726Z</time></trkpt><trkpt lat="42.0311829" lon="12.2971781"><ele>141.66666666666669</ele><time>2026-04-20T18:36:43.725Z</time></trkpt><trkpt lat="42.0311951" lon="12.2974354"><ele>141.33333333333334</ele><time>2026-04-20T18:36:44.725Z</time></trkpt><trkpt lat="42.031205" lon="12.2976985"><ele>141.0</ele><time>2026-04-20T18:36:45.726Z</time></trkpt><trkpt lat="42.0312117" lon="12.2979593"><ele>140.33333333333334</ele><time>2026-04-20T18:36:46.726Z</time></trkpt><trkpt lat="42.0312181" lon="12.2982157"><ele>139.66666666666669</ele><time>2026-04-20T18:36:47.726Z</time></trkpt><trkpt lat="42.0312238" lon="12.2984626"><ele>139.0</ele><time>2026-04-20T18:36:48.726Z</time></trkpt><trkpt lat="42.0312339" lon="12.2987057"><ele>137.33333333333334</ele><time>2026-04-20T18:36:49.726Z</time></trkpt><trkpt lat="42.0312453" lon="12.2989355"><ele>135.66666666666666</ele><time>2026-04-20T18:36:50.725Z</time></trkpt><trkpt lat="42.0312546" lon="12.2991541"><ele>134.0</ele><time>2026-04-20T18:36:51.727Z</time></trkpt><trkpt lat="42.0312663" lon="12.2993578"><ele>134.0</ele><time>2026-04-20T18:36:52.725Z</time></trkpt><trkpt lat="42.0312939" lon="12.2995566"><ele>134.0</ele><time>2026-04-20T18:36:53.726Z</time></trkpt><trkpt lat="42.0313262" lon="12.2997545"><ele>134.0</ele><time>2026-04-20T18:36:54.725Z</time></trkpt><trkpt lat="42.0313714" lon="12.2999502"><ele>132.66666666666666</ele><time>2026-04-20T18:36:55.726Z</time></trkpt><trkpt lat="42.0314374" lon="12.3001468"><ele>131.33333333333334</ele><time>2026-04-20T18:36:56.727Z</time></trkpt><trkpt lat="42.0315225" lon="12.3003484"><ele>130.0</ele><time>2026-04-20T18:36:57.727Z</time></trkpt><trkpt lat="42.0316191" lon="12.3005609"><ele>129.0</ele><time>2026-04-20T18:36:58.725Z</time></trkpt><trkpt lat="42.031722" lon="12.3007799"><ele>128.0</ele><time>2026-04-20T18:36:59.726Z</time></trkpt><trkpt lat="42.0318237" lon="12.3010072"><ele>127.0</ele><time>2026-04-20T18:37:00.725Z</time></trkpt><trkpt lat="42.0319328" lon="12.3012417"><ele>126.66666666666667</ele><time>2026-04-20T18:37:01.725Z</time></trkpt><trkpt lat="42.032042" lon="12.3014809"><ele>126.33333333333334</ele><time>2026-04-20T18:37:02.725Z</time></trkpt><trkpt lat="42.0321511" lon="12.3017178"><ele>126.0</ele><time>2026-04-20T18:37:03.726Z</time></trkpt><trkpt lat="42.0322571" lon="12.3019468"><ele>126.0</ele><time>2026-04-20T18:37:04.727Z</time></trkpt><trkpt lat="42.0323638" lon="12.3021617"><ele>126.0</ele><time>2026-04-20T18:37:05.725Z</time></trkpt><trkpt lat="42.0324712" lon="12.3023711"><ele>126.0</ele><time>2026-04-20T18:37:06.725Z</time></trkpt><trkpt lat="42.0326008" lon="12.3025813"><ele>127.33333333333334</ele><time>2026-04-20T18:37:07.725Z</time></trkpt><trkpt lat="42.0327389" lon="12.3027947"><ele>128.66666666666669</ele><time>2026-04-20T18:37:08.727Z</time></trkpt><trkpt lat="42.0328839" lon="12.3030053"><ele>130.0</ele><time>2026-04-20T18:37:09.726Z</time></trkpt><trkpt lat="42.0330308" lon="12.3032043"><ele>130.0</ele><time>2026-04-20T18:37:10.726Z</time></trkpt><trkpt lat="42.033171" lon="12.3033854"><ele>130.0</ele><time>2026-04-20T18:37:11.726Z</time></trkpt><trkpt lat="42.0333036" lon="12.3035528"><ele>130.0</ele><time>2026-04-20T18:37:12.725Z</time></trkpt><trkpt lat="42.0334326" lon="12.3037193"><ele>130.0</ele><time>2026-04-20T18:37:13.726Z</time></trkpt><trkpt lat="42.033561" lon="12.303894"><ele>130.0</ele><time>2026-04-20T18:37:14.727Z</time></trkpt><trkpt lat="42.0336884" lon="12.3040798"><ele>130.0</ele><time>2026-04-20T18:37:15.726Z</time></trkpt><trkpt lat="42.0338143" lon="12.3042745"><ele>131.33333333333334</ele><time>2026-04-20T18:37:16.726Z</time></trkpt><trkpt lat="42.033932" lon="12.3044752"><ele>132.66666666666666</ele><time>2026-04-20T18:37:17.726Z</time></trkpt><trkpt lat="42.0340407" lon="12.304685"><ele>134.0</ele><time>2026-04-20T18:37:18.726Z</time></trkpt><trkpt lat="42.0341438" lon="12.3048975"><ele>135.0</ele><time>2026-04-20T18:37:19.725Z</time></trkpt><trkpt lat="42.034242" lon="12.3051149"><ele>136.0</ele><time>2026-04-20T18:37:20.727Z</time></trkpt><trkpt lat="42.0343425" lon="12.3053299"><ele>137.0</ele><time>2026-04-20T18:37:21.726Z</time></trkpt><trkpt lat="42.034448" lon="12.3055427"><ele>137.33333333333331</ele><time>2026-04-20T18:37:22.724Z</time></trkpt><trkpt lat="42.0345521" lon="12.3057558"><ele>137.66666666666666</ele><time>2026-04-20T18:37:23.726Z</time></trkpt><trkpt lat="42.0346628" lon="12.3059683"><ele>138.0</ele><time>2026-04-20T18:37:24.725Z</time></trkpt><trkpt lat="42.0347814" lon="12.306176"><ele>138.0</ele><time>2026-04-20T18:37:25.726Z</time></trkpt><trkpt lat="42.0349038" lon="12.3063882"><ele>138.0</ele><time>2026-04-20T18:37:26.726Z</time></trkpt><trkpt lat="42.035026" lon="12.3065962"><ele>138.0</ele><time>2026-04-20T18:37:27.726Z</time></trkpt><trkpt lat="42.0351401" lon="12.3068046"><ele>138.0</ele><time>2026-04-20T18:37:28.725Z</time></trkpt><trkpt lat="42.0352469" lon="12.3070077"><ele>138.0</ele><time>2026-04-20T18:37:29.725Z</time></trkpt><trkpt lat="42.0353527" lon="12.3072099"><ele>138.0</ele><time>2026-04-20T18:37:30.724Z</time></trkpt><trkpt lat="42.0354545" lon="12.3074136"><ele>138.0</ele><time>2026-04-20T18:37:31.726Z</time></trkpt><trkpt lat="42.0355462" lon="12.3076259"><ele>138.0</ele><time>2026-04-20T18:37:32.726Z</time></trkpt><trkpt lat="42.0356304" lon="12.3078494"><ele>138.0</ele><time>2026-04-20T18:37:33.725Z</time></trkpt><trkpt lat="42.0357125" lon="12.3080753"><ele>137.0</ele><time>2026-04-20T18:37:34.726Z</time></trkpt><trkpt lat="42.0357942" lon="12.3082961"><ele>136.0</ele><time>2026-04-20T18:37:35.726Z</time></trkpt><trkpt lat="42.0358697" lon="12.3085087"><ele>135.0</ele><time>2026-04-20T18:37:36.726Z</time></trkpt><trkpt lat="42.0359384" lon="12.3087085"><ele>134.66666666666666</ele><time>2026-04-20T18:37:37.726Z</time></trkpt><trkpt lat="42.0360029" lon="12.3089003"><ele>134.33333333333331</ele><time>2026-04-20T18:37:38.725Z</time></trkpt><trkpt lat="42.0360673" lon="12.3090868"><ele>134.0</ele><time>2026-04-20T18:37:39.725Z</time></trkpt><trkpt lat="42.0361234" lon="12.30927"><ele>134.0</ele><time>2026-04-20T18:37:40.726Z</time></trkpt><trkpt lat="42.0361731" lon="12.3094408"><ele>134.0</ele><time>2026-04-20T18:37:41.726Z</time></trkpt><trkpt lat="42.0362327" lon="12.3096147"><ele>134.0</ele><time>2026-04-20T18:37:42.726Z</time></trkpt><trkpt lat="42.0362824" lon="12.3097841"><ele>134.0</ele><time>2026-04-20T18:37:43.726Z</time></trkpt><trkpt lat="42.0363409" lon="12.3099589"><ele>133.25</ele><time>2026-04-20T18:37:44.726Z</time></trkpt><trkpt lat="42.0363972" lon="12.3101351"><ele>132.5</ele><time>2026-04-20T18:37:45.725Z</time></trkpt><trkpt lat="42.0364484" lon="12.3103182"><ele>131.75</ele><time>2026-04-20T18:37:46.724Z</time></trkpt><trkpt lat="42.0364777" lon="12.310506"><ele>131.0</ele><time>2026-04-20T18:37:47.725Z</time></trkpt><trkpt lat="42.0365001" lon="12.3106966"><ele>130.33333333333331</ele><time>2026-04-20T18:37:48.725Z</time></trkpt><trkpt lat="42.0365092" lon="12.3108968"><ele>129.66666666666666</ele><time>2026-04-20T18:37:49.726Z</time></trkpt><trkpt lat="42.0364975" lon="12.3111049"><ele>129.0</ele><time>2026-04-20T18:37:50.726Z</time></trkpt><trkpt lat="42.0364867" lon="12.3113136"><ele>129.66666666666666</ele><time>2026-04-20T18:37:51.726Z</time></trkpt><trkpt lat="42.036471" lon="12.3115293"><ele>130.33333333333331</ele><time>2026-04-20T18:37:52.726Z</time></trkpt><trkpt lat="42.0364544" lon="12.3117424"><ele>131.0</ele><time>2026-04-20T18:37:53.726Z</time></trkpt><trkpt lat="42.0364386" lon="12.3119609"><ele>131.0</ele><time>2026-04-20T18:37:54.725Z</time></trkpt><trkpt lat="42.0364179" lon="12.3121833"><ele>131.0</ele><time>2026-04-20T18:37:55.726Z</time></trkpt><trkpt lat="42.0364011" lon="12.3124022"><ele>131.0</ele><time>2026-04-20T18:37:56.727Z</time></trkpt><trkpt lat="42.0363878" lon="12.3126198"><ele>132.0</ele><time>2026-04-20T18:37:57.727Z</time></trkpt><trkpt lat="42.036369" lon="12.3128353"><ele>133.0</ele><time>2026-04-20T18:37:58.727Z</time></trkpt><trkpt lat="42.0363528" lon="12.3130456"><ele>134.0</ele><time>2026-04-20T18:37:59.727Z</time></trkpt><trkpt lat="42.0363484" lon="12.3132424"><ele>135.25</ele><time>2026-04-20T18:38:00.727Z</time></trkpt><trkpt lat="42.0363446" lon="12.3134337"><ele>136.5</ele><time>2026-04-20T18:38:01.726Z</time></trkpt><trkpt lat="42.0363514" lon="12.3136166"><ele>137.75</ele><time>2026-04-20T18:38:02.726Z</time></trkpt><trkpt lat="42.0363599" lon="12.3138006"><ele>139.0</ele><time>2026-04-20T18:38:03.726Z</time></trkpt><trkpt lat="42.0363728" lon="12.3139592"><ele>139.25</ele><time>2026-04-20T18:38:04.726Z</time></trkpt><trkpt lat="42.0363833" lon="12.3141268"><ele>139.5</ele><time>2026-04-20T18:38:05.726Z</time></trkpt><trkpt lat="42.0363996" lon="12.3142892"><ele>139.75</ele><time>2026-04-20T18:38:06.727Z</time></trkpt><trkpt lat="42.0364181" lon="12.3144412"><ele>140.0</ele><time>2026-04-20T18:38:07.726Z</time></trkpt><trkpt lat="42.0364397" lon="12.3145886"><ele>140.0</ele><time>2026-04-20T18:38:08.726Z</time></trkpt><trkpt lat="42.0364582" lon="12.3147162"><ele>140.0</ele><time>2026-04-20T18:38:09.726Z</time></trkpt><trkpt lat="42.0364742" lon="12.3148294"><ele>140.0</ele><time>2026-04-20T18:38:10.726Z</time></trkpt><trkpt lat="42.0364895" lon="12.3149292"><ele>140.0</ele><time>2026-04-20T18:38:11.725Z</time></trkpt><trkpt lat="42.0365021" lon="12.3150193"><ele>140.0</ele><time>2026-04-20T18:38:12.727Z</time></trkpt><trkpt lat="42.0365166" lon="12.3151031"><ele>140.0</ele><time>2026-04-20T18:38:13.726Z</time></trkpt><trkpt lat="42.0365924" lon="12.3152241"><ele>140.4</ele><time>2026-04-20T18:38:15.726Z</time></trkpt><trkpt lat="42.0366632" lon="12.3152391"><ele>140.8</ele><time>2026-04-20T18:38:16.726Z</time></trkpt><trkpt lat="42.0367403" lon="12.3152313"><ele>141.2</ele><time>2026-04-20T18:38:17.727Z</time></trkpt><trkpt lat="42.0368346" lon="12.3152195"><ele>141.6</ele><time>2026-04-20T18:38:18.726Z</time></trkpt><trkpt lat="42.0369638" lon="12.3152148"><ele>142.0</ele><time>2026-04-20T18:38:19.726Z</time></trkpt><trkpt lat="42.0370904" lon="12.3152245"><ele>142.0</ele><time>2026-04-20T18:38:20.726Z</time></trkpt><trkpt lat="42.0372264" lon="12.3152493"><ele>142.0</ele><time>2026-04-20T18:38:21.726Z</time></trkpt><trkpt lat="42.0373569" lon="12.3152912"><ele>142.0</ele><time>2026-04-20T18:38:22.727Z</time></trkpt><trkpt lat="42.0374927" lon="12.3153426"><ele>142.0</ele><time>2026-04-20T18:38:23.727Z</time></trkpt><trkpt lat="42.0376359" lon="12.3153987"><ele>142.33333333333334</ele><time>2026-04-20T18:38:24.725Z</time></trkpt><trkpt lat="42.0377807" lon="12.3154547"><ele>142.66666666666666</ele><time>2026-04-20T18:38:25.725Z</time></trkpt><trkpt lat="42.03793" lon="12.3155116"><ele>143.0</ele><time>2026-04-20T18:38:26.725Z</time></trkpt><trkpt lat="42.0380835" lon="12.3155719"><ele>143.0</ele><time>2026-04-20T18:38:27.726Z</time></trkpt><trkpt lat="42.0382339" lon="12.3156321"><ele>143.0</ele><time>2026-04-20T18:38:28.726Z</time></trkpt><trkpt lat="42.0383844" lon="12.3156916"><ele>143.0</ele><time>2026-04-20T18:38:29.726Z</time></trkpt><trkpt lat="42.0385324" lon="12.3157506"><ele>142.0</ele><time>2026-04-20T18:38:30.726Z</time></trkpt><trkpt lat="42.0386844" lon="12.3158102"><ele>141.0</ele><time>2026-04-20T18:38:31.725Z</time></trkpt><trkpt lat="42.0388377" lon="12.3158717"><ele>140.0</ele><time>2026-04-20T18:38:32.726Z</time></trkpt><trkpt lat="42.0389897" lon="12.3159332"><ele>140.0</ele><time>2026-04-20T18:38:33.727Z</time></trkpt><trkpt lat="42.0391439" lon="12.3159936"><ele>140.0</ele><time>2026-04-20T18:38:34.726Z</time></trkpt><trkpt lat="42.0392933" lon="12.3160568"><ele>140.0</ele><time>2026-04-20T18:38:35.726Z</time></trkpt><trkpt lat="42.0394477" lon="12.3161178"><ele>140.0</ele><time>2026-04-20T18:38:36.726Z</time></trkpt><trkpt lat="42.0396025" lon="12.3161788"><ele>140.0</ele><time>2026-04-20T18:38:37.726Z</time></trkpt><trkpt lat="42.0397563" lon="12.3162342"><ele>140.0</ele><time>2026-04-20T18:38:38.725Z</time></trkpt><trkpt lat="42.0399137" lon="12.3162954"><ele>140.33333333333331</ele><time>2026-04-20T18:38:39.726Z</time></trkpt><trkpt lat="42.0400729" lon="12.3163563"><ele>140.66666666666666</ele><time>2026-04-20T18:38:40.726Z</time></trkpt><trkpt lat="42.0402314" lon="12.3164193"><ele>141.0</ele><time>2026-04-20T18:38:41.726Z</time></trkpt><trkpt lat="42.0403922" lon="12.3164823"><ele>141.33333333333334</ele><time>2026-04-20T18:38:42.725Z</time></trkpt><trkpt lat="42.0405551" lon="12.3165466"><ele>141.66666666666669</ele><time>2026-04-20T18:38:43.725Z</time></trkpt><trkpt lat="42.0407159" lon="12.3166103"><ele>142.0</ele><time>2026-04-20T18:38:44.726Z</time></trkpt><trkpt lat="42.0408833" lon="12.3166829"><ele>142.66666666666669</ele><time>2026-04-20T18:38:45.726Z</time></trkpt><trkpt lat="42.0410447" lon="12.3167562"><ele>143.33333333333334</ele><time>2026-04-20T18:38:46.726Z</time></trkpt><trkpt lat="42.0412075" lon="12.3168293"><ele>144.0</ele><time>2026-04-20T18:38:47.726Z</time></trkpt><trkpt lat="42.0413683" lon="12.3169015"><ele>144.0</ele><time>2026-04-20T18:38:48.727Z</time></trkpt><trkpt lat="42.0415312" lon="12.3169741"><ele>144.0</ele><time>2026-04-20T18:38:49.726Z</time></trkpt><trkpt lat="42.0416967" lon="12.3170531"><ele>144.0</ele><time>2026-04-20T18:38:50.726Z</time></trkpt><trkpt lat="42.0418617" lon="12.3171293"><ele>143.66666666666666</ele><time>2026-04-20T18:38:51.726Z</time></trkpt><trkpt lat="42.0420294" lon="12.317206"><ele>143.33333333333331</ele><time>2026-04-20T18:38:52.726Z</time></trkpt><trkpt lat="42.0421953" lon="12.3172804"><ele>143.0</ele><time>2026-04-20T18:38:53.727Z</time></trkpt><trkpt lat="42.042358" lon="12.3173523"><ele>143.33333333333331</ele><time>2026-04-20T18:38:54.726Z</time></trkpt><trkpt lat="42.0425226" lon="12.3174227"><ele>143.66666666666666</ele><time>2026-04-20T18:38:55.727Z</time></trkpt><trkpt lat="42.0426886" lon="12.3174876"><ele>144.0</ele><time>2026-04-20T18:38:56.726Z</time></trkpt><trkpt lat="42.0428565" lon="12.3175468"><ele>144.0</ele><time>2026-04-20T18:38:57.726Z</time></trkpt><trkpt lat="42.0430263" lon="12.3175927"><ele>144.0</ele><time>2026-04-20T18:38:58.726Z</time></trkpt><trkpt lat="42.0431996" lon="12.3176379"><ele>144.0</ele><time>2026-04-20T18:38:59.726Z</time></trkpt><trkpt lat="42.0433738" lon="12.3176823"><ele>143.66666666666666</ele><time>2026-04-20T18:39:00.726Z</time></trkpt><trkpt lat="42.0435512" lon="12.3177294"><ele>143.33333333333331</ele><time>2026-04-20T18:39:01.727Z</time></trkpt><trkpt lat="42.0437308" lon="12.3177782"><ele>143.0</ele><time>2026-04-20T18:39:02.727Z</time></trkpt><trkpt lat="42.0439109" lon="12.3178267"><ele>143.0</ele><time>2026-04-20T18:39:03.727Z</time></trkpt><trkpt lat="42.0440939" lon="12.3178774"><ele>143.0</ele><time>2026-04-20T18:39:04.727Z</time></trkpt><trkpt lat="42.044276" lon="12.317927"><ele>143.0</ele><time>2026-04-20T18:39:05.726Z</time></trkpt><trkpt lat="42.0444617" lon="12.3179753"><ele>143.0</ele><time>2026-04-20T18:39:06.727Z</time></trkpt><trkpt lat="42.044647" lon="12.3180247"><ele>143.0</ele><time>2026-04-20T18:39:07.727Z</time></trkpt><trkpt lat="42.0448316" lon="12.3180739"><ele>143.0</ele><time>2026-04-20T18:39:08.727Z</time></trkpt><trkpt lat="42.0450179" lon="12.3181243"><ele>142.66666666666666</ele><time>2026-04-20T18:39:09.726Z</time></trkpt><trkpt lat="42.045206" lon="12.3181728"><ele>142.33333333333334</ele><time>2026-04-20T18:39:10.727Z</time></trkpt><trkpt lat="42.045394" lon="12.3182238"><ele>142.0</ele><time>2026-04-20T18:39:11.726Z</time></trkpt><trkpt lat="42.0455814" lon="12.318276"><ele>142.0</ele><time>2026-04-20T18:39:12.726Z</time></trkpt><trkpt lat="42.0457695" lon="12.3183261"><ele>142.0</ele><time>2026-04-20T18:39:13.725Z</time></trkpt><trkpt lat="42.0459561" lon="12.3183749"><ele>142.0</ele><time>2026-04-20T18:39:14.726Z</time></trkpt><trkpt lat="42.0461424" lon="12.3184254"><ele>141.66666666666669</ele><time>2026-04-20T18:39:15.726Z</time></trkpt><trkpt lat="42.0463268" lon="12.3184745"><ele>141.33333333333334</ele><time>2026-04-20T18:39:16.726Z</time></trkpt><trkpt lat="42.0465102" lon="12.3185256"><ele>141.0</ele><time>2026-04-20T18:39:17.726Z</time></trkpt><trkpt lat="42.0466924" lon="12.3185739"><ele>141.0</ele><time>2026-04-20T18:39:18.725Z</time></trkpt><trkpt lat="42.0468708" lon="12.3186218"><ele>141.0</ele><time>2026-04-20T18:39:19.725Z</time></trkpt><trkpt lat="42.047048" lon="12.3186716"><ele>141.0</ele><time>2026-04-20T18:39:20.726Z</time></trkpt><trkpt lat="42.0472204" lon="12.3187181"><ele>141.0</ele><time>2026-04-20T18:39:21.727Z</time></trkpt><trkpt lat="42.0473846" lon="12.3187601"><ele>141.0</ele><time>2026-04-20T18:39:22.725Z</time></trkpt><trkpt lat="42.047543" lon="12.3187933"><ele>141.0</ele><time>2026-04-20T18:39:23.727Z</time></trkpt><trkpt lat="42.0476944" lon="12.3188292"><ele>141.25</ele><time>2026-04-20T18:39:24.726Z</time></trkpt><trkpt lat="42.0478365" lon="12.3188677"><ele>141.5</ele><time>2026-04-20T18:39:25.726Z</time></trkpt><trkpt lat="42.0479783" lon="12.3189142"><ele>141.75</ele><time>2026-04-20T18:39:26.726Z</time></trkpt><trkpt lat="42.0481104" lon="12.3189795"><ele>142.0</ele><time>2026-04-20T18:39:27.725Z</time></trkpt><trkpt lat="42.0482438" lon="12.3190683"><ele>142.33333333333334</ele><time>2026-04-20T18:39:28.727Z</time></trkpt><trkpt lat="42.0483677" lon="12.3191843"><ele>142.66666666666666</ele><time>2026-04-20T18:39:29.726Z</time></trkpt><trkpt lat="42.0484862" lon="12.3193251"><ele>143.0</ele><time>2026-04-20T18:39:30.726Z</time></trkpt><trkpt lat="42.048607" lon="12.319487"><ele>143.0</ele><time>2026-04-20T18:39:31.725Z</time></trkpt><trkpt lat="42.0487331" lon="12.3196511"><ele>143.0</ele><time>2026-04-20T18:39:32.726Z</time></trkpt><trkpt lat="42.0488704" lon="12.3198174"><ele>143.0</ele><time>2026-04-20T18:39:33.726Z</time></trkpt><trkpt lat="42.0490096" lon="12.3199864"><ele>143.33333333333331</ele><time>2026-04-20T18:39:34.726Z</time></trkpt><trkpt lat="42.0491518" lon="12.3201556"><ele>143.66666666666666</ele><time>2026-04-20T18:39:35.727Z</time></trkpt><trkpt lat="42.049293" lon="12.3203253"><ele>144.0</ele><time>2026-04-20T18:39:36.726Z</time></trkpt><trkpt lat="42.0494302" lon="12.3204856"><ele>144.0</ele><time>2026-04-20T18:39:37.726Z</time></trkpt><trkpt lat="42.0495626" lon="12.320639"><ele>144.0</ele><time>2026-04-20T18:39:38.726Z</time></trkpt><trkpt lat="42.0496908" lon="12.3207881"><ele>144.0</ele><time>2026-04-20T18:39:39.726Z</time></trkpt><trkpt lat="42.0498139" lon="12.3209356"><ele>144.0</ele><time>2026-04-20T18:39:40.726Z</time></trkpt><trkpt lat="42.0499328" lon="12.3210776"><ele>144.0</ele><time>2026-04-20T18:39:41.726Z</time></trkpt><trkpt lat="42.0500553" lon="12.3212182"><ele>144.0</ele><time>2026-04-20T18:39:42.726Z</time></trkpt><trkpt lat="42.0501754" lon="12.3213559"><ele>143.25</ele><time>2026-04-20T18:39:43.726Z</time></trkpt><trkpt lat="42.0502911" lon="12.3214868"><ele>142.5</ele><time>2026-04-20T18:39:44.726Z</time></trkpt><trkpt lat="42.0504072" lon="12.3216067"><ele>141.75</ele><time>2026-04-20T18:39:45.726Z</time></trkpt><trkpt lat="42.0505337" lon="12.3217129"><ele>141.0</ele><time>2026-04-20T18:39:46.726Z</time></trkpt><trkpt lat="42.0506731" lon="12.321805"><ele>141.66666666666666</ele><time>2026-04-20T18:39:47.727Z</time></trkpt><trkpt lat="42.0508251" lon="12.3218654"><ele>142.33333333333331</ele><time>2026-04-20T18:39:48.726Z</time></trkpt><trkpt lat="42.050988" lon="12.3219059"><ele>143.0</ele><time>2026-04-20T18:39:49.727Z</time></trkpt><trkpt lat="42.0511577" lon="12.3219285"><ele>143.0</ele><time>2026-04-20T18:39:50.726Z</time></trkpt><trkpt lat="42.0513327" lon="12.3219479"><ele>143.0</ele><time>2026-04-20T18:39:51.726Z</time></trkpt><trkpt lat="42.0515112" lon="12.3219706"><ele>143.0</ele><time>2026-04-20T18:39:52.726Z</time></trkpt><trkpt lat="42.0516886" lon="12.3219883"><ele>143.33333333333331</ele><time>2026-04-20T18:39:53.727Z</time></trkpt><trkpt lat="42.0518652" lon="12.3220074"><ele>143.66666666666666</ele><time>2026-04-20T18:39:54.726Z</time></trkpt><trkpt lat="42.0520358" lon="12.322031"><ele>144.0</ele><time>2026-04-20T18:39:55.726Z</time></trkpt><trkpt lat="42.0522079" lon="12.3220492"><ele>144.0</ele><time>2026-04-20T18:39:56.726Z</time></trkpt><trkpt lat="42.052377" lon="12.3220675"><ele>144.0</ele><time>2026-04-20T18:39:57.727Z</time></trkpt><trkpt lat="42.0525451" lon="12.3220861"><ele>144.0</ele><time>2026-04-20T18:39:58.726Z</time></trkpt><trkpt lat="42.0527109" lon="12.3221078"><ele>145.0</ele><time>2026-04-20T18:39:59.726Z</time></trkpt><trkpt lat="42.0528776" lon="12.3221274"><ele>146.0</ele><time>2026-04-20T18:40:00.726Z</time></trkpt><trkpt lat="42.0530393" lon="12.3221505"><ele>147.0</ele><time>2026-04-20T18:40:01.725Z</time></trkpt><trkpt lat="42.0532029" lon="12.3221729"><ele>147.33333333333334</ele><time>2026-04-20T18:40:02.726Z</time></trkpt><trkpt lat="42.0533648" lon="12.322193"><ele>147.66666666666669</ele><time>2026-04-20T18:40:03.726Z</time></trkpt><trkpt lat="42.0535236" lon="12.3222122"><ele>148.0</ele><time>2026-04-20T18:40:04.726Z</time></trkpt><trkpt lat="42.0536836" lon="12.3222303"><ele>148.0</ele><time>2026-04-20T18:40:05.726Z</time></trkpt><trkpt lat="42.0538419" lon="12.3222519"><ele>148.0</ele><time>2026-04-20T18:40:06.726Z</time></trkpt><trkpt lat="42.0539995" lon="12.3222731"><ele>148.0</ele><time>2026-04-20T18:40:07.726Z</time></trkpt><trkpt lat="42.0541564" lon="12.3222923"><ele>148.0</ele><time>2026-04-20T18:40:08.726Z</time></trkpt><trkpt lat="42.0543089" lon="12.3223084"><ele>148.0</ele><time>2026-04-20T18:40:09.726Z</time></trkpt><trkpt lat="42.0544618" lon="12.3223256"><ele>148.0</ele><time>2026-04-20T18:40:10.726Z</time></trkpt><trkpt lat="42.0546142" lon="12.3223425"><ele>148.0</ele><time>2026-04-20T18:40:11.726Z</time></trkpt><trkpt lat="42.0547685" lon="12.3223612"><ele>148.0</ele><time>2026-04-20T18:40:12.726Z</time></trkpt><trkpt lat="42.054924" lon="12.3223794"><ele>148.0</ele><time>2026-04-20T18:40:13.726Z</time></trkpt><trkpt lat="42.0550829" lon="12.3223974"><ele>148.0</ele><time>2026-04-20T18:40:14.726Z</time></trkpt><trkpt lat="42.0552456" lon="12.3224164"><ele>148.0</ele><time>2026-04-20T18:40:15.726Z</time></trkpt><trkpt lat="42.0554106" lon="12.3224351"><ele>148.0</ele><time>2026-04-20T18:40:16.727Z</time></trkpt><trkpt lat="42.0555781" lon="12.3224507"><ele>148.0</ele><time>2026-04-20T18:40:17.725Z</time></trkpt><trkpt lat="42.0557522" lon="12.3224725"><ele>148.0</ele><time>2026-04-20T18:40:18.725Z</time></trkpt><trkpt lat="42.0559221" lon="12.3224938"><ele>148.0</ele><time>2026-04-20T18:40:19.727Z</time></trkpt><trkpt lat="42.0560945" lon="12.3225199"><ele>148.0</ele><time>2026-04-20T18:40:20.727Z</time></trkpt><trkpt lat="42.0562654" lon="12.3225406"><ele>148.0</ele><time>2026-04-20T18:40:21.726Z</time></trkpt><trkpt lat="42.0564382" lon="12.3225575"><ele>148.0</ele><time>2026-04-20T18:40:22.725Z</time></trkpt><trkpt lat="42.0566116" lon="12.3225756"><ele>148.0</ele><time>2026-04-20T18:40:23.727Z</time></trkpt><trkpt lat="42.0567764" lon="12.3225964"><ele>148.0</ele><time>2026-04-20T18:40:24.726Z</time></trkpt><trkpt lat="42.0569339" lon="12.322616"><ele>148.0</ele><time>2026-04-20T18:40:25.726Z</time></trkpt><trkpt lat="42.0570842" lon="12.3226344"><ele>148.0</ele><time>2026-04-20T18:40:26.726Z</time></trkpt><trkpt lat="42.0572325" lon="12.322662"><ele>148.0</ele><time>2026-04-20T18:40:27.726Z</time></trkpt><trkpt lat="42.0573751" lon="12.3227083"><ele>148.0</ele><time>2026-04-20T18:40:28.726Z</time></trkpt><trkpt lat="42.0575184" lon="12.3227678"><ele>148.0</ele><time>2026-04-20T18:40:29.726Z</time></trkpt><trkpt lat="42.0576631" lon="12.3228406"><ele>148.66666666666669</ele><time>2026-04-20T18:40:30.726Z</time></trkpt><trkpt lat="42.0578099" lon="12.3229257"><ele>149.33333333333334</ele><time>2026-04-20T18:40:31.726Z</time></trkpt><trkpt lat="42.0579611" lon="12.323023"><ele>150.0</ele><time>2026-04-20T18:40:32.725Z</time></trkpt><trkpt lat="42.0581118" lon="12.3231151"><ele>150.0</ele><time>2026-04-20T18:40:33.726Z</time></trkpt><trkpt lat="42.0582655" lon="12.3232052"><ele>150.0</ele><time>2026-04-20T18:40:34.726Z</time></trkpt><trkpt lat="42.0584129" lon="12.3232952"><ele>150.0</ele><time>2026-04-20T18:40:35.726Z</time></trkpt><trkpt lat="42.058555" lon="12.3233837"><ele>150.0</ele><time>2026-04-20T18:40:36.726Z</time></trkpt><trkpt lat="42.0586918" lon="12.3234693"><ele>150.0</ele><time>2026-04-20T18:40:37.725Z</time></trkpt><trkpt lat="42.0588292" lon="12.3235527"><ele>150.0</ele><time>2026-04-20T18:40:38.725Z</time></trkpt><trkpt lat="42.0589669" lon="12.3236361"><ele>150.0</ele><time>2026-04-20T18:40:39.726Z</time></trkpt><trkpt lat="42.0591027" lon="12.3237207"><ele>150.0</ele><time>2026-04-20T18:40:40.726Z</time></trkpt><trkpt lat="42.059239" lon="12.3238053"><ele>150.0</ele><time>2026-04-20T18:40:41.727Z</time></trkpt><trkpt lat="42.0593784" lon="12.3238909"><ele>152.0</ele><time>2026-04-20T18:40:42.726Z</time></trkpt><trkpt lat="42.0595172" lon="12.3239788"><ele>154.0</ele><time>2026-04-20T18:40:43.726Z</time></trkpt><trkpt lat="42.0596581" lon="12.3240683"><ele>156.0</ele><time>2026-04-20T18:40:44.726Z</time></trkpt><trkpt lat="42.059801" lon="12.3241568"><ele>156.0</ele><time>2026-04-20T18:40:45.727Z</time></trkpt><trkpt lat="42.0599427" lon="12.3242431"><ele>156.0</ele><time>2026-04-20T18:40:46.727Z</time></trkpt><trkpt lat="42.0600753" lon="12.3243248"><ele>156.0</ele><time>2026-04-20T18:40:47.726Z</time></trkpt><trkpt lat="42.0601992" lon="12.3244016"><ele>156.0</ele><time>2026-04-20T18:40:48.726Z</time></trkpt><trkpt lat="42.060317" lon="12.3244751"><ele>157.0</ele><time>2026-04-20T18:40:49.727Z</time></trkpt><trkpt lat="42.0604295" lon="12.3245456"><ele>158.0</ele><time>2026-04-20T18:40:50.726Z</time></trkpt><trkpt lat="42.0605429" lon="12.3246151"><ele>159.0</ele><time>2026-04-20T18:40:51.726Z</time></trkpt><trkpt lat="42.0606541" lon="12.324679"><ele>160.0</ele><time>2026-04-20T18:40:52.726Z</time></trkpt><trkpt lat="42.0607661" lon="12.3247202"><ele>159.5</ele><time>2026-04-20T18:40:53.725Z</time></trkpt><trkpt lat="42.0608776" lon="12.3247373"><ele>159.0</ele><time>2026-04-20T18:40:54.726Z</time></trkpt><trkpt lat="42.0609931" lon="12.3247156"><ele>158.5</ele><time>2026-04-20T18:40:55.727Z</time></trkpt><trkpt lat="42.0611046" lon="12.324669"><ele>158.0</ele><time>2026-04-20T18:40:56.726Z</time></trkpt><trkpt lat="42.0612214" lon="12.3245897"><ele>158.0</ele><time>2026-04-20T18:40:57.726Z</time></trkpt><trkpt lat="42.0613394" lon="12.3244878"><ele>158.0</ele><time>2026-04-20T18:40:58.727Z</time></trkpt><trkpt lat="42.0614448" lon="12.3243941"><ele>158.0</ele><time>2026-04-20T18:40:59.726Z</time></trkpt><trkpt lat="42.0615706" lon="12.3242737"><ele>158.0</ele><time>2026-04-20T18:41:00.726Z</time></trkpt><trkpt lat="42.061695" lon="12.3241542"><ele>158.0</ele><time>2026-04-20T18:41:01.725Z</time></trkpt><trkpt lat="42.0618255" lon="12.3240311"><ele>158.0</ele><time>2026-04-20T18:41:02.725Z</time></trkpt><trkpt lat="42.0619587" lon="12.3239105"><ele>158.0</ele><time>2026-04-20T18:41:03.727Z</time></trkpt><trkpt lat="42.0621023" lon="12.3238012"><ele>158.33333333333331</ele><time>2026-04-20T18:41:04.727Z</time></trkpt><trkpt lat="42.0622404" lon="12.3237008"><ele>158.66666666666666</ele><time>2026-04-20T18:41:05.726Z</time></trkpt><trkpt lat="42.0623853" lon="12.3236103"><ele>159.0</ele><time>2026-04-20T18:41:06.724Z</time></trkpt><trkpt lat="42.0625304" lon="12.3235256"><ele>159.0</ele><time>2026-04-20T18:41:07.726Z</time></trkpt><trkpt lat="42.0626763" lon="12.3234422"><ele>159.0</ele><time>2026-04-20T18:41:08.726Z</time></trkpt><trkpt lat="42.0628158" lon="12.3233625"><ele>159.0</ele><time>2026-04-20T18:41:09.727Z</time></trkpt><trkpt lat="42.0629453" lon="12.3232903"><ele>159.0</ele><time>2026-04-20T18:41:10.726Z</time></trkpt><trkpt lat="42.0630666" lon="12.3232241"><ele>159.0</ele><time>2026-04-20T18:41:11.727Z</time></trkpt><trkpt lat="42.06319" lon="12.3231694"><ele>159.0</ele><time>2026-04-20T18:41:12.725Z</time></trkpt><trkpt lat="42.063304" lon="12.3231283"><ele>159.0</ele><time>2026-04-20T18:41:13.725Z</time></trkpt><trkpt lat="42.0634237" lon="12.3231151"><ele>159.0</ele><time>2026-04-20T18:41:14.726Z</time></trkpt><trkpt lat="42.063546" lon="12.3231268"><ele>159.0</ele><time>2026-04-20T18:41:15.726Z</time></trkpt><trkpt lat="42.0636714" lon="12.3231617"><ele>159.0</ele><time>2026-04-20T18:41:16.727Z</time></trkpt><trkpt lat="42.0637846" lon="12.3232197"><ele>159.0</ele><time>2026-04-20T18:41:17.725Z</time></trkpt><trkpt lat="42.0638836" lon="12.3233004"><ele>159.0</ele><time>2026-04-20T18:41:18.726Z</time></trkpt><trkpt lat="42.0639665" lon="12.3233938"><ele>159.0</ele><time>2026-04-20T18:41:19.727Z</time></trkpt><trkpt lat="42.0640357" lon="12.3235053"><ele>159.0</ele><time>2026-04-20T18:41:20.726Z</time></trkpt><trkpt lat="42.0640941" lon="12.3236323"><ele>159.0</ele><time>2026-04-20T18:41:21.725Z</time></trkpt><trkpt lat="42.0641394" lon="12.3237655"><ele>159.0</ele><time>2026-04-20T18:41:22.726Z</time></trkpt><trkpt lat="42.0641646" lon="12.3239051"><ele>158.25</ele><time>2026-04-20T18:41:23.726Z</time></trkpt><trkpt lat="42.0641776" lon="12.324049"><ele>157.5</ele><time>2026-04-20T18:41:24.727Z</time></trkpt><trkpt lat="42.0641793" lon="12.3242025"><ele>156.75</ele><time>2026-04-20T18:41:25.726Z</time></trkpt><trkpt lat="42.064161" lon="12.3243559"><ele>156.0</ele><time>2026-04-20T18:41:26.726Z</time></trkpt><trkpt lat="42.0641214" lon="12.3245067"><ele>156.0</ele><time>2026-04-20T18:41:27.726Z</time></trkpt><trkpt lat="42.064063" lon="12.32465"><ele>156.0</ele><time>2026-04-20T18:41:28.725Z</time></trkpt><trkpt lat="42.0639901" lon="12.3247825"><ele>156.0</ele><time>2026-04-20T18:41:29.726Z</time></trkpt><trkpt lat="42.0639094" lon="12.3249096"><ele>156.0</ele><time>2026-04-20T18:41:30.726Z</time></trkpt><trkpt lat="42.0638188" lon="12.3250282"><ele>155.75</ele><time>2026-04-20T18:41:31.727Z</time></trkpt><trkpt lat="42.0637263" lon="12.3251429"><ele>155.5</ele><time>2026-04-20T18:41:32.726Z</time></trkpt><trkpt lat="42.0636288" lon="12.3252588"><ele>155.25</ele><time>2026-04-20T18:41:33.726Z</time></trkpt><trkpt lat="42.063528" lon="12.3253713"><ele>155.0</ele><time>2026-04-20T18:41:34.726Z</time></trkpt><trkpt lat="42.0634312" lon="12.3254882"><ele>155.25</ele><time>2026-04-20T18:41:35.726Z</time></trkpt><trkpt lat="42.0633363" lon="12.3256017"><ele>155.5</ele><time>2026-04-20T18:41:36.726Z</time></trkpt><trkpt lat="42.0632411" lon="12.3257152"><ele>155.75</ele><time>2026-04-20T18:41:37.725Z</time></trkpt><trkpt lat="42.0631463" lon="12.3258313"><ele>156.0</ele><time>2026-04-20T18:41:38.726Z</time></trkpt><trkpt lat="42.0630483" lon="12.3259417"><ele>155.5</ele><time>2026-04-20T18:41:39.726Z</time></trkpt><trkpt lat="42.0629493" lon="12.3260523"><ele>155.0</ele><time>2026-04-20T18:41:40.726Z</time></trkpt><trkpt lat="42.0628525" lon="12.3261631"><ele>154.5</ele><time>2026-04-20T18:41:41.726Z</time></trkpt><trkpt lat="42.0627606" lon="12.3262716"><ele>154.0</ele><time>2026-04-20T18:41:42.726Z</time></trkpt><trkpt lat="42.0626742" lon="12.32637"><ele>154.16666666666669</ele><time>2026-04-20T18:41:43.726Z</time></trkpt><trkpt lat="42.0625929" lon="12.3264627"><ele>154.33333333333334</ele><time>2026-04-20T18:41:44.727Z</time></trkpt><trkpt lat="42.0625237" lon="12.3265488"><ele>154.5</ele><time>2026-04-20T18:41:45.726Z</time></trkpt><trkpt lat="42.0624598" lon="12.3266244"><ele>154.66666666666666</ele><time>2026-04-20T18:41:46.726Z</time></trkpt><trkpt lat="42.0624049" lon="12.3266952"><ele>154.83333333333331</ele><time>2026-04-20T18:41:47.726Z</time></trkpt><trkpt lat="42.0623564" lon="12.3267648"><ele>155.0</ele><time>2026-04-20T18:41:48.726Z</time></trkpt><trkpt lat="42.0623129" lon="12.3268351"><ele>155.0</ele><time>2026-04-20T18:41:49.726Z</time></trkpt><trkpt lat="42.0622869" lon="12.3269156"><ele>155.0</ele><time>2026-04-20T18:41:50.726Z</time></trkpt><trkpt lat="42.0622839" lon="12.3270013"><ele>155.0</ele><time>2026-04-20T18:41:51.726Z</time></trkpt><trkpt lat="42.0622998" lon="12.3270947"><ele>155.0</ele><time>2026-04-20T18:41:52.726Z</time></trkpt><trkpt lat="42.0623414" lon="12.3271803"><ele>155.0</ele><time>2026-04-20T18:41:53.726Z</time></trkpt><trkpt lat="42.0623999" lon="12.3272677"><ele>155.0</ele><time>2026-04-20T18:41:54.727Z</time></trkpt><trkpt lat="42.0624769" lon="12.3273496"><ele>155.2</ele><time>2026-04-20T18:41:55.725Z</time></trkpt><trkpt lat="42.0625636" lon="12.327433"><ele>155.4</ele><time>2026-04-20T18:41:56.726Z</time></trkpt><trkpt lat="42.0626486" lon="12.327517"><ele>155.6</ele><time>2026-04-20T18:41:57.727Z</time></trkpt><trkpt lat="42.0627304" lon="12.3275933"><ele>155.8</ele><time>2026-04-20T18:41:58.726Z</time></trkpt><trkpt lat="42.06281" lon="12.3276667"><ele>156.0</ele><time>2026-04-20T18:41:59.726Z</time></trkpt><trkpt lat="42.062888" lon="12.3277334"><ele>156.0</ele><time>2026-04-20T18:42:00.726Z</time></trkpt><trkpt lat="42.0629612" lon="12.327801"><ele>156.0</ele><time>2026-04-20T18:42:01.726Z</time></trkpt><trkpt lat="42.0630355" lon="12.3278744"><ele>156.0</ele><time>2026-04-20T18:42:02.726Z</time></trkpt><trkpt lat="42.0631206" lon="12.3279505"><ele>156.0</ele><time>2026-04-20T18:42:03.727Z</time></trkpt><trkpt lat="42.0632105" lon="12.3280292"><ele>156.0</ele><time>2026-04-20T18:42:04.726Z</time></trkpt><trkpt lat="42.0632994" lon="12.3281144"><ele>156.2</ele><time>2026-04-20T18:42:05.726Z</time></trkpt><trkpt lat="42.0633868" lon="12.3281962"><ele>156.39999999999998</ele><time>2026-04-20T18:42:06.725Z</time></trkpt><trkpt lat="42.0634713" lon="12.3282806"><ele>156.6</ele><time>2026-04-20T18:42:07.726Z</time></trkpt><trkpt lat="42.0635617" lon="12.3283601"><ele>156.79999999999998</ele><time>2026-04-20T18:42:08.726Z</time></trkpt><trkpt lat="42.0636462" lon="12.3284404"><ele>157.0</ele><time>2026-04-20T18:42:09.726Z</time></trkpt><trkpt lat="42.0637364" lon="12.3285212"><ele>157.0</ele><time>2026-04-20T18:42:10.727Z</time></trkpt><trkpt lat="42.063829" lon="12.3285958"><ele>157.0</ele><time>2026-04-20T18:42:11.726Z</time></trkpt><trkpt lat="42.0639267" lon="12.3286766"><ele>157.0</ele><time>2026-04-20T18:42:12.726Z</time></trkpt><trkpt lat="42.0640257" lon="12.3287589"><ele>157.0</ele><time>2026-04-20T18:42:13.726Z</time></trkpt><trkpt lat="42.0641325" lon="12.3288522"><ele>157.0</ele><time>2026-04-20T18:42:14.726Z</time></trkpt><trkpt lat="42.0642342" lon="12.3289471"><ele>157.0</ele><time>2026-04-20T18:42:15.726Z</time></trkpt><trkpt lat="42.0643334" lon="12.3290377"><ele>157.0</ele><time>2026-04-20T18:42:16.727Z</time></trkpt><trkpt lat="42.0644304" lon="12.3291284"><ele>157.0</ele><time>2026-04-20T18:42:17.727Z</time></trkpt><trkpt lat="42.0645256" lon="12.3292146"><ele>157.0</ele><time>2026-04-20T18:42:18.727Z</time></trkpt><trkpt lat="42.0646157" lon="12.3292936"><ele>157.0</ele><time>2026-04-20T18:42:19.726Z</time></trkpt><trkpt lat="42.0646983" lon="12.3293736"><ele>157.0</ele><time>2026-04-20T18:42:20.726Z</time></trkpt><trkpt lat="42.0647879" lon="12.3294525"><ele>157.0</ele><time>2026-04-20T18:42:21.727Z</time></trkpt><trkpt lat="42.0648733" lon="12.32953"><ele>157.0</ele><time>2026-04-20T18:42:22.725Z</time></trkpt><trkpt lat="42.0649611" lon="12.3296139"><ele>157.4</ele><time>2026-04-20T18:42:23.726Z</time></trkpt><trkpt lat="42.0650462" lon="12.3296925"><ele>157.79999999999998</ele><time>2026-04-20T18:42:24.725Z</time></trkpt><trkpt lat="42.0651277" lon="12.32978"><ele>158.2</ele><time>2026-04-20T18:42:25.727Z</time></trkpt><trkpt lat="42.0652166" lon="12.3298655"><ele>158.6</ele><time>2026-04-20T18:42:26.725Z</time></trkpt><trkpt lat="42.0653079" lon="12.3299453"><ele>159.0</ele><time>2026-04-20T18:42:27.727Z</time></trkpt><trkpt lat="42.0653959" lon="12.3300218"><ele>159.4</ele><time>2026-04-20T18:42:28.727Z</time></trkpt><trkpt lat="42.0654829" lon="12.3301024"><ele>159.8</ele><time>2026-04-20T18:42:29.727Z</time></trkpt><trkpt lat="42.0655708" lon="12.3301813"><ele>160.20000000000002</ele><time>2026-04-20T18:42:30.726Z</time></trkpt><trkpt lat="42.0656666" lon="12.3302692"><ele>160.60000000000002</ele><time>2026-04-20T18:42:31.727Z</time></trkpt><trkpt lat="42.0657689" lon="12.3303558"><ele>161.0</ele><time>2026-04-20T18:42:32.726Z</time></trkpt><trkpt lat="42.0658724" lon="12.3304464"><ele>161.33333333333331</ele><time>2026-04-20T18:42:33.726Z</time></trkpt><trkpt lat="42.0659943" lon="12.3305534"><ele>161.66666666666666</ele><time>2026-04-20T18:42:34.726Z</time></trkpt><trkpt lat="42.0661309" lon="12.330673"><ele>162.0</ele><time>2026-04-20T18:42:35.726Z</time></trkpt><trkpt lat="42.0662905" lon="12.330811"><ele>162.0</ele><time>2026-04-20T18:42:36.726Z</time></trkpt><trkpt lat="42.0664528" lon="12.3309652"><ele>162.0</ele><time>2026-04-20T18:42:37.728Z</time></trkpt><trkpt lat="42.0666234" lon="12.3311255"><ele>162.0</ele><time>2026-04-20T18:42:38.727Z</time></trkpt><trkpt lat="42.066784" lon="12.3312885"><ele>161.66666666666666</ele><time>2026-04-20T18:42:39.726Z</time></trkpt><trkpt lat="42.0669417" lon="12.331438"><ele>161.33333333333331</ele><time>2026-04-20T18:42:40.726Z</time></trkpt><trkpt lat="42.0670938" lon="12.3315822"><ele>161.0</ele><time>2026-04-20T18:42:41.727Z</time></trkpt><trkpt lat="42.0672441" lon="12.3317247"><ele>161.0</ele><time>2026-04-20T18:42:42.726Z</time></trkpt><trkpt lat="42.067389" lon="12.3318623"><ele>161.0</ele><time>2026-04-20T18:42:43.727Z</time></trkpt><trkpt lat="42.0675304" lon="12.3319983"><ele>161.0</ele><time>2026-04-20T18:42:44.727Z</time></trkpt><trkpt lat="42.0676712" lon="12.3321263"><ele>161.0</ele><time>2026-04-20T18:42:45.726Z</time></trkpt><trkpt lat="42.0678071" lon="12.3322448"><ele>161.0</ele><time>2026-04-20T18:42:46.726Z</time></trkpt><trkpt lat="42.0679458" lon="12.3323705"><ele>161.0</ele><time>2026-04-20T18:42:47.725Z</time></trkpt><trkpt lat="42.0680769" lon="12.3324919"><ele>161.0</ele><time>2026-04-20T18:42:48.727Z</time></trkpt><trkpt lat="42.0682099" lon="12.3326042"><ele>161.0</ele><time>2026-04-20T18:42:49.726Z</time></trkpt><trkpt lat="42.0683362" lon="12.3327195"><ele>161.0</ele><time>2026-04-20T18:42:50.725Z</time></trkpt><trkpt lat="42.068462" lon="12.3328295"><ele>161.75</ele><time>2026-04-20T18:42:51.727Z</time></trkpt><trkpt lat="42.0685878" lon="12.3329432"><ele>162.5</ele><time>2026-04-20T18:42:52.726Z</time></trkpt><trkpt lat="42.0687113" lon="12.3330549"><ele>163.25</ele><time>2026-04-20T18:42:53.726Z</time></trkpt><trkpt lat="42.0688352" lon="12.333161"><ele>164.0</ele><time>2026-04-20T18:42:54.726Z</time></trkpt><trkpt lat="42.0689456" lon="12.3332633"><ele>164.0</ele><time>2026-04-20T18:42:55.727Z</time></trkpt><trkpt lat="42.0690526" lon="12.3333589"><ele>164.0</ele><time>2026-04-20T18:42:56.726Z</time></trkpt><trkpt lat="42.0691554" lon="12.3334556"><ele>164.0</ele><time>2026-04-20T18:42:57.727Z</time></trkpt><trkpt lat="42.069256" lon="12.3335473"><ele>164.0</ele><time>2026-04-20T18:42:58.726Z</time></trkpt><trkpt lat="42.0693456" lon="12.3336278"><ele>164.39999999999998</ele><time>2026-04-20T18:42:59.725Z</time></trkpt><trkpt lat="42.0694232" lon="12.3337004"><ele>164.8</ele><time>2026-04-20T18:43:00.726Z</time></trkpt><trkpt lat="42.069474" lon="12.3337696"><ele>165.2</ele><time>2026-04-20T18:43:01.726Z</time></trkpt><trkpt lat="42.0695237" lon="12.3338986"><ele>165.60000000000002</ele><time>2026-04-20T18:43:03.726Z</time></trkpt><trkpt lat="42.0695012" lon="12.3340697"><ele>166.0</ele><time>2026-04-20T18:43:05.726Z</time></trkpt><trkpt lat="42.0694744" lon="12.334191"><ele>166.75</ele><time>2026-04-20T18:43:06.726Z</time></trkpt><trkpt lat="42.0694494" lon="12.3343318"><ele>167.5</ele><time>2026-04-20T18:43:07.726Z</time></trkpt><trkpt lat="42.0694242" lon="12.3344795"><ele>168.25</ele><time>2026-04-20T18:43:08.726Z</time></trkpt><trkpt lat="42.0693871" lon="12.3346334"><ele>169.0</ele><time>2026-04-20T18:43:09.726Z</time></trkpt><trkpt lat="42.0693447" lon="12.3347955"><ele>169.5</ele><time>2026-04-20T18:43:10.726Z</time></trkpt><trkpt lat="42.0692955" lon="12.3349497"><ele>170.0</ele><time>2026-04-20T18:43:11.726Z</time></trkpt><trkpt lat="42.0692336" lon="12.3351031"><ele>170.5</ele><time>2026-04-20T18:43:12.726Z</time></trkpt><trkpt lat="42.0691616" lon="12.3352619"><ele>171.0</ele><time>2026-04-20T18:43:13.727Z</time></trkpt><trkpt lat="42.0690927" lon="12.3354331"><ele>171.0</ele><time>2026-04-20T18:43:14.726Z</time></trkpt><trkpt lat="42.0690255" lon="12.3356081"><ele>171.0</ele><time>2026-04-20T18:43:15.726Z</time></trkpt><trkpt lat="42.0689594" lon="12.3357859"><ele>171.0</ele><time>2026-04-20T18:43:16.726Z</time></trkpt><trkpt lat="42.0688979" lon="12.3359525"><ele>171.0</ele><time>2026-04-20T18:43:17.726Z</time></trkpt><trkpt lat="42.0688403" lon="12.3361126"><ele>171.0</ele><time>2026-04-20T18:43:18.726Z</time></trkpt><trkpt lat="42.0687833" lon="12.3362665"><ele>171.0</ele><time>2026-04-20T18:43:19.727Z</time></trkpt><trkpt lat="42.0687217" lon="12.3364125"><ele>171.0</ele><time>2026-04-20T18:43:20.725Z</time></trkpt><trkpt lat="42.0686577" lon="12.3365582"><ele>171.0</ele><time>2026-04-20T18:43:21.726Z</time></trkpt><trkpt lat="42.0685963" lon="12.3366981"><ele>171.0</ele><time>2026-04-20T18:43:22.728Z</time></trkpt><trkpt lat="42.0685313" lon="12.3368424"><ele>171.0</ele><time>2026-04-20T18:43:23.725Z</time></trkpt><trkpt lat="42.0684649" lon="12.3369953"><ele>171.0</ele><time>2026-04-20T18:43:24.726Z</time></trkpt><trkpt lat="42.0684041" lon="12.3371538"><ele>171.0</ele><time>2026-04-20T18:43:25.726Z</time></trkpt><trkpt lat="42.0683422" lon="12.3373195"><ele>170.75</ele><time>2026-04-20T18:43:26.726Z</time></trkpt><trkpt lat="42.0682818" lon="12.3374866"><ele>170.5</ele><time>2026-04-20T18:43:27.726Z</time></trkpt><trkpt lat="42.0682239" lon="12.3376559"><ele>170.25</ele><time>2026-04-20T18:43:28.726Z</time></trkpt><trkpt lat="42.0681621" lon="12.3378286"><ele>170.0</ele><time>2026-04-20T18:43:29.725Z</time></trkpt><trkpt lat="42.0680999" lon="12.3380106"><ele>168.66666666666666</ele><time>2026-04-20T18:43:30.726Z</time></trkpt><trkpt lat="42.0680413" lon="12.3381952"><ele>167.33333333333334</ele><time>2026-04-20T18:43:31.727Z</time></trkpt><trkpt lat="42.0679791" lon="12.338388"><ele>166.0</ele><time>2026-04-20T18:43:32.727Z</time></trkpt><trkpt lat="42.0679119" lon="12.3385833"><ele>166.0</ele><time>2026-04-20T18:43:33.727Z</time></trkpt><trkpt lat="42.0678412" lon="12.3387881"><ele>166.0</ele><time>2026-04-20T18:43:34.726Z</time></trkpt><trkpt lat="42.0677731" lon="12.3389832"><ele>166.0</ele><time>2026-04-20T18:43:35.727Z</time></trkpt><trkpt lat="42.0677092" lon="12.3391772"><ele>166.0</ele><time>2026-04-20T18:43:36.726Z</time></trkpt><trkpt lat="42.0676427" lon="12.3393688"><ele>166.0</ele><time>2026-04-20T18:43:37.727Z</time></trkpt><trkpt lat="42.0675767" lon="12.3395595"><ele>166.0</ele><time>2026-04-20T18:43:38.725Z</time></trkpt><trkpt lat="42.0675063" lon="12.3397482"><ele>164.0</ele><time>2026-04-20T18:43:39.727Z</time></trkpt><trkpt lat="42.0674316" lon="12.3399377"><ele>162.0</ele><time>2026-04-20T18:43:40.726Z</time></trkpt><trkpt lat="42.067354" lon="12.3401275"><ele>160.0</ele><time>2026-04-20T18:43:41.726Z</time></trkpt><trkpt lat="42.0672785" lon="12.3403152"><ele>160.0</ele><time>2026-04-20T18:43:42.726Z</time></trkpt><trkpt lat="42.0672018" lon="12.340496"><ele>160.0</ele><time>2026-04-20T18:43:43.727Z</time></trkpt><trkpt lat="42.0671173" lon="12.3406782"><ele>160.0</ele><time>2026-04-20T18:43:44.727Z</time></trkpt><trkpt lat="42.0670362" lon="12.3408582"><ele>159.66666666666669</ele><time>2026-04-20T18:43:45.726Z</time></trkpt><trkpt lat="42.0669459" lon="12.3410436"><ele>159.33333333333334</ele><time>2026-04-20T18:43:46.726Z</time></trkpt><trkpt lat="42.0668684" lon="12.3412227"><ele>159.0</ele><time>2026-04-20T18:43:47.726Z</time></trkpt><trkpt lat="42.0667935" lon="12.3413885"><ele>159.0</ele><time>2026-04-20T18:43:48.726Z</time></trkpt><trkpt lat="42.066714" lon="12.3415606"><ele>159.0</ele><time>2026-04-20T18:43:49.727Z</time></trkpt><trkpt lat="42.066635" lon="12.3417396"><ele>159.0</ele><time>2026-04-20T18:43:50.726Z</time></trkpt><trkpt lat="42.0665344" lon="12.3419187"><ele>158.0</ele><time>2026-04-20T18:43:51.726Z</time></trkpt><trkpt lat="42.0664555" lon="12.3420953"><ele>157.0</ele><time>2026-04-20T18:43:52.727Z</time></trkpt><trkpt lat="42.0663697" lon="12.3422773"><ele>156.0</ele><time>2026-04-20T18:43:53.726Z</time></trkpt><trkpt lat="42.0662729" lon="12.3424501"><ele>156.0</ele><time>2026-04-20T18:43:54.725Z</time></trkpt><trkpt lat="42.0661733" lon="12.3426198"><ele>156.0</ele><time>2026-04-20T18:43:55.726Z</time></trkpt><trkpt lat="42.0660686" lon="12.3427889"><ele>156.0</ele><time>2026-04-20T18:43:56.726Z</time></trkpt><trkpt lat="42.0659525" lon="12.3429445"><ele>157.33333333333334</ele><time>2026-04-20T18:43:57.726Z</time></trkpt><trkpt lat="42.0658305" lon="12.3430854"><ele>158.66666666666669</ele><time>2026-04-20T18:43:58.727Z</time></trkpt><trkpt lat="42.0657065" lon="12.3432127"><ele>160.0</ele><time>2026-04-20T18:43:59.726Z</time></trkpt><trkpt lat="42.065579" lon="12.3433332"><ele>160.25</ele><time>2026-04-20T18:44:00.726Z</time></trkpt><trkpt lat="42.0654614" lon="12.3434513"><ele>160.5</ele><time>2026-04-20T18:44:01.726Z</time></trkpt><trkpt lat="42.0653521" lon="12.3435749"><ele>160.75</ele><time>2026-04-20T18:44:02.726Z</time></trkpt><trkpt lat="42.065252" lon="12.3437058"><ele>161.0</ele><time>2026-04-20T18:44:03.727Z</time></trkpt><trkpt lat="42.0651636" lon="12.343847"><ele>161.0</ele><time>2026-04-20T18:44:04.726Z</time></trkpt><trkpt lat="42.065085" lon="12.3439996"><ele>161.0</ele><time>2026-04-20T18:44:05.727Z</time></trkpt><trkpt lat="42.0650099" lon="12.3441552"><ele>161.0</ele><time>2026-04-20T18:44:06.727Z</time></trkpt><trkpt lat="42.064928" lon="12.3443124"><ele>161.0</ele><time>2026-04-20T18:44:07.726Z</time></trkpt><trkpt lat="42.064851" lon="12.3444631"><ele>161.0</ele><time>2026-04-20T18:44:08.726Z</time></trkpt><trkpt lat="42.0647706" lon="12.3446112"><ele>161.0</ele><time>2026-04-20T18:44:09.725Z</time></trkpt><trkpt lat="42.064689" lon="12.3447642"><ele>161.0</ele><time>2026-04-20T18:44:10.727Z</time></trkpt><trkpt lat="42.0646103" lon="12.3449123"><ele>161.0</ele><time>2026-04-20T18:44:11.726Z</time></trkpt><trkpt lat="42.0645313" lon="12.3450639"><ele>161.0</ele><time>2026-04-20T18:44:12.727Z</time></trkpt><trkpt lat="42.0644492" lon="12.345215"><ele>161.0</ele><time>2026-04-20T18:44:13.726Z</time></trkpt><trkpt lat="42.0643663" lon="12.3453688"><ele>161.0</ele><time>2026-04-20T18:44:14.727Z</time></trkpt><trkpt lat="42.0642847" lon="12.3455227"><ele>161.0</ele><time>2026-04-20T18:44:15.726Z</time></trkpt><trkpt lat="42.0641979" lon="12.3456821"><ele>158.33333333333331</ele><time>2026-04-20T18:44:16.727Z</time></trkpt><trkpt lat="42.0641017" lon="12.3458446"><ele>155.66666666666666</ele><time>2026-04-20T18:44:17.726Z</time></trkpt><trkpt lat="42.0640094" lon="12.3460148"><ele>153.0</ele><time>2026-04-20T18:44:18.727Z</time></trkpt><trkpt lat="42.0639123" lon="12.3461743"><ele>153.0</ele><time>2026-04-20T18:44:19.726Z</time></trkpt><trkpt lat="42.0638138" lon="12.3463467"><ele>153.0</ele><time>2026-04-20T18:44:20.726Z</time></trkpt><trkpt lat="42.0637136" lon="12.3465141"><ele>153.0</ele><time>2026-04-20T18:44:21.727Z</time></trkpt><trkpt lat="42.0636169" lon="12.3466808"><ele>153.0</ele><time>2026-04-20T18:44:22.726Z</time></trkpt><trkpt lat="42.0635286" lon="12.3468425"><ele>153.0</ele><time>2026-04-20T18:44:23.727Z</time></trkpt><trkpt lat="42.0634577" lon="12.3470149"><ele>153.0</ele><time>2026-04-20T18:44:24.726Z</time></trkpt><trkpt lat="42.063401" lon="12.3471954"><ele>153.0</ele><time>2026-04-20T18:44:25.726Z</time></trkpt><trkpt lat="42.0633453" lon="12.3473812"><ele>153.0</ele><time>2026-04-20T18:44:26.726Z</time></trkpt><trkpt lat="42.0632891" lon="12.3475722"><ele>153.0</ele><time>2026-04-20T18:44:27.727Z</time></trkpt><trkpt lat="42.0632345" lon="12.3477683"><ele>153.0</ele><time>2026-04-20T18:44:28.726Z</time></trkpt><trkpt lat="42.0631783" lon="12.3479635"><ele>154.66666666666666</ele><time>2026-04-20T18:44:29.727Z</time></trkpt><trkpt lat="42.0631254" lon="12.3481702"><ele>156.33333333333331</ele><time>2026-04-20T18:44:30.728Z</time></trkpt><trkpt lat="42.0630671" lon="12.3483813"><ele>158.0</ele><time>2026-04-20T18:44:31.727Z</time></trkpt><trkpt lat="42.0630101" lon="12.3485975"><ele>158.0</ele><time>2026-04-20T18:44:32.726Z</time></trkpt><trkpt lat="42.0629557" lon="12.3488295"><ele>158.0</ele><time>2026-04-20T18:44:33.725Z</time></trkpt><trkpt lat="42.0629102" lon="12.3490652"><ele>158.0</ele><time>2026-04-20T18:44:34.728Z</time></trkpt><trkpt lat="42.062867" lon="12.3493046"><ele>158.0</ele><time>2026-04-20T18:44:35.726Z</time></trkpt><trkpt lat="42.0628354" lon="12.3495518"><ele>158.0</ele><time>2026-04-20T18:44:36.726Z</time></trkpt><trkpt lat="42.0628029" lon="12.3498028"><ele>158.0</ele><time>2026-04-20T18:44:37.726Z</time></trkpt><trkpt lat="42.0627815" lon="12.3500568"><ele>158.0</ele><time>2026-04-20T18:44:38.727Z</time></trkpt><trkpt lat="42.0627757" lon="12.3503284"><ele>158.0</ele><time>2026-04-20T18:44:39.727Z</time></trkpt><trkpt lat="42.0627662" lon="12.3505968"><ele>158.0</ele><time>2026-04-20T18:44:40.727Z</time></trkpt><trkpt lat="42.0627573" lon="12.3508669"><ele>158.0</ele><time>2026-04-20T18:44:41.726Z</time></trkpt><trkpt lat="42.062751" lon="12.3511337"><ele>158.0</ele><time>2026-04-20T18:44:42.726Z</time></trkpt><trkpt lat="42.0627468" lon="12.3514015"><ele>158.0</ele><time>2026-04-20T18:44:43.727Z</time></trkpt><trkpt lat="42.0627379" lon="12.3516728"><ele>158.33333333333331</ele><time>2026-04-20T18:44:44.727Z</time></trkpt><trkpt lat="42.0627339" lon="12.3519387"><ele>158.66666666666666</ele><time>2026-04-20T18:44:45.727Z</time></trkpt><trkpt lat="42.0627274" lon="12.3522019"><ele>159.0</ele><time>2026-04-20T18:44:46.726Z</time></trkpt><trkpt lat="42.0627271" lon="12.3524631"><ele>160.0</ele><time>2026-04-20T18:44:47.725Z</time></trkpt><trkpt lat="42.0627288" lon="12.3527239"><ele>161.0</ele><time>2026-04-20T18:44:48.726Z</time></trkpt><trkpt lat="42.0627304" lon="12.3529792"><ele>162.0</ele><time>2026-04-20T18:44:49.727Z</time></trkpt><trkpt lat="42.0627412" lon="12.353231"><ele>162.0</ele><time>2026-04-20T18:44:50.726Z</time></trkpt><trkpt lat="42.0627529" lon="12.3534904"><ele>162.0</ele><time>2026-04-20T18:44:51.726Z</time></trkpt><trkpt lat="42.0627692" lon="12.3537511"><ele>162.0</ele><time>2026-04-20T18:44:52.727Z</time></trkpt><trkpt lat="42.062789" lon="12.3540138"><ele>161.33333333333334</ele><time>2026-04-20T18:44:53.726Z</time></trkpt><trkpt lat="42.0628074" lon="12.3542787"><ele>160.66666666666669</ele><time>2026-04-20T18:44:54.726Z</time></trkpt><trkpt lat="42.0628222" lon="12.354547"><ele>160.0</ele><time>2026-04-20T18:44:55.726Z</time></trkpt><trkpt lat="42.062843" lon="12.3548144"><ele>160.0</ele><time>2026-04-20T18:44:56.727Z</time></trkpt><trkpt lat="42.0628605" lon="12.3550865"><ele>160.0</ele><time>2026-04-20T18:44:57.726Z</time></trkpt><trkpt lat="42.0628804" lon="12.3553514"><ele>160.0</ele><time>2026-04-20T18:44:58.725Z</time></trkpt><trkpt lat="42.0628962" lon="12.3556138"><ele>160.66666666666669</ele><time>2026-04-20T18:44:59.726Z</time></trkpt><trkpt lat="42.0629113" lon="12.3558745"><ele>161.33333333333334</ele><time>2026-04-20T18:45:00.726Z</time></trkpt><trkpt lat="42.0629317" lon="12.3561306"><ele>162.0</ele><time>2026-04-20T18:45:01.726Z</time></trkpt><trkpt lat="42.0629451" lon="12.3563918"><ele>162.0</ele><time>2026-04-20T18:45:02.726Z</time></trkpt><trkpt lat="42.0629607" lon="12.356638"><ele>162.0</ele><time>2026-04-20T18:45:03.727Z</time></trkpt><trkpt lat="42.0629807" lon="12.3568838"><ele>162.0</ele><time>2026-04-20T18:45:04.726Z</time></trkpt><trkpt lat="42.0629952" lon="12.3571281"><ele>162.66666666666666</ele><time>2026-04-20T18:45:05.726Z</time></trkpt><trkpt lat="42.0630076" lon="12.3573661"><ele>163.33333333333331</ele><time>2026-04-20T18:45:06.726Z</time></trkpt><trkpt lat="42.0630109" lon="12.3576008"><ele>164.0</ele><time>2026-04-20T18:45:07.726Z</time></trkpt><trkpt lat="42.0629999" lon="12.3578392"><ele>163.0</ele><time>2026-04-20T18:45:08.726Z</time></trkpt><trkpt lat="42.0629722" lon="12.3580769"><ele>162.0</ele><time>2026-04-20T18:45:09.726Z</time></trkpt><trkpt lat="42.0629359" lon="12.3583138"><ele>161.0</ele><time>2026-04-20T18:45:10.727Z</time></trkpt><trkpt lat="42.0628946" lon="12.3585562"><ele>161.0</ele><time>2026-04-20T18:45:11.725Z</time></trkpt><trkpt lat="42.0628505" lon="12.3588011"><ele>161.0</ele><time>2026-04-20T18:45:12.727Z</time></trkpt><trkpt lat="42.0628096" lon="12.3590464"><ele>161.0</ele><time>2026-04-20T18:45:13.726Z</time></trkpt><trkpt lat="42.0627648" lon="12.3592921"><ele>160.66666666666666</ele><time>2026-04-20T18:45:14.725Z</time></trkpt><trkpt lat="42.0627186" lon="12.3595315"><ele>160.33333333333334</ele><time>2026-04-20T18:45:15.726Z</time></trkpt><trkpt lat="42.0626758" lon="12.3597669"><ele>160.0</ele><time>2026-04-20T18:45:16.726Z</time></trkpt><trkpt lat="42.0626341" lon="12.35999"><ele>159.33333333333334</ele><time>2026-04-20T18:45:17.726Z</time></trkpt><trkpt lat="42.0625953" lon="12.3602062"><ele>158.66666666666666</ele><time>2026-04-20T18:45:18.726Z</time></trkpt><trkpt lat="42.0625506" lon="12.3604146"><ele>158.0</ele><time>2026-04-20T18:45:19.727Z</time></trkpt><trkpt lat="42.0624999" lon="12.3606174"><ele>157.33333333333331</ele><time>2026-04-20T18:45:20.727Z</time></trkpt><trkpt lat="42.0624344" lon="12.3608169"><ele>156.66666666666666</ele><time>2026-04-20T18:45:21.726Z</time></trkpt><trkpt lat="42.0623588" lon="12.3610046"><ele>156.0</ele><time>2026-04-20T18:45:22.725Z</time></trkpt><trkpt lat="42.0622676" lon="12.3611939"><ele>157.0</ele><time>2026-04-20T18:45:23.727Z</time></trkpt><trkpt lat="42.0621713" lon="12.3613791"><ele>158.0</ele><time>2026-04-20T18:45:24.726Z</time></trkpt><trkpt lat="42.0620676" lon="12.3615626"><ele>159.0</ele><time>2026-04-20T18:45:25.725Z</time></trkpt><trkpt lat="42.0619663" lon="12.3617419"><ele>159.0</ele><time>2026-04-20T18:45:26.726Z</time></trkpt><trkpt lat="42.0618612" lon="12.3619234"><ele>159.0</ele><time>2026-04-20T18:45:27.726Z</time></trkpt><trkpt lat="42.0617514" lon="12.3620926"><ele>159.0</ele><time>2026-04-20T18:45:28.726Z</time></trkpt><trkpt lat="42.0616319" lon="12.3622474"><ele>158.33333333333334</ele><time>2026-04-20T18:45:29.727Z</time></trkpt><trkpt lat="42.0615004" lon="12.3623902"><ele>157.66666666666669</ele><time>2026-04-20T18:45:30.726Z</time></trkpt><trkpt lat="42.0613687" lon="12.3625274"><ele>157.0</ele><time>2026-04-20T18:45:31.727Z</time></trkpt><trkpt lat="42.0612244" lon="12.3626657"><ele>157.0</ele><time>2026-04-20T18:45:32.726Z</time></trkpt><trkpt lat="42.0610873" lon="12.3628049"><ele>157.0</ele><time>2026-04-20T18:45:33.727Z</time></trkpt><trkpt lat="42.0609506" lon="12.3629468"><ele>157.0</ele><time>2026-04-20T18:45:34.726Z</time></trkpt><trkpt lat="42.0608128" lon="12.3630885"><ele>156.33333333333334</ele><time>2026-04-20T18:45:35.726Z</time></trkpt><trkpt lat="42.0606791" lon="12.3632303"><ele>155.66666666666666</ele><time>2026-04-20T18:45:36.727Z</time></trkpt><trkpt lat="42.0605379" lon="12.3633665"><ele>155.0</ele><time>2026-04-20T18:45:37.726Z</time></trkpt><trkpt lat="42.0604071" lon="12.3635041"><ele>155.0</ele><time>2026-04-20T18:45:38.726Z</time></trkpt><trkpt lat="42.0602782" lon="12.3636357"><ele>155.0</ele><time>2026-04-20T18:45:39.725Z</time></trkpt><trkpt lat="42.0601474" lon="12.3637641"><ele>155.0</ele><time>2026-04-20T18:45:40.726Z</time></trkpt><trkpt lat="42.0600156" lon="12.3638956"><ele>154.0</ele><time>2026-04-20T18:45:41.726Z</time></trkpt><trkpt lat="42.0598867" lon="12.364025"><ele>153.0</ele><time>2026-04-20T18:45:42.726Z</time></trkpt><trkpt lat="42.0597553" lon="12.3641543"><ele>152.0</ele><time>2026-04-20T18:45:43.727Z</time></trkpt><trkpt lat="42.0596241" lon="12.3642821"><ele>152.0</ele><time>2026-04-20T18:45:44.726Z</time></trkpt><trkpt lat="42.0594917" lon="12.3644134"><ele>152.0</ele><time>2026-04-20T18:45:45.726Z</time></trkpt><trkpt lat="42.0593635" lon="12.3645546"><ele>152.0</ele><time>2026-04-20T18:45:46.726Z</time></trkpt><trkpt lat="42.0592366" lon="12.3646954"><ele>152.0</ele><time>2026-04-20T18:45:47.727Z</time></trkpt><trkpt lat="42.0591133" lon="12.3648434"><ele>152.0</ele><time>2026-04-20T18:45:48.726Z</time></trkpt><trkpt lat="42.0589958" lon="12.3650039"><ele>152.0</ele><time>2026-04-20T18:45:49.727Z</time></trkpt><trkpt lat="42.0588775" lon="12.365167"><ele>152.0</ele><time>2026-04-20T18:45:50.727Z</time></trkpt><trkpt lat="42.0587564" lon="12.3653364"><ele>152.0</ele><time>2026-04-20T18:45:51.726Z</time></trkpt><trkpt lat="42.0586345" lon="12.3655001"><ele>152.0</ele><time>2026-04-20T18:45:52.727Z</time></trkpt><trkpt lat="42.0585164" lon="12.3656704"><ele>152.0</ele><time>2026-04-20T18:45:53.726Z</time></trkpt><trkpt lat="42.0583907" lon="12.3658424"><ele>152.0</ele><time>2026-04-20T18:45:54.725Z</time></trkpt><trkpt lat="42.0582721" lon="12.3660247"><ele>152.0</ele><time>2026-04-20T18:45:55.726Z</time></trkpt><trkpt lat="42.0581531" lon="12.366205"><ele>150.66666666666666</ele><time>2026-04-20T18:45:56.727Z</time></trkpt><trkpt lat="42.0580338" lon="12.3663828"><ele>149.33333333333334</ele><time>2026-04-20T18:45:57.726Z</time></trkpt><trkpt lat="42.0579128" lon="12.3665587"><ele>148.0</ele><time>2026-04-20T18:45:58.726Z</time></trkpt><trkpt lat="42.057785" lon="12.3667388"><ele>148.0</ele><time>2026-04-20T18:45:59.727Z</time></trkpt><trkpt lat="42.0576643" lon="12.3669204"><ele>148.0</ele><time>2026-04-20T18:46:00.726Z</time></trkpt><trkpt lat="42.0575379" lon="12.3671"><ele>148.0</ele><time>2026-04-20T18:46:01.727Z</time></trkpt><trkpt lat="42.0574149" lon="12.3672784"><ele>148.66666666666669</ele><time>2026-04-20T18:46:02.725Z</time></trkpt><trkpt lat="42.0572805" lon="12.3674593"><ele>149.33333333333334</ele><time>2026-04-20T18:46:03.727Z</time></trkpt><trkpt lat="42.0571538" lon="12.3676422"><ele>150.0</ele><time>2026-04-20T18:46:04.727Z</time></trkpt><trkpt lat="42.0570282" lon="12.3678226"><ele>150.0</ele><time>2026-04-20T18:46:05.726Z</time></trkpt><trkpt lat="42.0569044" lon="12.3680085"><ele>150.0</ele><time>2026-04-20T18:46:06.726Z</time></trkpt><trkpt lat="42.0567814" lon="12.3681988"><ele>150.0</ele><time>2026-04-20T18:46:07.726Z</time></trkpt><trkpt lat="42.056663" lon="12.3683789"><ele>150.0</ele><time>2026-04-20T18:46:08.725Z</time></trkpt><trkpt lat="42.0565523" lon="12.3685574"><ele>150.0</ele><time>2026-04-20T18:46:09.727Z</time></trkpt><trkpt lat="42.056447" lon="12.3687438"><ele>150.0</ele><time>2026-04-20T18:46:10.727Z</time></trkpt><trkpt lat="42.0563489" lon="12.368929"><ele>150.0</ele><time>2026-04-20T18:46:11.726Z</time></trkpt><trkpt lat="42.0562494" lon="12.3691164"><ele>150.0</ele><time>2026-04-20T18:46:12.726Z</time></trkpt><trkpt lat="42.0561536" lon="12.3693057"><ele>150.0</ele><time>2026-04-20T18:46:13.727Z</time></trkpt><trkpt lat="42.0560548" lon="12.3694982"><ele>150.0</ele><time>2026-04-20T18:46:14.726Z</time></trkpt><trkpt lat="42.0559568" lon="12.369692"><ele>150.0</ele><time>2026-04-20T18:46:15.728Z</time></trkpt><trkpt lat="42.0558609" lon="12.3698867"><ele>150.0</ele><time>2026-04-20T18:46:16.726Z</time></trkpt><trkpt lat="42.0557642" lon="12.3700734"><ele>150.0</ele><time>2026-04-20T18:46:17.726Z</time></trkpt><trkpt lat="42.0556669" lon="12.3702613"><ele>150.0</ele><time>2026-04-20T18:46:18.727Z</time></trkpt><trkpt lat="42.0555692" lon="12.370448"><ele>150.0</ele><time>2026-04-20T18:46:19.727Z</time></trkpt><trkpt lat="42.055474" lon="12.3706381"><ele>150.0</ele><time>2026-04-20T18:46:20.725Z</time></trkpt><trkpt lat="42.0553795" lon="12.3708262"><ele>150.0</ele><time>2026-04-20T18:46:21.727Z</time></trkpt><trkpt lat="42.0552907" lon="12.371004"><ele>150.0</ele><time>2026-04-20T18:46:22.726Z</time></trkpt><trkpt lat="42.0552096" lon="12.3711727"><ele>150.0</ele><time>2026-04-20T18:46:23.726Z</time></trkpt><trkpt lat="42.0551297" lon="12.3713331"><ele>150.0</ele><time>2026-04-20T18:46:24.727Z</time></trkpt><trkpt lat="42.055052" lon="12.3714908"><ele>150.0</ele><time>2026-04-20T18:46:25.727Z</time></trkpt><trkpt lat="42.0549804" lon="12.3716398"><ele>150.0</ele><time>2026-04-20T18:46:26.727Z</time></trkpt><trkpt lat="42.0549098" lon="12.3717775"><ele>150.0</ele><time>2026-04-20T18:46:27.726Z</time></trkpt><trkpt lat="42.0548431" lon="12.3719094"><ele>150.0</ele><time>2026-04-20T18:46:28.727Z</time></trkpt><trkpt lat="42.0547758" lon="12.372041"><ele>150.0</ele><time>2026-04-20T18:46:29.727Z</time></trkpt><trkpt lat="42.0547068" lon="12.3721759"><ele>150.0</ele><time>2026-04-20T18:46:30.726Z</time></trkpt><trkpt lat="42.0546331" lon="12.3723069"><ele>150.0</ele><time>2026-04-20T18:46:31.726Z</time></trkpt><trkpt lat="42.0545562" lon="12.3724252"><ele>150.0</ele><time>2026-04-20T18:46:32.727Z</time></trkpt><trkpt lat="42.0544833" lon="12.3725343"><ele>150.0</ele><time>2026-04-20T18:46:33.727Z</time></trkpt><trkpt lat="42.054409" lon="12.3726279"><ele>150.0</ele><time>2026-04-20T18:46:34.726Z</time></trkpt><trkpt lat="42.054332" lon="12.3727241"><ele>150.0</ele><time>2026-04-20T18:46:35.726Z</time></trkpt><trkpt lat="42.0542359" lon="12.3728152"><ele>150.0</ele><time>2026-04-20T18:46:36.726Z</time></trkpt><trkpt lat="42.0541255" lon="12.3729055"><ele>150.0</ele><time>2026-04-20T18:46:37.726Z</time></trkpt><trkpt lat="42.0540053" lon="12.3730025"><ele>150.0</ele><time>2026-04-20T18:46:38.726Z</time></trkpt><trkpt lat="42.0538799" lon="12.3731073"><ele>150.0</ele><time>2026-04-20T18:46:39.726Z</time></trkpt><trkpt lat="42.0537506" lon="12.3732228"><ele>150.66666666666666</ele><time>2026-04-20T18:46:40.727Z</time></trkpt><trkpt lat="42.0536322" lon="12.3733586"><ele>151.33333333333331</ele><time>2026-04-20T18:46:41.726Z</time></trkpt><trkpt lat="42.0535211" lon="12.3735093"><ele>152.0</ele><time>2026-04-20T18:46:42.726Z</time></trkpt><trkpt lat="42.0534233" lon="12.373673"><ele>152.0</ele><time>2026-04-20T18:46:43.727Z</time></trkpt><trkpt lat="42.0533354" lon="12.3738446"><ele>152.0</ele><time>2026-04-20T18:46:44.726Z</time></trkpt><trkpt lat="42.053248" lon="12.3740321"><ele>152.0</ele><time>2026-04-20T18:46:45.726Z</time></trkpt><trkpt lat="42.0531492" lon="12.3742211"><ele>151.0</ele><time>2026-04-20T18:46:46.727Z</time></trkpt><trkpt lat="42.0530533" lon="12.3744092"><ele>150.0</ele><time>2026-04-20T18:46:47.726Z</time></trkpt><trkpt lat="42.0529458" lon="12.3745991"><ele>149.0</ele><time>2026-04-20T18:46:48.726Z</time></trkpt><trkpt lat="42.0528402" lon="12.3747894"><ele>148.0</ele><time>2026-04-20T18:46:49.726Z</time></trkpt><trkpt lat="42.0527364" lon="12.374992"><ele>147.0</ele><time>2026-04-20T18:46:50.726Z</time></trkpt><trkpt lat="42.0526317" lon="12.3751948"><ele>146.0</ele><time>2026-04-20T18:46:51.726Z</time></trkpt><trkpt lat="42.0525251" lon="12.3753982"><ele>146.33333333333331</ele><time>2026-04-20T18:46:52.726Z</time></trkpt><trkpt lat="42.0524252" lon="12.3755989"><ele>146.66666666666666</ele><time>2026-04-20T18:46:53.725Z</time></trkpt><trkpt lat="42.0523291" lon="12.3758043"><ele>147.0</ele><time>2026-04-20T18:46:54.726Z</time></trkpt><trkpt lat="42.0522503" lon="12.3760074"><ele>147.0</ele><time>2026-04-20T18:46:55.727Z</time></trkpt><trkpt lat="42.0521766" lon="12.3762161"><ele>147.0</ele><time>2026-04-20T18:46:56.727Z</time></trkpt><trkpt lat="42.0520973" lon="12.3764335"><ele>147.0</ele><time>2026-04-20T18:46:57.726Z</time></trkpt><trkpt lat="42.0520223" lon="12.3766515"><ele>146.66666666666666</ele><time>2026-04-20T18:46:58.726Z</time></trkpt><trkpt lat="42.0519379" lon="12.3768749"><ele>146.33333333333331</ele><time>2026-04-20T18:46:59.727Z</time></trkpt><trkpt lat="42.0518578" lon="12.3771069"><ele>146.0</ele><time>2026-04-20T18:47:00.726Z</time></trkpt><trkpt lat="42.0517747" lon="12.3773436"><ele>145.33333333333331</ele><time>2026-04-20T18:47:01.725Z</time></trkpt><trkpt lat="42.0516897" lon="12.3775851"><ele>144.66666666666666</ele><time>2026-04-20T18:47:02.728Z</time></trkpt><trkpt lat="42.0516058" lon="12.3778195"><ele>144.0</ele><time>2026-04-20T18:47:03.726Z</time></trkpt><trkpt lat="42.0515221" lon="12.378051"><ele>142.33333333333334</ele><time>2026-04-20T18:47:04.726Z</time></trkpt><trkpt lat="42.0514405" lon="12.3782784"><ele>140.66666666666669</ele><time>2026-04-20T18:47:05.726Z</time></trkpt><trkpt lat="42.0513617" lon="12.3784989"><ele>139.0</ele><time>2026-04-20T18:47:06.727Z</time></trkpt><trkpt lat="42.0512827" lon="12.3787233"><ele>139.0</ele><time>2026-04-20T18:47:07.727Z</time></trkpt><trkpt lat="42.0512" lon="12.3789452"><ele>139.0</ele><time>2026-04-20T18:47:08.728Z</time></trkpt><trkpt lat="42.0511128" lon="12.3791676"><ele>139.0</ele><time>2026-04-20T18:47:09.726Z</time></trkpt><trkpt lat="42.0510122" lon="12.3793951"><ele>139.0</ele><time>2026-04-20T18:47:10.725Z</time></trkpt><trkpt lat="42.0508951" lon="12.3796344"><ele>139.0</ele><time>2026-04-20T18:47:11.727Z</time></trkpt><trkpt lat="42.0507734" lon="12.3798795"><ele>139.0</ele><time>2026-04-20T18:47:12.726Z</time></trkpt><trkpt lat="42.0506444" lon="12.3801337"><ele>139.0</ele><time>2026-04-20T18:47:13.725Z</time></trkpt><trkpt lat="42.0505177" lon="12.3803899"><ele>139.0</ele><time>2026-04-20T18:47:14.726Z</time></trkpt><trkpt lat="42.0503875" lon="12.3806418"><ele>139.5</ele><time>2026-04-20T18:47:15.726Z</time></trkpt><trkpt lat="42.0502626" lon="12.3809005"><ele>140.0</ele><time>2026-04-20T18:47:16.727Z</time></trkpt><trkpt lat="42.0501376" lon="12.3811566"><ele>139.66666666666666</ele><time>2026-04-20T18:47:17.727Z</time></trkpt><trkpt lat="42.0500092" lon="12.3813953"><ele>139.33333333333334</ele><time>2026-04-20T18:47:18.726Z</time></trkpt><trkpt lat="42.0498847" lon="12.3816339"><ele>139.0</ele><time>2026-04-20T18:47:19.727Z</time></trkpt><trkpt lat="42.0497566" lon="12.3818713"><ele>139.0</ele><time>2026-04-20T18:47:20.726Z</time></trkpt><trkpt lat="42.0496303" lon="12.3821073"><ele>139.0</ele><time>2026-04-20T18:47:21.727Z</time></trkpt><trkpt lat="42.0495104" lon="12.3823453"><ele>139.0</ele><time>2026-04-20T18:47:22.726Z</time></trkpt><trkpt lat="42.0493892" lon="12.3825871"><ele>134.33333333333334</ele><time>2026-04-20T18:47:23.726Z</time></trkpt><trkpt lat="42.049271" lon="12.382828"><ele>129.66666666666666</ele><time>2026-04-20T18:47:24.727Z</time></trkpt><trkpt lat="42.0491499" lon="12.3830747"><ele>125.0</ele><time>2026-04-20T18:47:25.727Z</time></trkpt><trkpt lat="42.0490311" lon="12.3833218"><ele>121.0</ele><time>2026-04-20T18:47:26.727Z</time></trkpt><trkpt lat="42.0489079" lon="12.3835772"><ele>117.0</ele><time>2026-04-20T18:47:27.726Z</time></trkpt><trkpt lat="42.048791" lon="12.3838359"><ele>111.5</ele><time>2026-04-20T18:47:28.726Z</time></trkpt><trkpt lat="42.0486756" lon="12.3841032"><ele>106.0</ele><time>2026-04-20T18:47:29.727Z</time></trkpt><trkpt lat="42.0485625" lon="12.3843706"><ele>106.0</ele><time>2026-04-20T18:47:30.727Z</time></trkpt><trkpt lat="42.0484509" lon="12.3846378"><ele>106.0</ele><time>2026-04-20T18:47:31.727Z</time></trkpt><trkpt lat="42.0483435" lon="12.3849157"><ele>106.0</ele><time>2026-04-20T18:47:32.726Z</time></trkpt><trkpt lat="42.0482317" lon="12.3851939"><ele>106.0</ele><time>2026-04-20T18:47:33.726Z</time></trkpt><trkpt lat="42.048126" lon="12.3854746"><ele>106.0</ele><time>2026-04-20T18:47:34.728Z</time></trkpt><trkpt lat="42.0480262" lon="12.3857539"><ele>106.0</ele><time>2026-04-20T18:47:35.727Z</time></trkpt><trkpt lat="42.0479269" lon="12.3860364"><ele>106.0</ele><time>2026-04-20T18:47:36.727Z</time></trkpt><trkpt lat="42.047832" lon="12.386321"><ele>106.0</ele><time>2026-04-20T18:47:37.726Z</time></trkpt><trkpt lat="42.0477425" lon="12.3866094"><ele>106.0</ele><time>2026-04-20T18:47:38.726Z</time></trkpt><trkpt lat="42.047652" lon="12.3868989"><ele>106.0</ele><time>2026-04-20T18:47:39.727Z</time></trkpt><trkpt lat="42.0475637" lon="12.3871916"><ele>105.0</ele><time>2026-04-20T18:47:40.726Z</time></trkpt><trkpt lat="42.0474723" lon="12.3874906"><ele>104.0</ele><time>2026-04-20T18:47:41.726Z</time></trkpt><trkpt lat="42.0473829" lon="12.387797"><ele>104.5</ele><time>2026-04-20T18:47:42.727Z</time></trkpt><trkpt lat="42.0473013" lon="12.3881069"><ele>105.0</ele><time>2026-04-20T18:47:43.727Z</time></trkpt><trkpt lat="42.047221" lon="12.3884206"><ele>105.0</ele><time>2026-04-20T18:47:44.726Z</time></trkpt><trkpt lat="42.0471382" lon="12.3887397"><ele>105.0</ele><time>2026-04-20T18:47:45.726Z</time></trkpt><trkpt lat="42.0470586" lon="12.38906"><ele>107.0</ele><time>2026-04-20T18:47:46.726Z</time></trkpt><trkpt lat="42.0469713" lon="12.3893839"><ele>109.0</ele><time>2026-04-20T18:47:47.727Z</time></trkpt><trkpt lat="42.0468878" lon="12.3897025"><ele>111.0</ele><time>2026-04-20T18:47:48.726Z</time></trkpt><trkpt lat="42.0468023" lon="12.3900262"><ele>113.0</ele><time>2026-04-20T18:47:49.727Z</time></trkpt><trkpt lat="42.0467163" lon="12.3903554"><ele>116.0</ele><time>2026-04-20T18:47:50.725Z</time></trkpt><trkpt lat="42.0466325" lon="12.3906811"><ele>119.0</ele><time>2026-04-20T18:47:51.727Z</time></trkpt><trkpt lat="42.0465557" lon="12.3910073"><ele>119.5</ele><time>2026-04-20T18:47:52.726Z</time></trkpt><trkpt lat="42.0464795" lon="12.3913347"><ele>120.0</ele><time>2026-04-20T18:47:53.728Z</time></trkpt><trkpt lat="42.0464044" lon="12.3916581"><ele>123.5</ele><time>2026-04-20T18:47:54.726Z</time></trkpt><trkpt lat="42.0463298" lon="12.3919879"><ele>127.0</ele><time>2026-04-20T18:47:55.726Z</time></trkpt><trkpt lat="42.0462582" lon="12.3923169"><ele>128.5</ele><time>2026-04-20T18:47:56.725Z</time></trkpt><trkpt lat="42.046188" lon="12.392642"><ele>130.0</ele><time>2026-04-20T18:47:57.726Z</time></trkpt><trkpt lat="42.046113" lon="12.3929624"><ele>129.0</ele><time>2026-04-20T18:47:58.727Z</time></trkpt><trkpt lat="42.0460357" lon="12.393286"><ele>128.0</ele><time>2026-04-20T18:47:59.727Z</time></trkpt><trkpt lat="42.0459594" lon="12.3936044"><ele>126.5</ele><time>2026-04-20T18:48:00.727Z</time></trkpt><trkpt lat="42.04588" lon="12.3939264"><ele>125.0</ele><time>2026-04-20T18:48:01.728Z</time></trkpt><trkpt lat="42.0457895" lon="12.3942392"><ele>125.0</ele><time>2026-04-20T18:48:02.726Z</time></trkpt><trkpt lat="42.0457014" lon="12.3945568"><ele>125.0</ele><time>2026-04-20T18:48:03.726Z</time></trkpt><trkpt lat="42.0456151" lon="12.3948687"><ele>125.0</ele><time>2026-04-20T18:48:04.726Z</time></trkpt><trkpt lat="42.0455236" lon="12.3951757"><ele>125.0</ele><time>2026-04-20T18:48:05.726Z</time></trkpt><trkpt lat="42.0454347" lon="12.3954798"><ele>124.5</ele><time>2026-04-20T18:48:06.727Z</time></trkpt><trkpt lat="42.0453516" lon="12.3957733"><ele>124.0</ele><time>2026-04-20T18:48:07.727Z</time></trkpt><trkpt lat="42.0452733" lon="12.3960658"><ele>123.5</ele><time>2026-04-20T18:48:08.727Z</time></trkpt><trkpt lat="42.045198" lon="12.3963642"><ele>123.0</ele><time>2026-04-20T18:48:09.725Z</time></trkpt><trkpt lat="42.0451289" lon="12.3966667"><ele>123.0</ele><time>2026-04-20T18:48:10.727Z</time></trkpt><trkpt lat="42.0450689" lon="12.3969593"><ele>123.0</ele><time>2026-04-20T18:48:11.728Z</time></trkpt><trkpt lat="42.0450148" lon="12.3972568"><ele>122.5</ele><time>2026-04-20T18:48:12.726Z</time></trkpt><trkpt lat="42.0449622" lon="12.3975554"><ele>122.0</ele><time>2026-04-20T18:48:13.726Z</time></trkpt><trkpt lat="42.0449101" lon="12.3978552"><ele>122.0</ele><time>2026-04-20T18:48:14.726Z</time></trkpt><trkpt lat="42.044868" lon="12.3981585"><ele>122.0</ele><time>2026-04-20T18:48:15.727Z</time></trkpt><trkpt lat="42.0448319" lon="12.3984703"><ele>122.0</ele><time>2026-04-20T18:48:16.726Z</time></trkpt><trkpt lat="42.0448007" lon="12.3987785"><ele>122.0</ele><time>2026-04-20T18:48:17.726Z</time></trkpt><trkpt lat="42.0447747" lon="12.3990992"><ele>122.0</ele><time>2026-04-20T18:48:18.727Z</time></trkpt><trkpt lat="42.0447558" lon="12.3994191"><ele>122.0</ele><time>2026-04-20T18:48:19.726Z</time></trkpt><trkpt lat="42.0447397" lon="12.3997437"><ele>123.0</ele><time>2026-04-20T18:48:20.726Z</time></trkpt><trkpt lat="42.0447273" lon="12.4000726"><ele>124.0</ele><time>2026-04-20T18:48:21.727Z</time></trkpt><trkpt lat="42.0447244" lon="12.4004052"><ele>123.5</ele><time>2026-04-20T18:48:22.726Z</time></trkpt><trkpt lat="42.0447203" lon="12.4007361"><ele>123.0</ele><time>2026-04-20T18:48:23.727Z</time></trkpt><trkpt lat="42.0447177" lon="12.4010697"><ele>120.0</ele><time>2026-04-20T18:48:24.726Z</time></trkpt><trkpt lat="42.0447144" lon="12.4014037"><ele>117.0</ele><time>2026-04-20T18:48:25.727Z</time></trkpt><trkpt lat="42.044717" lon="12.4017409"><ele>117.0</ele><time>2026-04-20T18:48:26.726Z</time></trkpt><trkpt lat="42.0447158" lon="12.4020702"><ele>117.0</ele><time>2026-04-20T18:48:27.727Z</time></trkpt><trkpt lat="42.0447175" lon="12.4024011"><ele>114.0</ele><time>2026-04-20T18:48:28.728Z</time></trkpt><trkpt lat="42.044718" lon="12.4027321"><ele>111.0</ele><time>2026-04-20T18:48:29.726Z</time></trkpt><trkpt lat="42.0447132" lon="12.403061"><ele>110.5</ele><time>2026-04-20T18:48:30.728Z</time></trkpt><trkpt lat="42.0447035" lon="12.4033869"><ele>110.0</ele><time>2026-04-20T18:48:31.726Z</time></trkpt><trkpt lat="42.0446902" lon="12.4037142"><ele>113.5</ele><time>2026-04-20T18:48:32.726Z</time></trkpt><trkpt lat="42.0446723" lon="12.4040383"><ele>117.0</ele><time>2026-04-20T18:48:33.726Z</time></trkpt><trkpt lat="42.0446516" lon="12.404363"><ele>118.0</ele><time>2026-04-20T18:48:34.727Z</time></trkpt><trkpt lat="42.0446293" lon="12.4046867"><ele>119.0</ele><time>2026-04-20T18:48:35.726Z</time></trkpt><trkpt lat="42.0446042" lon="12.4050088"><ele>119.0</ele><time>2026-04-20T18:48:36.728Z</time></trkpt><trkpt lat="42.0445743" lon="12.4053321"><ele>119.0</ele><time>2026-04-20T18:48:37.727Z</time></trkpt><trkpt lat="42.044542" lon="12.405654"><ele>116.5</ele><time>2026-04-20T18:48:38.727Z</time></trkpt><trkpt lat="42.0445109" lon="12.4059653"><ele>114.0</ele><time>2026-04-20T18:48:39.727Z</time></trkpt><trkpt lat="42.0444682" lon="12.4062804"><ele>109.5</ele><time>2026-04-20T18:48:40.726Z</time></trkpt><trkpt lat="42.0444235" lon="12.4065913"><ele>105.0</ele><time>2026-04-20T18:48:41.726Z</time></trkpt><trkpt lat="42.0443787" lon="12.4068996"><ele>104.0</ele><time>2026-04-20T18:48:42.726Z</time></trkpt><trkpt lat="42.0443301" lon="12.4072101"><ele>103.0</ele><time>2026-04-20T18:48:43.726Z</time></trkpt><trkpt lat="42.0442872" lon="12.4075198"><ele>103.0</ele><time>2026-04-20T18:48:44.726Z</time></trkpt><trkpt lat="42.0442449" lon="12.4078264"><ele>103.0</ele><time>2026-04-20T18:48:45.726Z</time></trkpt><trkpt lat="42.0441969" lon="12.4081389"><ele>104.0</ele><time>2026-04-20T18:48:46.726Z</time></trkpt><trkpt lat="42.0441565" lon="12.4084484"><ele>105.0</ele><time>2026-04-20T18:48:47.726Z</time></trkpt><trkpt lat="42.0441104" lon="12.4087635"><ele>102.0</ele><time>2026-04-20T18:48:48.726Z</time></trkpt><trkpt lat="42.0440617" lon="12.4090833"><ele>99.0</ele><time>2026-04-20T18:48:49.727Z</time></trkpt><trkpt lat="42.0440167" lon="12.4093999"><ele>102.0</ele><time>2026-04-20T18:48:50.726Z</time></trkpt><trkpt lat="42.0439713" lon="12.4097224"><ele>105.0</ele><time>2026-04-20T18:48:51.726Z</time></trkpt><trkpt lat="42.0439261" lon="12.410036"><ele>105.0</ele><time>2026-04-20T18:48:52.727Z</time></trkpt><trkpt lat="42.0438791" lon="12.4103539"><ele>105.0</ele><time>2026-04-20T18:48:53.727Z</time></trkpt><trkpt lat="42.0438333" lon="12.4106673"><ele>107.5</ele><time>2026-04-20T18:48:54.726Z</time></trkpt><trkpt lat="42.0437879" lon="12.4109813"><ele>110.0</ele><time>2026-04-20T18:48:55.726Z</time></trkpt><trkpt lat="42.0437414" lon="12.4112924"><ele>109.0</ele><time>2026-04-20T18:48:56.728Z</time></trkpt><trkpt lat="42.0436921" lon="12.4116068"><ele>108.0</ele><time>2026-04-20T18:48:57.726Z</time></trkpt><trkpt lat="42.0436457" lon="12.4119196"><ele>107.5</ele><time>2026-04-20T18:48:58.728Z</time></trkpt><trkpt lat="42.0436003" lon="12.4122308"><ele>107.0</ele><time>2026-04-20T18:48:59.727Z</time></trkpt><trkpt lat="42.0435573" lon="12.4125414"><ele>107.0</ele><time>2026-04-20T18:49:00.727Z</time></trkpt><trkpt lat="42.0435131" lon="12.4128549"><ele>107.0</ele><time>2026-04-20T18:49:01.727Z</time></trkpt><trkpt lat="42.0434642" lon="12.4131702"><ele>108.5</ele><time>2026-04-20T18:49:02.727Z</time></trkpt><trkpt lat="42.0434203" lon="12.4134795"><ele>110.0</ele><time>2026-04-20T18:49:03.726Z</time></trkpt><trkpt lat="42.0433789" lon="12.4137912"><ele>110.5</ele><time>2026-04-20T18:49:04.727Z</time></trkpt><trkpt lat="42.0433375" lon="12.4141047"><ele>111.0</ele><time>2026-04-20T18:49:05.726Z</time></trkpt><trkpt lat="42.0432959" lon="12.4144132"><ele>109.0</ele><time>2026-04-20T18:49:06.725Z</time></trkpt><trkpt lat="42.0432517" lon="12.4147128"><ele>107.0</ele><time>2026-04-20T18:49:07.726Z</time></trkpt><trkpt lat="42.0432058" lon="12.4150101"><ele>107.0</ele><time>2026-04-20T18:49:08.726Z</time></trkpt><trkpt lat="42.0431605" lon="12.415295"><ele>107.0</ele><time>2026-04-20T18:49:09.727Z</time></trkpt><trkpt lat="42.0431087" lon="12.4155787"><ele>107.0</ele><time>2026-04-20T18:49:10.726Z</time></trkpt><trkpt lat="42.0430532" lon="12.4158638"><ele>105.66666666666666</ele><time>2026-04-20T18:49:11.726Z</time></trkpt><trkpt lat="42.042993" lon="12.4161461"><ele>104.33333333333334</ele><time>2026-04-20T18:49:12.726Z</time></trkpt><trkpt lat="42.0429291" lon="12.4164283"><ele>103.0</ele><time>2026-04-20T18:49:13.727Z</time></trkpt><trkpt lat="42.0428581" lon="12.416712"><ele>103.0</ele><time>2026-04-20T18:49:14.725Z</time></trkpt><trkpt lat="42.0427855" lon="12.416992"><ele>103.0</ele><time>2026-04-20T18:49:15.726Z</time></trkpt><trkpt lat="42.0427093" lon="12.4172722"><ele>103.0</ele><time>2026-04-20T18:49:16.726Z</time></trkpt><trkpt lat="42.0426204" lon="12.4175438"><ele>101.0</ele><time>2026-04-20T18:49:17.727Z</time></trkpt><trkpt lat="42.0425236" lon="12.4178167"><ele>99.0</ele><time>2026-04-20T18:49:18.726Z</time></trkpt><trkpt lat="42.0424246" lon="12.4180918"><ele>97.0</ele><time>2026-04-20T18:49:19.726Z</time></trkpt><trkpt lat="42.0423194" lon="12.4183643"><ele>95.0</ele><time>2026-04-20T18:49:20.727Z</time></trkpt><trkpt lat="42.0422105" lon="12.4186335"><ele>94.0</ele><time>2026-04-20T18:49:21.727Z</time></trkpt><trkpt lat="42.0420915" lon="12.4188946"><ele>93.0</ele><time>2026-04-20T18:49:22.727Z</time></trkpt><trkpt lat="42.0419738" lon="12.4191557"><ele>93.0</ele><time>2026-04-20T18:49:23.727Z</time></trkpt><trkpt lat="42.0418564" lon="12.4194131"><ele>93.0</ele><time>2026-04-20T18:49:24.726Z</time></trkpt><trkpt lat="42.0417269" lon="12.4196628"><ele>92.0</ele><time>2026-04-20T18:49:25.728Z</time></trkpt><trkpt lat="42.0415962" lon="12.4199052"><ele>91.0</ele><time>2026-04-20T18:49:26.726Z</time></trkpt><trkpt lat="42.0414586" lon="12.4201454"><ele>90.0</ele><time>2026-04-20T18:49:27.725Z</time></trkpt><trkpt lat="42.0413214" lon="12.4203739"><ele>90.66666666666667</ele><time>2026-04-20T18:49:28.728Z</time></trkpt><trkpt lat="42.0411863" lon="12.4205877"><ele>91.33333333333334</ele><time>2026-04-20T18:49:29.727Z</time></trkpt><trkpt lat="42.0410501" lon="12.4208003"><ele>92.0</ele><time>2026-04-20T18:49:30.727Z</time></trkpt><trkpt lat="42.0409099" lon="12.4210014"><ele>92.0</ele><time>2026-04-20T18:49:31.726Z</time></trkpt><trkpt lat="42.0407631" lon="12.421201"><ele>92.0</ele><time>2026-04-20T18:49:32.727Z</time></trkpt><trkpt lat="42.0406135" lon="12.4214003"><ele>92.0</ele><time>2026-04-20T18:49:33.726Z</time></trkpt><trkpt lat="42.0404603" lon="12.4215961"><ele>92.0</ele><time>2026-04-20T18:49:34.727Z</time></trkpt><trkpt lat="42.0403013" lon="12.4217894"><ele>92.0</ele><time>2026-04-20T18:49:35.727Z</time></trkpt><trkpt lat="42.040136" lon="12.4219772"><ele>92.0</ele><time>2026-04-20T18:49:36.726Z</time></trkpt><trkpt lat="42.0399632" lon="12.4221643"><ele>90.0</ele><time>2026-04-20T18:49:37.727Z</time></trkpt><trkpt lat="42.0397844" lon="12.4223509"><ele>88.0</ele><time>2026-04-20T18:49:38.726Z</time></trkpt><trkpt lat="42.0396017" lon="12.4225334"><ele>88.0</ele><time>2026-04-20T18:49:39.726Z</time></trkpt><trkpt lat="42.0394122" lon="12.422708"><ele>88.0</ele><time>2026-04-20T18:49:40.726Z</time></trkpt><trkpt lat="42.0392121" lon="12.4228824"><ele>86.0</ele><time>2026-04-20T18:49:41.727Z</time></trkpt><trkpt lat="42.0390163" lon="12.4230621"><ele>84.0</ele><time>2026-04-20T18:49:42.726Z</time></trkpt><trkpt lat="42.0388173" lon="12.4232419"><ele>84.0</ele><time>2026-04-20T18:49:43.726Z</time></trkpt><trkpt lat="42.0386177" lon="12.4234235"><ele>84.0</ele><time>2026-04-20T18:49:44.727Z</time></trkpt><trkpt lat="42.0384189" lon="12.423606"><ele>84.0</ele><time>2026-04-20T18:49:45.726Z</time></trkpt><trkpt lat="42.0382189" lon="12.4237884"><ele>84.0</ele><time>2026-04-20T18:49:46.726Z</time></trkpt><trkpt lat="42.0380179" lon="12.4239684"><ele>84.0</ele><time>2026-04-20T18:49:47.728Z</time></trkpt><trkpt lat="42.0378162" lon="12.4241469"><ele>84.0</ele><time>2026-04-20T18:49:48.727Z</time></trkpt><trkpt lat="42.0376138" lon="12.4243278"><ele>85.5</ele><time>2026-04-20T18:49:49.726Z</time></trkpt><trkpt lat="42.0374089" lon="12.4245175"><ele>87.0</ele><time>2026-04-20T18:49:50.725Z</time></trkpt><trkpt lat="42.0372091" lon="12.4246984"><ele>88.0</ele><time>2026-04-20T18:49:51.727Z</time></trkpt><trkpt lat="42.0370121" lon="12.4248845"><ele>89.0</ele><time>2026-04-20T18:49:52.726Z</time></trkpt><trkpt lat="42.0368072" lon="12.4250661"><ele>88.0</ele><time>2026-04-20T18:49:53.725Z</time></trkpt><trkpt lat="42.0366098" lon="12.4252477"><ele>87.0</ele><time>2026-04-20T18:49:54.725Z</time></trkpt><trkpt lat="42.0364076" lon="12.4254284"><ele>91.0</ele><time>2026-04-20T18:49:55.727Z</time></trkpt><trkpt lat="42.0362045" lon="12.4256129"><ele>95.0</ele><time>2026-04-20T18:49:56.726Z</time></trkpt><trkpt lat="42.0360025" lon="12.4257969"><ele>92.5</ele><time>2026-04-20T18:49:57.727Z</time></trkpt><trkpt lat="42.0357988" lon="12.4259783"><ele>90.0</ele><time>2026-04-20T18:49:58.726Z</time></trkpt><trkpt lat="42.0355956" lon="12.4261606"><ele>94.0</ele><time>2026-04-20T18:49:59.727Z</time></trkpt><trkpt lat="42.0353935" lon="12.4263431"><ele>98.0</ele><time>2026-04-20T18:50:00.726Z</time></trkpt><trkpt lat="42.0351919" lon="12.4265241"><ele>98.0</ele><time>2026-04-20T18:50:01.725Z</time></trkpt><trkpt lat="42.0349924" lon="12.4267056"><ele>98.0</ele><time>2026-04-20T18:50:02.728Z</time></trkpt><trkpt lat="42.0347957" lon="12.4268864"><ele>97.5</ele><time>2026-04-20T18:50:03.728Z</time></trkpt><trkpt lat="42.0345955" lon="12.4270665"><ele>97.0</ele><time>2026-04-20T18:50:04.727Z</time></trkpt><trkpt lat="42.0343942" lon="12.427243"><ele>97.0</ele><time>2026-04-20T18:50:05.727Z</time></trkpt><trkpt lat="42.0341935" lon="12.4274258"><ele>97.0</ele><time>2026-04-20T18:50:06.727Z</time></trkpt><trkpt lat="42.0339928" lon="12.4276117"><ele>94.0</ele><time>2026-04-20T18:50:07.726Z</time></trkpt><trkpt lat="42.033789" lon="12.4277911"><ele>91.0</ele><time>2026-04-20T18:50:08.727Z</time></trkpt><trkpt lat="42.0335849" lon="12.4279753"><ele>92.0</ele><time>2026-04-20T18:50:09.726Z</time></trkpt><trkpt lat="42.0333847" lon="12.4281555"><ele>93.0</ele><time>2026-04-20T18:50:10.726Z</time></trkpt><trkpt lat="42.0331924" lon="12.4283331"><ele>93.0</ele><time>2026-04-20T18:50:11.726Z</time></trkpt><trkpt lat="42.0330042" lon="12.4285065"><ele>93.0</ele><time>2026-04-20T18:50:12.726Z</time></trkpt><trkpt lat="42.0328111" lon="12.4286768"><ele>94.33333333333334</ele><time>2026-04-20T18:50:13.726Z</time></trkpt><trkpt lat="42.0326246" lon="12.4288416"><ele>95.66666666666667</ele><time>2026-04-20T18:50:14.727Z</time></trkpt><trkpt lat="42.0324407" lon="12.4289947"><ele>97.0</ele><time>2026-04-20T18:50:15.727Z</time></trkpt><trkpt lat="42.0322573" lon="12.4291461"><ele>97.0</ele><time>2026-04-20T18:50:16.727Z</time></trkpt><trkpt lat="42.0320676" lon="12.4292949"><ele>97.0</ele><time>2026-04-20T18:50:17.725Z</time></trkpt><trkpt lat="42.0318834" lon="12.42944"><ele>97.0</ele><time>2026-04-20T18:50:18.727Z</time></trkpt><trkpt lat="42.0316935" lon="12.4295878"><ele>95.66666666666667</ele><time>2026-04-20T18:50:19.727Z</time></trkpt><trkpt lat="42.0314971" lon="12.4297326"><ele>94.33333333333334</ele><time>2026-04-20T18:50:20.727Z</time></trkpt><trkpt lat="42.031302" lon="12.4298714"><ele>93.0</ele><time>2026-04-20T18:50:21.726Z</time></trkpt><trkpt lat="42.0310957" lon="12.43001"><ele>93.0</ele><time>2026-04-20T18:50:22.726Z</time></trkpt><trkpt lat="42.0308821" lon="12.4301519"><ele>93.0</ele><time>2026-04-20T18:50:23.726Z</time></trkpt><trkpt lat="42.0306576" lon="12.4302883"><ele>92.0</ele><time>2026-04-20T18:50:24.728Z</time></trkpt><trkpt lat="42.0304209" lon="12.4304207"><ele>91.0</ele><time>2026-04-20T18:50:25.727Z</time></trkpt><trkpt lat="42.0301752" lon="12.4305506"><ele>90.5</ele><time>2026-04-20T18:50:26.725Z</time></trkpt><trkpt lat="42.0299331" lon="12.4306641"><ele>90.0</ele><time>2026-04-20T18:50:27.727Z</time></trkpt><trkpt lat="42.0296912" lon="12.4307802"><ele>90.0</ele><time>2026-04-20T18:50:28.726Z</time></trkpt><trkpt lat="42.0294499" lon="12.4308986"><ele>90.0</ele><time>2026-04-20T18:50:29.726Z</time></trkpt><trkpt lat="42.0292203" lon="12.4310085"><ele>89.0</ele><time>2026-04-20T18:50:30.726Z</time></trkpt><trkpt lat="42.0289886" lon="12.4311141"><ele>88.0</ele><time>2026-04-20T18:50:31.726Z</time></trkpt><trkpt lat="42.0287629" lon="12.4312152"><ele>88.0</ele><time>2026-04-20T18:50:32.727Z</time></trkpt><trkpt lat="42.0285311" lon="12.4313017"><ele>88.0</ele><time>2026-04-20T18:50:33.728Z</time></trkpt><trkpt lat="42.0283009" lon="12.4313938"><ele>91.5</ele><time>2026-04-20T18:50:34.726Z</time></trkpt><trkpt lat="42.0280691" lon="12.43148"><ele>95.0</ele><time>2026-04-20T18:50:35.727Z</time></trkpt><trkpt lat="42.027837" lon="12.4315667"><ele>95.0</ele><time>2026-04-20T18:50:36.726Z</time></trkpt><trkpt lat="42.0276012" lon="12.4316485"><ele>95.0</ele><time>2026-04-20T18:50:37.726Z</time></trkpt><trkpt lat="42.0273631" lon="12.4317282"><ele>96.0</ele><time>2026-04-20T18:50:38.726Z</time></trkpt><trkpt lat="42.0271214" lon="12.4318079"><ele>97.0</ele><time>2026-04-20T18:50:39.725Z</time></trkpt><trkpt lat="42.0268798" lon="12.4318902"><ele>96.0</ele><time>2026-04-20T18:50:40.727Z</time></trkpt><trkpt lat="42.0266369" lon="12.4319735"><ele>95.0</ele><time>2026-04-20T18:50:41.726Z</time></trkpt><trkpt lat="42.0263948" lon="12.4320548"><ele>95.0</ele><time>2026-04-20T18:50:42.726Z</time></trkpt><trkpt lat="42.0261503" lon="12.4321394"><ele>95.0</ele><time>2026-04-20T18:50:43.726Z</time></trkpt><trkpt lat="42.0259051" lon="12.4322246"><ele>94.0</ele><time>2026-04-20T18:50:44.727Z</time></trkpt><trkpt lat="42.0256616" lon="12.432309"><ele>93.0</ele><time>2026-04-20T18:50:45.727Z</time></trkpt><trkpt lat="42.0254235" lon="12.4323965"><ele>93.0</ele><time>2026-04-20T18:50:46.726Z</time></trkpt><trkpt lat="42.0251867" lon="12.4324722"><ele>93.0</ele><time>2026-04-20T18:50:47.727Z</time></trkpt><trkpt lat="42.0249517" lon="12.4325501"><ele>91.0</ele><time>2026-04-20T18:50:48.727Z</time></trkpt><trkpt lat="42.0247178" lon="12.4326296"><ele>89.0</ele><time>2026-04-20T18:50:49.726Z</time></trkpt><trkpt lat="42.0244814" lon="12.4327113"><ele>89.0</ele><time>2026-04-20T18:50:50.726Z</time></trkpt><trkpt lat="42.0242499" lon="12.4327876"><ele>89.0</ele><time>2026-04-20T18:50:51.726Z</time></trkpt><trkpt lat="42.0240186" lon="12.4328678"><ele>88.0</ele><time>2026-04-20T18:50:52.726Z</time></trkpt><trkpt lat="42.0237851" lon="12.4329494"><ele>87.0</ele><time>2026-04-20T18:50:53.726Z</time></trkpt><trkpt lat="42.0235518" lon="12.4330313"><ele>90.5</ele><time>2026-04-20T18:50:54.728Z</time></trkpt><trkpt lat="42.0233195" lon="12.4331138"><ele>94.0</ele><time>2026-04-20T18:50:55.728Z</time></trkpt><trkpt lat="42.0230929" lon="12.4331935"><ele>95.0</ele><time>2026-04-20T18:50:56.726Z</time></trkpt><trkpt lat="42.0228665" lon="12.4332731"><ele>96.0</ele><time>2026-04-20T18:50:57.725Z</time></trkpt><trkpt lat="42.0226357" lon="12.4333525"><ele>95.5</ele><time>2026-04-20T18:50:58.727Z</time></trkpt><trkpt lat="42.0224064" lon="12.433431"><ele>95.0</ele><time>2026-04-20T18:50:59.727Z</time></trkpt><trkpt lat="42.0221689" lon="12.4335067"><ele>95.0</ele><time>2026-04-20T18:51:00.728Z</time></trkpt><trkpt lat="42.0219337" lon="12.4335842"><ele>95.0</ele><time>2026-04-20T18:51:01.727Z</time></trkpt><trkpt lat="42.0216965" lon="12.4336673"><ele>96.5</ele><time>2026-04-20T18:51:02.727Z</time></trkpt><trkpt lat="42.0214575" lon="12.433747"><ele>98.0</ele><time>2026-04-20T18:51:03.726Z</time></trkpt><trkpt lat="42.0212192" lon="12.4338302"><ele>98.0</ele><time>2026-04-20T18:51:04.726Z</time></trkpt><trkpt lat="42.0209835" lon="12.433911"><ele>98.0</ele><time>2026-04-20T18:51:05.726Z</time></trkpt><trkpt lat="42.02075" lon="12.4339922"><ele>95.5</ele><time>2026-04-20T18:51:06.726Z</time></trkpt><trkpt lat="42.0205128" lon="12.4340878"><ele>93.0</ele><time>2026-04-20T18:51:07.727Z</time></trkpt><trkpt lat="42.0202808" lon="12.4341771"><ele>93.0</ele><time>2026-04-20T18:51:08.726Z</time></trkpt><trkpt lat="42.0200491" lon="12.434271"><ele>93.0</ele><time>2026-04-20T18:51:09.727Z</time></trkpt><trkpt lat="42.0198198" lon="12.4343648"><ele>91.0</ele><time>2026-04-20T18:51:10.726Z</time></trkpt><trkpt lat="42.0195821" lon="12.4344553"><ele>89.0</ele><time>2026-04-20T18:51:11.726Z</time></trkpt><trkpt lat="42.01935" lon="12.4345462"><ele>86.0</ele><time>2026-04-20T18:51:12.727Z</time></trkpt><trkpt lat="42.0191204" lon="12.4346324"><ele>83.0</ele><time>2026-04-20T18:51:13.727Z</time></trkpt><trkpt lat="42.0188881" lon="12.4347232"><ele>80.5</ele><time>2026-04-20T18:51:14.728Z</time></trkpt><trkpt lat="42.0186583" lon="12.4348108"><ele>78.0</ele><time>2026-04-20T18:51:15.727Z</time></trkpt><trkpt lat="42.0184252" lon="12.4349017"><ele>73.5</ele><time>2026-04-20T18:51:16.725Z</time></trkpt><trkpt lat="42.0181964" lon="12.4349935"><ele>69.0</ele><time>2026-04-20T18:51:17.726Z</time></trkpt><trkpt lat="42.0179642" lon="12.4350816"><ele>69.0</ele><time>2026-04-20T18:51:18.726Z</time></trkpt><trkpt lat="42.0177297" lon="12.4351687"><ele>69.0</ele><time>2026-04-20T18:51:19.727Z</time></trkpt><trkpt lat="42.0174985" lon="12.4352565"><ele>64.5</ele><time>2026-04-20T18:51:20.727Z</time></trkpt><trkpt lat="42.0172656" lon="12.435347"><ele>60.0</ele><time>2026-04-20T18:51:21.727Z</time></trkpt><trkpt lat="42.0170354" lon="12.4354376"><ele>61.5</ele><time>2026-04-20T18:51:22.726Z</time></trkpt><trkpt lat="42.0168073" lon="12.4355307"><ele>63.0</ele><time>2026-04-20T18:51:23.726Z</time></trkpt><trkpt lat="42.0165774" lon="12.4356223"><ele>63.0</ele><time>2026-04-20T18:51:24.726Z</time></trkpt><trkpt lat="42.0163456" lon="12.4357128"><ele>63.0</ele><time>2026-04-20T18:51:25.726Z</time></trkpt><trkpt lat="42.0161095" lon="12.435801"><ele>63.0</ele><time>2026-04-20T18:51:26.727Z</time></trkpt><trkpt lat="42.0158785" lon="12.4358819"><ele>63.0</ele><time>2026-04-20T18:51:27.727Z</time></trkpt><trkpt lat="42.0156449" lon="12.4359651"><ele>55.5</ele><time>2026-04-20T18:51:28.727Z</time></trkpt><trkpt lat="42.015413" lon="12.4360429"><ele>48.0</ele><time>2026-04-20T18:51:29.726Z</time></trkpt><trkpt lat="42.0151781" lon="12.4361229"><ele>52.0</ele><time>2026-04-20T18:51:30.727Z</time></trkpt><trkpt lat="42.0149466" lon="12.4362092"><ele>56.0</ele><time>2026-04-20T18:51:31.725Z</time></trkpt><trkpt lat="42.014708" lon="12.4362984"><ele>53.0</ele><time>2026-04-20T18:51:32.727Z</time></trkpt><trkpt lat="42.0144705" lon="12.4363848"><ele>50.0</ele><time>2026-04-20T18:51:33.726Z</time></trkpt><trkpt lat="42.0142366" lon="12.4364673"><ele>64.5</ele><time>2026-04-20T18:51:34.727Z</time></trkpt><trkpt lat="42.0139977" lon="12.4365562"><ele>79.0</ele><time>2026-04-20T18:51:35.726Z</time></trkpt><trkpt lat="42.0137612" lon="12.4366478"><ele>79.0</ele><time>2026-04-20T18:51:36.725Z</time></trkpt><trkpt lat="42.0135238" lon="12.4367372"><ele>79.0</ele><time>2026-04-20T18:51:37.727Z</time></trkpt><trkpt lat="42.0132847" lon="12.4368279"><ele>80.0</ele><time>2026-04-20T18:51:38.726Z</time></trkpt><trkpt lat="42.0130456" lon="12.4369185"><ele>81.0</ele><time>2026-04-20T18:51:39.728Z</time></trkpt><trkpt lat="42.0111098" lon="12.437676"><ele>63.0</ele><time>2026-04-20T18:51:47.727Z</time></trkpt><trkpt lat="42.0108861" lon="12.4377599"><ele>45.0</ele><time>2026-04-20T18:51:48.726Z</time></trkpt><trkpt lat="42.0106555" lon="12.4378499"><ele>45.0</ele><time>2026-04-20T18:51:49.727Z</time></trkpt><trkpt lat="42.0104237" lon="12.4379367"><ele>45.0</ele><time>2026-04-20T18:51:50.727Z</time></trkpt><trkpt lat="42.0101921" lon="12.4380239"><ele>41.5</ele><time>2026-04-20T18:51:51.726Z</time></trkpt><trkpt lat="42.0099654" lon="12.4381123"><ele>38.0</ele><time>2026-04-20T18:51:52.727Z</time></trkpt><trkpt lat="42.009741" lon="12.4381997"><ele>38.0</ele><time>2026-04-20T18:51:53.727Z</time></trkpt><trkpt lat="42.0095196" lon="12.4382876"><ele>38.0</ele><time>2026-04-20T18:51:54.727Z</time></trkpt><trkpt lat="42.0093006" lon="12.4383746"><ele>36.33333333333333</ele><time>2026-04-20T18:51:55.727Z</time></trkpt><trkpt lat="42.0090857" lon="12.4384641"><ele>34.666666666666664</ele><time>2026-04-20T18:51:56.726Z</time></trkpt><trkpt lat="42.008874" lon="12.438554"><ele>33.0</ele><time>2026-04-20T18:51:57.728Z</time></trkpt><trkpt lat="42.0086633" lon="12.4386497"><ele>33.0</ele><time>2026-04-20T18:51:58.728Z</time></trkpt><trkpt lat="42.0084568" lon="12.4387572"><ele>33.0</ele><time>2026-04-20T18:51:59.727Z</time></trkpt><trkpt lat="42.008251" lon="12.4388693"><ele>33.0</ele><time>2026-04-20T18:52:00.727Z</time></trkpt><trkpt lat="42.0080461" lon="12.4389878"><ele>33.5</ele><time>2026-04-20T18:52:01.726Z</time></trkpt><trkpt lat="42.0078421" lon="12.4391147"><ele>34.0</ele><time>2026-04-20T18:52:02.727Z</time></trkpt><trkpt lat="42.0076393" lon="12.439247"><ele>33.5</ele><time>2026-04-20T18:52:03.727Z</time></trkpt><trkpt lat="42.0074391" lon="12.43939"><ele>33.0</ele><time>2026-04-20T18:52:04.728Z</time></trkpt><trkpt lat="42.007241" lon="12.4395383"><ele>36.0</ele><time>2026-04-20T18:52:05.726Z</time></trkpt><trkpt lat="42.0070452" lon="12.4396936"><ele>39.0</ele><time>2026-04-20T18:52:06.727Z</time></trkpt><trkpt lat="42.0068513" lon="12.4398555"><ele>37.0</ele><time>2026-04-20T18:52:07.727Z</time></trkpt><trkpt lat="42.0066604" lon="12.4400246"><ele>35.0</ele><time>2026-04-20T18:52:08.727Z</time></trkpt><trkpt lat="42.0064724" lon="12.4402"><ele>35.0</ele><time>2026-04-20T18:52:09.728Z</time></trkpt><trkpt lat="42.0062879" lon="12.4403823"><ele>35.0</ele><time>2026-04-20T18:52:10.727Z</time></trkpt><trkpt lat="42.0061075" lon="12.4405719"><ele>35.5</ele><time>2026-04-20T18:52:11.727Z</time></trkpt><trkpt lat="42.0059304" lon="12.4407684"><ele>36.0</ele><time>2026-04-20T18:52:12.727Z</time></trkpt><trkpt lat="42.0057574" lon="12.4409723"><ele>35.0</ele><time>2026-04-20T18:52:13.727Z</time></trkpt><trkpt lat="42.0055868" lon="12.4411819"><ele>34.0</ele><time>2026-04-20T18:52:14.727Z</time></trkpt><trkpt lat="42.0054177" lon="12.4413946"><ele>34.0</ele><time>2026-04-20T18:52:15.727Z</time></trkpt><trkpt lat="42.0052535" lon="12.4416133"><ele>34.0</ele><time>2026-04-20T18:52:16.726Z</time></trkpt><trkpt lat="42.0050939" lon="12.4418381"><ele>33.5</ele><time>2026-04-20T18:52:17.727Z</time></trkpt><trkpt lat="42.0049381" lon="12.4420703"><ele>33.0</ele><time>2026-04-20T18:52:18.728Z</time></trkpt><trkpt lat="42.0047857" lon="12.4423085"><ele>33.0</ele><time>2026-04-20T18:52:19.728Z</time></trkpt><trkpt lat="42.0046375" lon="12.4425536"><ele>33.0</ele><time>2026-04-20T18:52:20.727Z</time></trkpt><trkpt lat="42.0044945" lon="12.4428065"><ele>34.0</ele><time>2026-04-20T18:52:21.727Z</time></trkpt><trkpt lat="42.0043535" lon="12.4430625"><ele>35.0</ele><time>2026-04-20T18:52:22.727Z</time></trkpt><trkpt lat="42.0042158" lon="12.4433246"><ele>37.5</ele><time>2026-04-20T18:52:23.727Z</time></trkpt><trkpt lat="42.0040813" lon="12.4435899"><ele>40.0</ele><time>2026-04-20T18:52:24.727Z</time></trkpt><trkpt lat="42.0039481" lon="12.4438584"><ele>40.0</ele><time>2026-04-20T18:52:25.728Z</time></trkpt><trkpt lat="42.0038127" lon="12.4441262"><ele>40.0</ele><time>2026-04-20T18:52:26.727Z</time></trkpt><trkpt lat="42.0036735" lon="12.4443945"><ele>36.0</ele><time>2026-04-20T18:52:27.728Z</time></trkpt><trkpt lat="42.0035355" lon="12.4446624"><ele>32.0</ele><time>2026-04-20T18:52:28.725Z</time></trkpt><trkpt lat="42.003396" lon="12.4449366"><ele>32.0</ele><time>2026-04-20T18:52:29.725Z</time></trkpt><trkpt lat="42.0032571" lon="12.4452083"><ele>32.0</ele><time>2026-04-20T18:52:30.727Z</time></trkpt><trkpt lat="42.0031178" lon="12.4454837"><ele>32.0</ele><time>2026-04-20T18:52:31.726Z</time></trkpt><trkpt lat="42.0029801" lon="12.4457569"><ele>32.0</ele><time>2026-04-20T18:52:32.727Z</time></trkpt><trkpt lat="42.0028399" lon="12.446029"><ele>34.0</ele><time>2026-04-20T18:52:33.727Z</time></trkpt><trkpt lat="42.0026968" lon="12.4463044"><ele>36.0</ele><time>2026-04-20T18:52:34.727Z</time></trkpt><trkpt lat="42.0025556" lon="12.4465802"><ele>34.5</ele><time>2026-04-20T18:52:35.727Z</time></trkpt><trkpt lat="42.0024151" lon="12.4468593"><ele>33.0</ele><time>2026-04-20T18:52:36.726Z</time></trkpt><trkpt lat="42.002274" lon="12.4471359"><ele>32.5</ele><time>2026-04-20T18:52:37.726Z</time></trkpt><trkpt lat="42.002126" lon="12.4474133"><ele>32.0</ele><time>2026-04-20T18:52:38.726Z</time></trkpt><trkpt lat="42.0019875" lon="12.4476848"><ele>32.5</ele><time>2026-04-20T18:52:39.726Z</time></trkpt><trkpt lat="42.0018473" lon="12.4479655"><ele>33.0</ele><time>2026-04-20T18:52:40.726Z</time></trkpt><trkpt lat="42.0017029" lon="12.4482429"><ele>32.5</ele><time>2026-04-20T18:52:41.727Z</time></trkpt><trkpt lat="42.0015656" lon="12.4485167"><ele>32.0</ele><time>2026-04-20T18:52:42.728Z</time></trkpt><trkpt lat="42.0014226" lon="12.4487997"><ele>32.0</ele><time>2026-04-20T18:52:43.728Z</time></trkpt><trkpt lat="42.0012801" lon="12.449081"><ele>32.0</ele><time>2026-04-20T18:52:44.726Z</time></trkpt><trkpt lat="42.0011342" lon="12.4493625"><ele>32.5</ele><time>2026-04-20T18:52:45.726Z</time></trkpt><trkpt lat="42.0009867" lon="12.4496408"><ele>33.0</ele><time>2026-04-20T18:52:46.726Z</time></trkpt><trkpt lat="42.0008416" lon="12.4499236"><ele>33.5</ele><time>2026-04-20T18:52:47.727Z</time></trkpt><trkpt lat="42.0007031" lon="12.4502035"><ele>34.0</ele><time>2026-04-20T18:52:48.726Z</time></trkpt><trkpt lat="42.0005614" lon="12.4504819"><ele>34.0</ele><time>2026-04-20T18:52:49.726Z</time></trkpt><trkpt lat="42.0004152" lon="12.4507645"><ele>34.0</ele><time>2026-04-20T18:52:50.725Z</time></trkpt><trkpt lat="42.0002654" lon="12.4510469"><ele>34.5</ele><time>2026-04-20T18:52:51.726Z</time></trkpt><trkpt lat="42.0001234" lon="12.4513172"><ele>35.0</ele><time>2026-04-20T18:52:52.726Z</time></trkpt><trkpt lat="41.9999806" lon="12.4515898"><ele>35.0</ele><time>2026-04-20T18:52:53.726Z</time></trkpt><trkpt lat="41.9998422" lon="12.4518554"><ele>35.0</ele><time>2026-04-20T18:52:54.727Z</time></trkpt><trkpt lat="41.9997125" lon="12.4521163"><ele>33.5</ele><time>2026-04-20T18:52:55.726Z</time></trkpt><trkpt lat="41.9995826" lon="12.4523737"><ele>32.0</ele><time>2026-04-20T18:52:56.727Z</time></trkpt><trkpt lat="41.9994532" lon="12.452626"><ele>32.0</ele><time>2026-04-20T18:52:57.727Z</time></trkpt><trkpt lat="41.9993207" lon="12.452883"><ele>32.0</ele><time>2026-04-20T18:52:58.726Z</time></trkpt><trkpt lat="41.9991957" lon="12.4531442"><ele>31.5</ele><time>2026-04-20T18:52:59.726Z</time></trkpt><trkpt lat="41.9990718" lon="12.4534167"><ele>31.0</ele><time>2026-04-20T18:53:00.727Z</time></trkpt><trkpt lat="41.9989531" lon="12.4536918"><ele>31.5</ele><time>2026-04-20T18:53:01.726Z</time></trkpt><trkpt lat="41.998835" lon="12.4539719"><ele>32.0</ele><time>2026-04-20T18:53:02.727Z</time></trkpt><trkpt lat="41.9987262" lon="12.4542615"><ele>32.0</ele><time>2026-04-20T18:53:03.725Z</time></trkpt><trkpt lat="41.9986191" lon="12.4545564"><ele>32.0</ele><time>2026-04-20T18:53:04.725Z</time></trkpt><trkpt lat="41.9985095" lon="12.4548541"><ele>32.0</ele><time>2026-04-20T18:53:05.727Z</time></trkpt><trkpt lat="41.9983934" lon="12.4551542"><ele>32.0</ele><time>2026-04-20T18:53:06.728Z</time></trkpt><trkpt lat="41.9982766" lon="12.4554542"><ele>31.5</ele><time>2026-04-20T18:53:07.726Z</time></trkpt><trkpt lat="41.9981629" lon="12.4557575"><ele>31.0</ele><time>2026-04-20T18:53:08.726Z</time></trkpt><trkpt lat="41.9980519" lon="12.4560546"><ele>30.0</ele><time>2026-04-20T18:53:09.726Z</time></trkpt><trkpt lat="41.9979412" lon="12.4563552"><ele>29.0</ele><time>2026-04-20T18:53:10.728Z</time></trkpt><trkpt lat="41.997826" lon="12.4566534"><ele>29.0</ele><time>2026-04-20T18:53:11.726Z</time></trkpt><trkpt lat="41.9977151" lon="12.4569508"><ele>29.0</ele><time>2026-04-20T18:53:12.727Z</time></trkpt><trkpt lat="41.997606" lon="12.4572499"><ele>29.5</ele><time>2026-04-20T18:53:13.726Z</time></trkpt><trkpt lat="41.9974925" lon="12.4575448"><ele>30.0</ele><time>2026-04-20T18:53:14.727Z</time></trkpt><trkpt lat="41.9973807" lon="12.4578409"><ele>30.5</ele><time>2026-04-20T18:53:15.727Z</time></trkpt><trkpt lat="41.9972734" lon="12.4581378"><ele>31.0</ele><time>2026-04-20T18:53:16.727Z</time></trkpt><trkpt lat="41.9971613" lon="12.4584304"><ele>31.0</ele><time>2026-04-20T18:53:17.726Z</time></trkpt><trkpt lat="41.9970526" lon="12.4587216"><ele>31.0</ele><time>2026-04-20T18:53:18.727Z</time></trkpt><trkpt lat="41.9969422" lon="12.4590119"><ele>31.0</ele><time>2026-04-20T18:53:19.727Z</time></trkpt><trkpt lat="41.9968372" lon="12.4592993"><ele>31.0</ele><time>2026-04-20T18:53:20.726Z</time></trkpt><trkpt lat="41.9967319" lon="12.4595907"><ele>30.5</ele><time>2026-04-20T18:53:21.727Z</time></trkpt><trkpt lat="41.9966253" lon="12.45988"><ele>30.0</ele><time>2026-04-20T18:53:22.728Z</time></trkpt><trkpt lat="41.9965226" lon="12.4601657"><ele>30.0</ele><time>2026-04-20T18:53:23.726Z</time></trkpt><trkpt lat="41.9964186" lon="12.4604475"><ele>30.0</ele><time>2026-04-20T18:53:24.726Z</time></trkpt><trkpt lat="41.9963233" lon="12.4607323"><ele>31.0</ele><time>2026-04-20T18:53:25.726Z</time></trkpt><trkpt lat="41.9962329" lon="12.4610206"><ele>32.0</ele><time>2026-04-20T18:53:26.726Z</time></trkpt><trkpt lat="41.996151" lon="12.4613125"><ele>32.0</ele><time>2026-04-20T18:53:27.726Z</time></trkpt><trkpt lat="41.996066" lon="12.4616089"><ele>32.0</ele><time>2026-04-20T18:53:28.727Z</time></trkpt><trkpt lat="41.9959855" lon="12.4619058"><ele>33.0</ele><time>2026-04-20T18:53:29.725Z</time></trkpt><trkpt lat="41.9959004" lon="12.4622062"><ele>34.0</ele><time>2026-04-20T18:53:30.727Z</time></trkpt><trkpt lat="41.9958158" lon="12.462507"><ele>31.0</ele><time>2026-04-20T18:53:31.726Z</time></trkpt><trkpt lat="41.995735" lon="12.4628059"><ele>28.0</ele><time>2026-04-20T18:53:32.726Z</time></trkpt><trkpt lat="41.995658" lon="12.4631026"><ele>28.0</ele><time>2026-04-20T18:53:33.727Z</time></trkpt><trkpt lat="41.9955808" lon="12.4633977"><ele>28.0</ele><time>2026-04-20T18:53:34.726Z</time></trkpt><trkpt lat="41.9955045" lon="12.4636839"><ele>27.333333333333336</ele><time>2026-04-20T18:53:35.725Z</time></trkpt><trkpt lat="41.9954273" lon="12.4639607"><ele>26.666666666666664</ele><time>2026-04-20T18:53:36.727Z</time></trkpt><trkpt lat="41.9953508" lon="12.4642236"><ele>26.0</ele><time>2026-04-20T18:53:37.727Z</time></trkpt><trkpt lat="41.9952667" lon="12.464484"><ele>26.666666666666664</ele><time>2026-04-20T18:53:38.726Z</time></trkpt><trkpt lat="41.9951786" lon="12.4647373"><ele>27.333333333333336</ele><time>2026-04-20T18:53:39.727Z</time></trkpt><trkpt lat="41.9950778" lon="12.4649829"><ele>28.0</ele><time>2026-04-20T18:53:40.727Z</time></trkpt><trkpt lat="41.9949616" lon="12.4652247"><ele>28.333333333333336</ele><time>2026-04-20T18:53:41.726Z</time></trkpt><trkpt lat="41.9948354" lon="12.4654568"><ele>28.666666666666664</ele><time>2026-04-20T18:53:42.726Z</time></trkpt><trkpt lat="41.9947035" lon="12.4656851"><ele>29.0</ele><time>2026-04-20T18:53:43.726Z</time></trkpt><trkpt lat="41.9945647" lon="12.4659062"><ele>29.0</ele><time>2026-04-20T18:53:44.726Z</time></trkpt><trkpt lat="41.9944181" lon="12.4661232"><ele>29.0</ele><time>2026-04-20T18:53:45.727Z</time></trkpt><trkpt lat="41.9942641" lon="12.4663293"><ele>29.0</ele><time>2026-04-20T18:53:46.727Z</time></trkpt><trkpt lat="41.9941013" lon="12.4665212"><ele>28.333333333333332</ele><time>2026-04-20T18:53:47.726Z</time></trkpt><trkpt lat="41.9939271" lon="12.4667081"><ele>27.666666666666664</ele><time>2026-04-20T18:53:48.726Z</time></trkpt><trkpt lat="41.9937461" lon="12.4668804"><ele>27.0</ele><time>2026-04-20T18:53:49.726Z</time></trkpt><trkpt lat="41.9935587" lon="12.4670438"><ele>26.5</ele><time>2026-04-20T18:53:50.728Z</time></trkpt><trkpt lat="41.9933614" lon="12.4671972"><ele>26.0</ele><time>2026-04-20T18:53:51.727Z</time></trkpt><trkpt lat="41.9931575" lon="12.467341"><ele>26.0</ele><time>2026-04-20T18:53:52.725Z</time></trkpt><trkpt lat="41.9929499" lon="12.4674776"><ele>26.0</ele><time>2026-04-20T18:53:53.727Z</time></trkpt><trkpt lat="41.9927429" lon="12.4676137"><ele>26.0</ele><time>2026-04-20T18:53:54.727Z</time></trkpt><trkpt lat="41.9925356" lon="12.4677459"><ele>26.0</ele><time>2026-04-20T18:53:55.728Z</time></trkpt><trkpt lat="41.9923313" lon="12.4678766"><ele>26.333333333333332</ele><time>2026-04-20T18:53:56.727Z</time></trkpt><trkpt lat="41.9921331" lon="12.4680024"><ele>26.666666666666664</ele><time>2026-04-20T18:53:57.727Z</time></trkpt><trkpt lat="41.9919448" lon="12.4681248"><ele>27.0</ele><time>2026-04-20T18:53:58.727Z</time></trkpt><trkpt lat="41.9917668" lon="12.4682366"><ele>27.666666666666664</ele><time>2026-04-20T18:53:59.726Z</time></trkpt><trkpt lat="41.9915846" lon="12.4683542"><ele>28.333333333333332</ele><time>2026-04-20T18:54:00.726Z</time></trkpt><trkpt lat="41.9914003" lon="12.4684697"><ele>29.0</ele><time>2026-04-20T18:54:01.727Z</time></trkpt><trkpt lat="41.9912151" lon="12.4685869"><ele>29.0</ele><time>2026-04-20T18:54:02.727Z</time></trkpt><trkpt lat="41.9910237" lon="12.468709"><ele>29.0</ele><time>2026-04-20T18:54:03.726Z</time></trkpt><trkpt lat="41.9908294" lon="12.4688351"><ele>29.0</ele><time>2026-04-20T18:54:04.725Z</time></trkpt><trkpt lat="41.9906285" lon="12.4689611"><ele>26.5</ele><time>2026-04-20T18:54:05.728Z</time></trkpt><trkpt lat="41.9904236" lon="12.4690887"><ele>24.0</ele><time>2026-04-20T18:54:06.726Z</time></trkpt><trkpt lat="41.9902139" lon="12.4692158"><ele>24.5</ele><time>2026-04-20T18:54:07.727Z</time></trkpt><trkpt lat="41.9900056" lon="12.4693474"><ele>25.0</ele><time>2026-04-20T18:54:08.728Z</time></trkpt><trkpt lat="41.989795" lon="12.4694829"><ele>26.0</ele><time>2026-04-20T18:54:09.727Z</time></trkpt><trkpt lat="41.9895878" lon="12.4696183"><ele>27.0</ele><time>2026-04-20T18:54:10.727Z</time></trkpt><trkpt lat="41.9893801" lon="12.4697648"><ele>28.5</ele><time>2026-04-20T18:54:11.726Z</time></trkpt><trkpt lat="41.989174" lon="12.4699136"><ele>30.0</ele><time>2026-04-20T18:54:12.726Z</time></trkpt><trkpt lat="41.9889792" lon="12.4700584"><ele>30.0</ele><time>2026-04-20T18:54:13.727Z</time></trkpt><trkpt lat="41.9887878" lon="12.4702233"><ele>30.0</ele><time>2026-04-20T18:54:14.726Z</time></trkpt><trkpt lat="41.9886053" lon="12.4703988"><ele>30.0</ele><time>2026-04-20T18:54:15.726Z</time></trkpt><trkpt lat="41.9884265" lon="12.4705818"><ele>30.0</ele><time>2026-04-20T18:54:16.727Z</time></trkpt><trkpt lat="41.9882499" lon="12.4707776"><ele>30.0</ele><time>2026-04-20T18:54:17.726Z</time></trkpt><trkpt lat="41.9880752" lon="12.4709743"><ele>30.0</ele><time>2026-04-20T18:54:18.728Z</time></trkpt><trkpt lat="41.9879137" lon="12.4711773"><ele>30.0</ele><time>2026-04-20T18:54:19.726Z</time></trkpt><trkpt lat="41.9877611" lon="12.4713936"><ele>28.666666666666664</ele><time>2026-04-20T18:54:20.726Z</time></trkpt><trkpt lat="41.9876101" lon="12.4716196"><ele>27.333333333333332</ele><time>2026-04-20T18:54:21.727Z</time></trkpt><trkpt lat="41.9874808" lon="12.4718553"><ele>26.0</ele><time>2026-04-20T18:54:22.726Z</time></trkpt><trkpt lat="41.987349" lon="12.4720933"><ele>26.333333333333332</ele><time>2026-04-20T18:54:23.726Z</time></trkpt><trkpt lat="41.9872313" lon="12.4723301"><ele>26.666666666666664</ele><time>2026-04-20T18:54:24.727Z</time></trkpt><trkpt lat="41.9871147" lon="12.4725793"><ele>27.0</ele><time>2026-04-20T18:54:25.726Z</time></trkpt><trkpt lat="41.9870043" lon="12.4728342"><ele>27.0</ele><time>2026-04-20T18:54:26.726Z</time></trkpt><trkpt lat="41.9869059" lon="12.4730879"><ele>27.0</ele><time>2026-04-20T18:54:27.727Z</time></trkpt><trkpt lat="41.9868097" lon="12.47334"><ele>27.0</ele><time>2026-04-20T18:54:28.727Z</time></trkpt><trkpt lat="41.9867174" lon="12.4736053"><ele>31.666666666666664</ele><time>2026-04-20T18:54:29.726Z</time></trkpt><trkpt lat="41.9866285" lon="12.4738637"><ele>36.33333333333333</ele><time>2026-04-20T18:54:30.727Z</time></trkpt><trkpt lat="41.9865368" lon="12.4741309"><ele>41.0</ele><time>2026-04-20T18:54:31.726Z</time></trkpt><trkpt lat="41.9864458" lon="12.4743874"><ele>40.0</ele><time>2026-04-20T18:54:32.725Z</time></trkpt><trkpt lat="41.986358" lon="12.4746437"><ele>39.0</ele><time>2026-04-20T18:54:33.727Z</time></trkpt><trkpt lat="41.9862712" lon="12.4748938"><ele>38.0</ele><time>2026-04-20T18:54:34.725Z</time></trkpt><trkpt lat="41.986191" lon="12.4751385"><ele>38.0</ele><time>2026-04-20T18:54:35.726Z</time></trkpt><trkpt lat="41.9861086" lon="12.475382"><ele>38.0</ele><time>2026-04-20T18:54:36.726Z</time></trkpt><trkpt lat="41.9860271" lon="12.475625"><ele>38.0</ele><time>2026-04-20T18:54:37.727Z</time></trkpt><trkpt lat="41.9859669" lon="12.475906"><ele>36.666666666666664</ele><time>2026-04-20T18:54:38.727Z</time></trkpt><trkpt lat="41.9859414" lon="12.4761653"><ele>35.333333333333336</ele><time>2026-04-20T18:54:39.727Z</time></trkpt><trkpt lat="41.9859029" lon="12.4764155"><ele>34.0</ele><time>2026-04-20T18:54:40.725Z</time></trkpt><trkpt lat="41.9858698" lon="12.4766757"><ele>33.333333333333336</ele><time>2026-04-20T18:54:41.727Z</time></trkpt><trkpt lat="41.9858471" lon="12.476943"><ele>32.666666666666664</ele><time>2026-04-20T18:54:42.726Z</time></trkpt><trkpt lat="41.985838" lon="12.4772078"><ele>32.0</ele><time>2026-04-20T18:54:43.726Z</time></trkpt><trkpt lat="41.9858373" lon="12.4774756"><ele>30.333333333333332</ele><time>2026-04-20T18:54:44.726Z</time></trkpt><trkpt lat="41.9858444" lon="12.4777419"><ele>28.666666666666664</ele><time>2026-04-20T18:54:45.727Z</time></trkpt><trkpt lat="41.9858658" lon="12.4780171"><ele>27.0</ele><time>2026-04-20T18:54:46.727Z</time></trkpt><trkpt lat="41.9858923" lon="12.4782905"><ele>27.0</ele><time>2026-04-20T18:54:47.727Z</time></trkpt><trkpt lat="41.985931" lon="12.4785711"><ele>27.0</ele><time>2026-04-20T18:54:48.727Z</time></trkpt><trkpt lat="41.9859715" lon="12.4788495"><ele>27.0</ele><time>2026-04-20T18:54:49.726Z</time></trkpt><trkpt lat="41.9860212" lon="12.4791216"><ele>27.666666666666664</ele><time>2026-04-20T18:54:50.727Z</time></trkpt><trkpt lat="41.9860665" lon="12.4793861"><ele>28.333333333333332</ele><time>2026-04-20T18:54:51.726Z</time></trkpt><trkpt lat="41.9861103" lon="12.4796439"><ele>29.0</ele><time>2026-04-20T18:54:52.727Z</time></trkpt><trkpt lat="41.9861477" lon="12.4798979"><ele>27.666666666666664</ele><time>2026-04-20T18:54:53.727Z</time></trkpt><trkpt lat="41.986177" lon="12.4801598"><ele>26.333333333333336</ele><time>2026-04-20T18:54:54.727Z</time></trkpt><trkpt lat="41.9861978" lon="12.4804338"><ele>25.0</ele><time>2026-04-20T18:54:55.727Z</time></trkpt><trkpt lat="41.9862101" lon="12.4807171"><ele>24.666666666666668</ele><time>2026-04-20T18:54:56.726Z</time></trkpt><trkpt lat="41.9862146" lon="12.4810077"><ele>24.333333333333336</ele><time>2026-04-20T18:54:57.726Z</time></trkpt><trkpt lat="41.9862036" lon="12.4813167"><ele>24.0</ele><time>2026-04-20T18:54:58.727Z</time></trkpt><trkpt lat="41.9861869" lon="12.481637"><ele>24.0</ele><time>2026-04-20T18:54:59.727Z</time></trkpt><trkpt lat="41.9861656" lon="12.4819609"><ele>24.0</ele><time>2026-04-20T18:55:00.727Z</time></trkpt><trkpt lat="41.9861432" lon="12.4822847"><ele>24.0</ele><time>2026-04-20T18:55:01.727Z</time></trkpt><trkpt lat="41.9861185" lon="12.4826179"><ele>24.0</ele><time>2026-04-20T18:55:02.727Z</time></trkpt><trkpt lat="41.9860946" lon="12.4829469"><ele>24.0</ele><time>2026-04-20T18:55:03.727Z</time></trkpt><trkpt lat="41.9860719" lon="12.4832781"><ele>24.0</ele><time>2026-04-20T18:55:04.726Z</time></trkpt><trkpt lat="41.9860415" lon="12.4836121"><ele>23.0</ele><time>2026-04-20T18:55:05.727Z</time></trkpt><trkpt lat="41.9860087" lon="12.4839461"><ele>22.0</ele><time>2026-04-20T18:55:06.726Z</time></trkpt><trkpt lat="41.9859767" lon="12.4842788"><ele>21.0</ele><time>2026-04-20T18:55:07.727Z</time></trkpt><trkpt lat="41.985943" lon="12.4846109"><ele>20.0</ele><time>2026-04-20T18:55:08.727Z</time></trkpt><trkpt lat="41.9859078" lon="12.4849438"><ele>20.0</ele><time>2026-04-20T18:55:09.727Z</time></trkpt><trkpt lat="41.9858697" lon="12.4852691"><ele>20.0</ele><time>2026-04-20T18:55:10.727Z</time></trkpt><trkpt lat="41.9858299" lon="12.4855972"><ele>21.5</ele><time>2026-04-20T18:55:11.726Z</time></trkpt><trkpt lat="41.9857901" lon="12.4859236"><ele>23.0</ele><time>2026-04-20T18:55:12.727Z</time></trkpt><trkpt lat="41.9857413" lon="12.4862421"><ele>23.5</ele><time>2026-04-20T18:55:13.727Z</time></trkpt><trkpt lat="41.985699" lon="12.4865508"><ele>24.0</ele><time>2026-04-20T18:55:14.726Z</time></trkpt><trkpt lat="41.9856561" lon="12.4868459"><ele>23.0</ele><time>2026-04-20T18:55:15.727Z</time></trkpt><trkpt lat="41.9856179" lon="12.4871205"><ele>22.0</ele><time>2026-04-20T18:55:16.728Z</time></trkpt><trkpt lat="41.9855786" lon="12.4873906"><ele>21.0</ele><time>2026-04-20T18:55:17.726Z</time></trkpt><trkpt lat="41.9855446" lon="12.4876445"><ele>21.0</ele><time>2026-04-20T18:55:18.726Z</time></trkpt><trkpt lat="41.9855069" lon="12.4878909"><ele>21.0</ele><time>2026-04-20T18:55:19.726Z</time></trkpt><trkpt lat="41.9854768" lon="12.4881202"><ele>21.0</ele><time>2026-04-20T18:55:20.726Z</time></trkpt><trkpt lat="41.9854464" lon="12.4883427"><ele>21.0</ele><time>2026-04-20T18:55:21.728Z</time></trkpt><trkpt lat="41.9854165" lon="12.488557"><ele>21.0</ele><time>2026-04-20T18:55:22.726Z</time></trkpt><trkpt lat="41.9853876" lon="12.4887642"><ele>21.0</ele><time>2026-04-20T18:55:23.727Z</time></trkpt><trkpt lat="41.9853563" lon="12.4889644"><ele>20.5</ele><time>2026-04-20T18:55:24.727Z</time></trkpt><trkpt lat="41.9853318" lon="12.4891553"><ele>20.0</ele><time>2026-04-20T18:55:25.726Z</time></trkpt><trkpt lat="41.9852995" lon="12.4893464"><ele>19.5</ele><time>2026-04-20T18:55:26.726Z</time></trkpt><trkpt lat="41.9852721" lon="12.4895273"><ele>19.0</ele><time>2026-04-20T18:55:27.727Z</time></trkpt><trkpt lat="41.9852475" lon="12.489689"><ele>18.8</ele><time>2026-04-20T18:55:28.727Z</time></trkpt><trkpt lat="41.985222" lon="12.4898435"><ele>18.599999999999998</ele><time>2026-04-20T18:55:29.726Z</time></trkpt><trkpt lat="41.9851994" lon="12.4899801"><ele>18.4</ele><time>2026-04-20T18:55:30.726Z</time></trkpt><trkpt lat="41.9851794" lon="12.4901094"><ele>18.2</ele><time>2026-04-20T18:55:31.727Z</time></trkpt><trkpt lat="41.9851514" lon="12.4902348"><ele>18.0</ele><time>2026-04-20T18:55:32.727Z</time></trkpt><trkpt lat="41.9851297" lon="12.4903399"><ele>18.000000000000004</ele><time>2026-04-20T18:55:33.727Z</time></trkpt><trkpt lat="41.9851048" lon="12.4904188"><ele>18.0</ele><time>2026-04-20T18:55:34.725Z</time></trkpt><trkpt lat="41.9850785" lon="12.4905005"><ele>18.0</ele><time>2026-04-20T18:55:35.727Z</time></trkpt><trkpt lat="41.9850513" lon="12.4905802"><ele>18.0</ele><time>2026-04-20T18:55:36.727Z</time></trkpt><trkpt lat="41.9850329" lon="12.4906729"><ele>18.0</ele><time>2026-04-20T18:55:37.726Z</time></trkpt><trkpt lat="41.9850328" lon="12.4907651"><ele>18.000000000000004</ele><time>2026-04-20T18:55:38.727Z</time></trkpt><trkpt lat="41.9850546" lon="12.4908523"><ele>18.0</ele><time>2026-04-20T18:55:39.726Z</time></trkpt><trkpt lat="41.9851526" lon="12.4909567"><ele>18.5</ele><time>2026-04-20T18:55:41.727Z</time></trkpt><trkpt lat="41.9852788" lon="12.4909525"><ele>19.0</ele><time>2026-04-20T18:55:43.727Z</time></trkpt><trkpt lat="41.9853341" lon="12.4908974"><ele>19.5</ele><time>2026-04-20T18:55:44.726Z</time></trkpt><trkpt lat="41.9853839" lon="12.4908184"><ele>20.0</ele><time>2026-04-20T18:55:45.727Z</time></trkpt><trkpt lat="41.9854412" lon="12.4907458"><ele>20.5</ele><time>2026-04-20T18:55:46.726Z</time></trkpt><trkpt lat="41.9855112" lon="12.4906925"><ele>21.0</ele><time>2026-04-20T18:55:47.726Z</time></trkpt><trkpt lat="41.9855807" lon="12.4906696"><ele>21.0</ele><time>2026-04-20T18:55:48.727Z</time></trkpt><trkpt lat="41.9856505" lon="12.4906576"><ele>21.0</ele><time>2026-04-20T18:55:49.729Z</time></trkpt><trkpt lat="41.9857263" lon="12.4906563"><ele>21.0</ele><time>2026-04-20T18:55:50.727Z</time></trkpt><trkpt lat="41.9858016" lon="12.4906505"><ele>21.0</ele><time>2026-04-20T18:55:51.727Z</time></trkpt><trkpt lat="41.9859759" lon="12.4906758"><ele>21.0</ele><time>2026-04-20T18:55:52.727Z</time></trkpt><trkpt lat="41.9861189" lon="12.4906341"><ele>20.0</ele><time>2026-04-20T18:55:53.727Z</time></trkpt><trkpt lat="41.9862235" lon="12.4906898"><ele>19.0</ele><time>2026-04-20T18:55:54.727Z</time></trkpt><trkpt lat="41.9863042" lon="12.4907652"><ele>18.0</ele><time>2026-04-20T18:55:55.727Z</time></trkpt><trkpt lat="41.9863934" lon="12.49086"><ele>17.0</ele><time>2026-04-20T18:55:56.727Z</time></trkpt><trkpt lat="41.9864733" lon="12.4909984"><ele>17.0</ele><time>2026-04-20T18:55:57.725Z</time></trkpt><trkpt lat="41.986539" lon="12.491129"><ele>17.0</ele><time>2026-04-20T18:55:58.726Z</time></trkpt><trkpt lat="41.9866073" lon="12.4912679"><ele>17.0</ele><time>2026-04-20T18:55:59.727Z</time></trkpt><trkpt lat="41.9866822" lon="12.4914088"><ele>17.0</ele><time>2026-04-20T18:56:00.727Z</time></trkpt><trkpt lat="41.9867511" lon="12.4915555"><ele>18.0</ele><time>2026-04-20T18:56:01.727Z</time></trkpt><trkpt lat="41.9868144" lon="12.4917047"><ele>19.0</ele><time>2026-04-20T18:56:02.727Z</time></trkpt><trkpt lat="41.9868639" lon="12.4918602"><ele>20.0</ele><time>2026-04-20T18:56:03.727Z</time></trkpt><trkpt lat="41.9868897" lon="12.4920249"><ele>21.0</ele><time>2026-04-20T18:56:04.726Z</time></trkpt><trkpt lat="41.9869028" lon="12.4922013"><ele>21.25</ele><time>2026-04-20T18:56:05.725Z</time></trkpt><trkpt lat="41.9869045" lon="12.4923861"><ele>21.5</ele><time>2026-04-20T18:56:06.727Z</time></trkpt><trkpt lat="41.9869111" lon="12.4925609"><ele>21.75</ele><time>2026-04-20T18:56:07.727Z</time></trkpt><trkpt lat="41.986921" lon="12.4927218"><ele>22.0</ele><time>2026-04-20T18:56:08.725Z</time></trkpt><trkpt lat="41.9869441" lon="12.4928671"><ele>22.5</ele><time>2026-04-20T18:56:09.728Z</time></trkpt><trkpt lat="41.9869864" lon="12.4930046"><ele>23.0</ele><time>2026-04-20T18:56:10.726Z</time></trkpt><trkpt lat="41.9870457" lon="12.4931458"><ele>23.5</ele><time>2026-04-20T18:56:11.726Z</time></trkpt><trkpt lat="41.9871179" lon="12.4932917"><ele>24.0</ele><time>2026-04-20T18:56:12.726Z</time></trkpt><trkpt lat="41.9872036" lon="12.4934404"><ele>24.0</ele><time>2026-04-20T18:56:13.725Z</time></trkpt><trkpt lat="41.9872855" lon="12.493586"><ele>24.0</ele><time>2026-04-20T18:56:14.725Z</time></trkpt><trkpt lat="41.9873684" lon="12.4937192"><ele>24.0</ele><time>2026-04-20T18:56:15.728Z</time></trkpt><trkpt lat="41.9874351" lon="12.4938316"><ele>24.0</ele><time>2026-04-20T18:56:16.727Z</time></trkpt><trkpt lat="41.9874888" lon="12.4939058"><ele>24.0</ele><time>2026-04-20T18:56:17.728Z</time></trkpt><trkpt lat="41.9875285" lon="12.4939781"><ele>24.166666666666668</ele><time>2026-04-20T18:56:18.727Z</time></trkpt><trkpt lat="41.9875667" lon="12.4940622"><ele>24.333333333333336</ele><time>2026-04-20T18:56:20.726Z</time></trkpt><trkpt lat="41.9876284" lon="12.4941289"><ele>24.5</ele><time>2026-04-20T18:56:28.726Z</time></trkpt><trkpt lat="41.9877051" lon="12.4941361"><ele>24.666666666666668</ele><time>2026-04-20T18:56:29.726Z</time></trkpt><trkpt lat="41.9877951" lon="12.494146"><ele>24.833333333333336</ele><time>2026-04-20T18:56:30.726Z</time></trkpt><trkpt lat="41.9878768" lon="12.4941621"><ele>25.0</ele><time>2026-04-20T18:56:31.727Z</time></trkpt><trkpt lat="41.9879488" lon="12.4941711"><ele>25.0</ele><time>2026-04-20T18:56:32.726Z</time></trkpt><trkpt lat="41.9880257" lon="12.4941848"><ele>25.0</ele><time>2026-04-20T18:56:35.726Z</time></trkpt><trkpt lat="41.9881033" lon="12.4941904"><ele>25.0</ele><time>2026-04-20T18:56:37.727Z</time></trkpt><trkpt lat="41.9882368" lon="12.4942037"><ele>25.0</ele><time>2026-04-20T18:56:39.726Z</time></trkpt><trkpt lat="41.9883277" lon="12.4942141"><ele>25.0</ele><time>2026-04-20T18:56:40.728Z</time></trkpt><trkpt lat="41.9884419" lon="12.4942288"><ele>25.75</ele><time>2026-04-20T18:56:41.728Z</time></trkpt><trkpt lat="41.9885739" lon="12.4942497"><ele>26.5</ele><time>2026-04-20T18:56:42.728Z</time></trkpt><trkpt lat="41.9887112" lon="12.4942696"><ele>27.25</ele><time>2026-04-20T18:56:43.726Z</time></trkpt><trkpt lat="41.9888558" lon="12.4942902"><ele>28.0</ele><time>2026-04-20T18:56:44.727Z</time></trkpt><trkpt lat="41.989002" lon="12.4943088"><ele>28.0</ele><time>2026-04-20T18:56:45.727Z</time></trkpt><trkpt lat="41.9891521" lon="12.494325"><ele>28.0</ele><time>2026-04-20T18:56:46.725Z</time></trkpt><trkpt lat="41.9893134" lon="12.4943427"><ele>28.0</ele><time>2026-04-20T18:56:47.726Z</time></trkpt><trkpt lat="41.9894767" lon="12.4943632"><ele>30.333333333333336</ele><time>2026-04-20T18:56:48.727Z</time></trkpt><trkpt lat="41.9896464" lon="12.4943883"><ele>32.666666666666664</ele><time>2026-04-20T18:56:49.727Z</time></trkpt><trkpt lat="41.9898218" lon="12.4944153"><ele>35.0</ele><time>2026-04-20T18:56:50.727Z</time></trkpt><trkpt lat="41.9899979" lon="12.4944369"><ele>37.666666666666664</ele><time>2026-04-20T18:56:51.727Z</time></trkpt><trkpt lat="41.9901792" lon="12.494456"><ele>40.333333333333336</ele><time>2026-04-20T18:56:52.726Z</time></trkpt><trkpt lat="41.9903643" lon="12.4944741"><ele>43.0</ele><time>2026-04-20T18:56:53.727Z</time></trkpt><trkpt lat="41.9905524" lon="12.4944973"><ele>43.0</ele><time>2026-04-20T18:56:54.727Z</time></trkpt><trkpt lat="41.9907473" lon="12.4945211"><ele>43.0</ele><time>2026-04-20T18:56:55.727Z</time></trkpt><trkpt lat="41.9909399" lon="12.4945411"><ele>43.0</ele><time>2026-04-20T18:56:56.727Z</time></trkpt><trkpt lat="41.9911338" lon="12.4945661"><ele>40.66666666666667</ele><time>2026-04-20T18:56:57.728Z</time></trkpt><trkpt lat="41.9913412" lon="12.4945786"><ele>38.333333333333336</ele><time>2026-04-20T18:56:58.728Z</time></trkpt><trkpt lat="41.991547" lon="12.4946062"><ele>36.0</ele><time>2026-04-20T18:56:59.727Z</time></trkpt><trkpt lat="41.9917566" lon="12.4946351"><ele>36.0</ele><time>2026-04-20T18:57:00.726Z</time></trkpt><trkpt lat="41.991966" lon="12.4946658"><ele>36.0</ele><time>2026-04-20T18:57:01.726Z</time></trkpt><trkpt lat="41.9921763" lon="12.4946991"><ele>36.0</ele><time>2026-04-20T18:57:02.728Z</time></trkpt><trkpt lat="41.9923891" lon="12.4947369"><ele>35.333333333333336</ele><time>2026-04-20T18:57:03.727Z</time></trkpt><trkpt lat="41.9925995" lon="12.4947857"><ele>34.66666666666667</ele><time>2026-04-20T18:57:04.727Z</time></trkpt><trkpt lat="41.9928066" lon="12.4948452"><ele>34.0</ele><time>2026-04-20T18:57:05.727Z</time></trkpt><trkpt lat="41.9930124" lon="12.4949251"><ele>34.0</ele><time>2026-04-20T18:57:06.726Z</time></trkpt><trkpt lat="41.9932098" lon="12.4950137"><ele>34.0</ele><time>2026-04-20T18:57:07.727Z</time></trkpt><trkpt lat="41.993412" lon="12.495109"><ele>34.0</ele><time>2026-04-20T18:57:08.726Z</time></trkpt><trkpt lat="41.9936172" lon="12.4952158"><ele>35.333333333333336</ele><time>2026-04-20T18:57:09.728Z</time></trkpt><trkpt lat="41.9938162" lon="12.4953229"><ele>36.666666666666664</ele><time>2026-04-20T18:57:10.726Z</time></trkpt><trkpt lat="41.9940223" lon="12.4954231"><ele>38.0</ele><time>2026-04-20T18:57:11.727Z</time></trkpt><trkpt lat="41.9942249" lon="12.4955281"><ele>38.0</ele><time>2026-04-20T18:57:12.727Z</time></trkpt><trkpt lat="41.9944277" lon="12.4956338"><ele>38.0</ele><time>2026-04-20T18:57:13.727Z</time></trkpt><trkpt lat="41.9946308" lon="12.4957405"><ele>38.0</ele><time>2026-04-20T18:57:14.727Z</time></trkpt><trkpt lat="41.9948306" lon="12.4958498"><ele>42.33333333333333</ele><time>2026-04-20T18:57:15.727Z</time></trkpt><trkpt lat="41.9950329" lon="12.495957"><ele>46.666666666666664</ele><time>2026-04-20T18:57:16.725Z</time></trkpt><trkpt lat="41.9952324" lon="12.4960575"><ele>51.0</ele><time>2026-04-20T18:57:17.726Z</time></trkpt><trkpt lat="41.9954298" lon="12.4961573"><ele>51.0</ele><time>2026-04-20T18:57:18.727Z</time></trkpt><trkpt lat="41.9956215" lon="12.4962524"><ele>51.0</ele><time>2026-04-20T18:57:19.726Z</time></trkpt><trkpt lat="41.9958042" lon="12.4963395"><ele>51.0</ele><time>2026-04-20T18:57:20.727Z</time></trkpt><trkpt lat="41.9959833" lon="12.4964128"><ele>45.0</ele><time>2026-04-20T18:57:21.726Z</time></trkpt><trkpt lat="41.9961569" lon="12.4964799"><ele>39.0</ele><time>2026-04-20T18:57:22.726Z</time></trkpt><trkpt lat="41.9963221" lon="12.4965319"><ele>33.0</ele><time>2026-04-20T18:57:23.726Z</time></trkpt><trkpt lat="41.9964894" lon="12.4965784"><ele>33.0</ele><time>2026-04-20T18:57:24.727Z</time></trkpt><trkpt lat="41.9966584" lon="12.4966162"><ele>33.0</ele><time>2026-04-20T18:57:25.728Z</time></trkpt><trkpt lat="41.9968336" lon="12.4966349"><ele>33.0</ele><time>2026-04-20T18:57:26.727Z</time></trkpt><trkpt lat="41.9970064" lon="12.496641"><ele>33.666666666666664</ele><time>2026-04-20T18:57:27.727Z</time></trkpt><trkpt lat="41.9971811" lon="12.4966315"><ele>34.33333333333333</ele><time>2026-04-20T18:57:28.728Z</time></trkpt><trkpt lat="41.9973576" lon="12.4966141"><ele>35.0</ele><time>2026-04-20T18:57:29.728Z</time></trkpt><trkpt lat="41.9975298" lon="12.4965881"><ele>33.0</ele><time>2026-04-20T18:57:30.728Z</time></trkpt><trkpt lat="41.9977008" lon="12.4965664"><ele>31.0</ele><time>2026-04-20T18:57:31.727Z</time></trkpt><trkpt lat="41.9978728" lon="12.4965478"><ele>29.0</ele><time>2026-04-20T18:57:32.726Z</time></trkpt><trkpt lat="41.9980306" lon="12.4965345"><ele>29.0</ele><time>2026-04-20T18:57:33.727Z</time></trkpt><trkpt lat="41.9981914" lon="12.4965141"><ele>29.0</ele><time>2026-04-20T18:57:34.727Z</time></trkpt><trkpt lat="41.9983297" lon="12.4964958"><ele>29.0</ele><time>2026-04-20T18:57:35.726Z</time></trkpt><trkpt lat="41.998451" lon="12.4964717"><ele>29.0</ele><time>2026-04-20T18:57:36.726Z</time></trkpt><trkpt lat="41.9985649" lon="12.49645"><ele>28.333333333333332</ele><time>2026-04-20T18:57:37.727Z</time></trkpt><trkpt lat="41.9986714" lon="12.4964306"><ele>27.666666666666664</ele><time>2026-04-20T18:57:38.726Z</time></trkpt><trkpt lat="41.9987679" lon="12.4964164"><ele>27.0</ele><time>2026-04-20T18:57:39.727Z</time></trkpt><trkpt lat="41.9988464" lon="12.4963962"><ele>26.333333333333336</ele><time>2026-04-20T18:57:40.728Z</time></trkpt><trkpt lat="41.9989155" lon="12.4963631"><ele>25.666666666666668</ele><time>2026-04-20T18:57:41.727Z</time></trkpt><trkpt lat="41.9989681" lon="12.4963081"><ele>25.0</ele><time>2026-04-20T18:57:42.726Z</time></trkpt><trkpt lat="41.9990103" lon="12.4962288"><ele>25.0</ele><time>2026-04-20T18:57:43.727Z</time></trkpt><trkpt lat="41.9990438" lon="12.4961325"><ele>25.0</ele><time>2026-04-20T18:57:44.727Z</time></trkpt><trkpt lat="41.9990492" lon="12.496016"><ele>25.0</ele><time>2026-04-20T18:57:45.727Z</time></trkpt><trkpt lat="41.9990483" lon="12.4958884"><ele>25.0</ele><time>2026-04-20T18:57:46.728Z</time></trkpt><trkpt lat="41.9990505" lon="12.4957445"><ele>25.0</ele><time>2026-04-20T18:57:47.725Z</time></trkpt><trkpt lat="41.9990448" lon="12.4955898"><ele>25.0</ele><time>2026-04-20T18:57:48.727Z</time></trkpt><trkpt lat="41.9990441" lon="12.4954369"><ele>25.0</ele><time>2026-04-20T18:57:49.727Z</time></trkpt><trkpt lat="41.9990349" lon="12.4952877"><ele>26.0</ele><time>2026-04-20T18:57:50.727Z</time></trkpt></trkseg></trk></gpx>